GFSGL_250_spd_000.txt.gz
Wind_Speed
103 107 112 116 119 122 120 118 116 112 111 104 99 94 90 87 83 81 79 77 74 76 76 74 75 75 74 73 70 66 64 64 60 68 77 85 92 91 90 88 87 86 90
111 115 120 125 128 128 124 123 118 113 107 100 96 93 89 85 83 81 78 76 76 77 78 78 77 76 73 72 71 67 63 64 61 63 74 79 86 91 86 84 81 82 84
118 122 125 131 133 131 126 120 113 105 102 97 94 92 89 86 82 78 77 75 74 74 75 75 75 74 71 67 65 65 66 65 65 64 71 78 82 89 88 84 81 79 80
126 129 131 137 140 127 118 111 105 102 100 97 94 90 88 84 80 77 74 72 71 72 72 71 70 68 66 66 65 66 65 65 66 65 68 75 80 86 87 84 79 78 79
133 137 138 138 127 116 109 103 101 100 98 94 90 86 81 77 75 72 69 67 65 65 65 63 61 61 61 61 61 63 62 61 62 61 63 68 73 77 80 81 76 76 77
137 137 135 128 116 109 106 103 99 96 92 87 83 78 74 70 66 63 61 61 60 60 59 58 56 56 56 55 56 57 60 59 59 59 61 65 70 73 76 77 75 72 73
136 133 122 111 108 108 106 101 95 90 85 80 75 71 68 64 61 59 57 57 57 56 55 54 53 53 51 50 53 55 56 57 57 56 58 61 65 69 72 73 75 73 73
128 120 113 108 106 104 99 92 86 80 77 73 69 64 62 60 57 55 54 54 54 51 47 46 48 49 46 48 50 51 52 53 52 52 56 60 61 64 67 71 73 72 72
116 112 109 106 102 96 91 85 80 75 70 67 64 62 60 59 55 53 51 50 47 43 41 40 44 45 45 46 48 48 47 45 45 46 50 53 55 57 59 62 67 70 73
110 110 106 99 93 90 85 80 74 69 67 65 63 58 54 52 49 47 46 44 41 39 38 39 41 45 44 44 44 43 44 42 42 43 45 48 51 51 54 56 61 64 68
110 105 96 90 87 82 77 72 70 68 64 60 56 52 48 45 46 44 41 39 38 37 37 38 41 42 42 39 38 39 40 40 39 39 40 42 45 47 48 52 56 58 61
100 92 87 84 79 75 71 69 66 62 57 54 52 50 44 42 43 44 40 36 37 36 37 37 38 37 37 35 35 36 37 37 36 35 35 37 39 41 43 47 52 54 58
92 87 83 79 74 70 68 64 60 56 54 52 51 49 46 42 41 42 38 35 37 36 35 35 33 33 32 33 34 31 33 33 34 33 33 33 33 35 38 42 46 51 54
85 81 77 73 71 66 61 57 54 53 52 50 49 46 44 42 42 38 35 35 35 33 32 32 30 29 30 31 31 27 26 29 31 30 30 30 30 30 32 34 38 44 49
80 76 73 70 65 62 59 55 53 50 50 50 47 44 43 39 37 34 33 33 31 30 29 28 27 26 28 29 28 26 23 23 24 27 30 30 29 28 29 30 31 36 42
76 72 68 65 62 58 56 55 50 48 48 47 44 42 38 35 31 29 28 28 27 26 27 26 25 25 26 26 27 24 24 22 21 21 23 25 27 27 27 27 29 33 35
70 68 65 61 57 55 54 53 52 48 44 44 40 36 33 30 28 26 25 24 24 25 25 24 24 23 24 25 25 23 23 21 20 19 19 19 21 24 24 26 27 28 29
65 64 60 56 55 54 53 51 49 47 44 38 34 32 29 27 26 26 25 24 25 25 25 24 23 23 23 24 23 23 22 20 19 19 18 18 19 20 19 19 23 26 28
62 59 55 53 53 53 51 49 46 43 39 35 31 28 27 27 27 26 25 25 24 24 23 22 23 23 23 23 22 21 20 20 19 18 17 18 19 19 19 19 19 20 24
57 55 53 52 52 52 49 46 44 40 36 33 30 29 26 23 22 22 21 21 20 20 21 21 22 23 23 22 21 19 19 20 20 18 17 17 18 20 19 20 20 19 19
55 52 51 50 51 50 47 44 41 38 35 32 30 26 23 21 20 19 18 17 17 18 19 19 21 22 23 22 20 20 20 20 20 18 18 19 20 21 21 21 21 21 20
51 50 50 49 48 47 44 41 39 36 34 31 28 24 22 21 20 19 18 17 17 17 18 19 21 22 22 22 21 20 20 20 19 18 17 19 19 19 20 21 21 22 21
49 49 49 48 45 45 42 39 37 35 32 30 26 24 23 21 20 20 18 18 17 17 18 19 21 22 23 22 22 22 21 20 19 18 19 20 21 20 19 21 22 22 22
48 49 47 46 44 42 41 36 34 33 30 28 24 23 23 21 20 20 19 18 18 18 18 19 21 22 23 23 23 23 22 22 21 20 22 22 22 21 19 19 21 22 22
47 47 45 44 42 39 39 35 31 31 29 26 24 23 23 22 21 20 19 19 19 19 19 20 21 22 23 24 24 24 23 22 22 22 22 23 22 21 21 19 19 20 22
46 46 44 42 40 38 37 35 31 28 28 26 25 24 24 23 22 21 20 20 19 20 19 20 21 22 23 23 24 25 24 23 23 22 23 24 24 24 22 21 20 20 20

GFSGL_250_spd_003.txt.gz
Wind_Speed
102 107 110 117 123 130 131 131 131 123 117 112 105 100 97 94 92 90 86 82 79 78 77 77 77 76 77 77 76 76 75 75 74 77 84 88 94 98 101 100 98 94 94
107 111 119 125 131 136 133 127 117 113 109 103 99 96 95 95 93 89 84 80 75 73 72 72 73 73 73 75 75 74 74 73 70 73 81 83 87 93 96 98 99 97 91
115 120 126 134 138 140 129 118 112 108 102 99 97 98 95 90 84 80 76 73 70 68 67 67 69 71 72 72 72 71 71 70 69 68 75 81 85 90 95 95 95 94 91
124 128 131 136 142 131 120 112 106 103 101 99 96 91 84 80 75 72 70 67 64 62 61 62 63 64 65 65 65 66 66 66 67 66 69 77 80 87 93 97 96 93 90
130 134 139 142 123 115 110 105 102 101 99 93 86 81 76 73 68 65 62 61 60 58 56 56 56 55 55 56 58 59 59 61 62 62 65 71 76 79 86 90 90 89 84
134 140 134 118 111 105 102 100 98 95 91 85 81 75 69 63 59 56 54 54 54 54 54 52 51 52 52 54 55 56 56 57 59 57 58 63 69 69 74 78 78 78 78
134 128 115 108 103 100 97 93 89 86 81 76 72 66 63 59 58 56 54 53 52 52 51 51 51 50 51 51 52 52 54 54 53 50 52 56 59 62 63 68 70 69 72
123 112 107 105 102 97 90 86 82 77 72 68 65 62 62 60 57 53 51 50 48 45 44 45 46 47 46 47 48 47 46 47 47 49 52 54 56 58 60 62 64 67 68
108 108 105 102 97 91 86 82 76 71 68 66 62 60 57 55 50 49 47 46 42 39 37 38 41 42 39 39 41 40 42 43 46 49 52 53 53 54 55 58 61 64 67
106 106 102 97 90 85 80 74 70 69 68 64 61 55 50 49 47 46 43 41 37 34 33 36 36 36 34 36 37 38 40 42 44 44 46 47 48 48 50 53 55 58 61
104 100 93 86 82 78 73 71 69 67 65 61 58 52 47 44 44 43 39 36 35 32 32 32 32 33 33 34 35 36 38 38 38 39 39 40 42 43 44 47 52 54 55
99 92 86 82 79 73 71 69 66 63 60 57 54 49 43 40 41 42 38 33 32 32 31 30 31 32 33 33 32 33 33 34 34 34 34 34 35 36 38 42 45 49 53
90 85 82 79 74 71 68 65 62 58 55 52 49 47 43 39 39 39 38 35 32 33 31 30 30 30 32 30 30 30 28 29 31 31 30 30 30 30 32 36 39 43 47
84 80 77 73 72 69 65 60 56 53 51 47 45 44 42 40 38 35 34 32 31 30 30 29 28 28 28 27 27 28 25 25 27 28 30 28 28 28 28 30 33 38 43
79 76 72 71 67 64 61 55 53 50 49 47 46 43 40 35 34 31 28 27 26 27 26 26 25 26 24 24 26 26 24 23 23 25 26 28 28 28 27 27 28 32 37
75 72 69 66 63 59 58 55 49 46 47 44 41 39 36 33 30 28 25 24 23 22 22 22 21 22 22 24 25 24 23 22 21 24 24 24 25 25 24 26 27 27 33
71 68 65 63 59 58 55 53 53 45 41 43 39 35 32 30 28 26 23 22 21 21 21 20 20 21 22 23 24 23 22 21 21 22 19 19 20 19 21 24 27 27 27
67 64 62 59 57 55 53 52 49 46 42 37 35 32 30 28 27 26 25 24 23 23 23 22 21 22 22 22 23 22 21 20 20 20 19 18 17 17 18 20 23 25 26
63 60 57 55 54 53 51 50 47 43 39 36 34 31 28 27 24 22 21 21 21 23 23 22 21 21 22 22 22 21 20 20 19 18 17 18 18 18 16 15 16 21 25
60 56 53 52 52 51 50 47 45 41 39 36 33 30 28 24 21 19 19 19 19 20 20 20 20 21 21 22 22 21 21 21 20 19 19 19 20 19 18 16 17 17 17
54 51 50 50 50 50 48 46 45 41 38 35 32 29 26 22 20 19 18 18 18 18 18 19 20 21 21 22 22 22 21 22 21 20 20 21 21 21 20 17 19 19 19
50 48 48 49 49 48 47 45 44 41 37 34 31 28 24 21 19 19 18 18 18 19 20 20 20 21 22 22 22 22 21 22 22 21 21 21 23 22 21 19 18 19 20
48 48 48 47 46 46 45 44 43 41 36 33 30 27 23 20 19 19 18 17 18 19 20 20 21 22 23 23 22 22 22 22 22 22 22 23 23 23 22 20 20 20 20
47 47 46 45 45 44 43 42 42 39 36 33 29 26 23 21 20 19 19 18 18 19 19 20 21 22 23 23 23 23 23 22 22 22 22 23 23 23 23 22 22 21 20
46 45 45 44 43 42 42 41 40 38 35 33 30 27 24 23 22 20 20 19 19 19 20 20 21 22 23 24 24 24 23 23 23 22 22 23 23 24 23 23 23 22 22
44 44 44 43 43 42 41 39 38 36 34 32 30 27 26 24 23 22 21 20 20 20 20 21 21 22 23 23 24 24 24 24 23 24 24 24 24 25 24 23 23 23 23

GFSGL_250_spd_006.txt.gz
Wind_Speed
100 104 108 112 118 121 126 128 130 132 132 131 126 115 108 103 99 97 94 90 86 82 80 79 77 78 81 84 84 85 84 81 78 83 85 86 89 89 89 92 93 95 102
107 111 115 119 125 129 130 133 133 131 124 116 109 105 102 100 99 94 88 82 77 75 73 71 69 67 69 72 75 77 79 78 75 78 82 86 90 91 92 91 92 91 95
114 118 123 128 131 133 133 132 128 119 111 108 104 102 100 96 90 84 78 75 72 69 66 64 62 60 60 61 64 67 70 72 71 72 80 84 87 91 95 95 93 91 91
123 126 130 132 135 135 127 119 111 107 106 103 100 95 91 86 81 78 73 68 64 60 57 54 53 53 53 54 56 59 61 64 66 67 74 81 83 88 92 96 96 93 90
129 132 130 130 125 118 110 105 104 104 102 97 89 84 80 77 74 70 65 61 59 57 54 52 49 49 48 49 51 53 55 58 60 62 68 76 81 83 86 93 94 94 91
136 128 124 116 110 105 105 104 102 99 94 87 81 75 71 67 66 63 62 58 56 54 50 48 46 47 46 47 48 49 51 53 55 55 59 68 74 73 77 83 86 89 89
122 117 110 105 105 104 103 99 94 88 83 79 74 70 66 63 61 58 57 55 51 46 43 42 41 41 43 44 45 47 47 47 49 50 55 60 63 64 67 74 77 80 81
114 107 105 105 103 100 96 90 84 79 75 72 68 65 62 58 54 52 52 50 47 43 40 39 39 40 39 39 40 41 42 43 44 49 53 56 59 60 62 65 68 72 74
105 105 103 101 97 92 85 80 75 73 70 67 65 61 57 54 51 49 47 46 45 40 37 36 38 39 36 35 36 36 35 36 40 43 45 47 49 51 55 58 63 63 66
103 101 99 94 86 81 77 73 70 68 67 64 60 55 50 49 47 45 43 42 39 34 33 36 36 33 31 32 33 32 32 34 36 38 41 43 45 46 49 53 55 57 59
101 96 91 84 79 77 73 69 67 65 64 60 54 49 47 46 45 45 42 38 35 31 31 34 32 30 28 29 28 28 29 31 32 35 38 40 43 45 46 49 51 52 54
96 89 83 78 75 73 69 66 64 63 61 55 51 48 45 44 43 42 40 37 35 32 32 32 29 28 27 26 26 27 28 27 29 32 34 35 38 39 40 43 44 46 51
89 82 78 75 72 69 66 63 62 60 56 52 49 47 45 43 42 39 36 32 31 30 30 28 26 27 25 25 24 25 25 26 27 28 30 31 31 33 35 38 41 43 47
81 77 74 71 69 66 63 61 59 56 52 50 49 47 43 40 37 33 29 27 26 26 25 25 24 24 23 23 23 23 24 24 25 27 27 26 26 27 28 29 32 37 41
76 74 71 68 65 62 62 60 54 51 50 49 46 44 41 36 32 28 25 23 21 20 20 21 21 21 22 22 22 22 23 23 24 24 24 24 24 24 25 26 28 31 35
72 70 67 65 63 61 60 54 51 47 48 46 43 41 36 32 29 26 23 20 18 17 17 18 17 19 20 21 21 21 22 22 22 21 21 22 22 23 25 26 26 26 30
69 66 64 62 60 58 55 51 49 45 43 42 39 37 34 31 27 25 23 21 19 18 18 17 16 18 19 20 21 22 23 22 21 20 20 21 21 23 24 25 26 26 27
65 63 61 58 56 53 51 49 47 45 42 38 35 33 31 28 25 24 22 20 18 18 19 19 18 20 20 21 22 22 23 22 21 20 20 20 21 23 22 23 24 26 26
61 58 55 53 51 50 49 47 46 44 40 36 34 32 29 26 23 21 19 17 16 17 18 18 19 20 21 22 22 23 22 22 22 21 21 21 20 20 20 21 21 24 26
56 54 52 50 49 48 47 45 44 42 38 35 34 30 28 25 22 19 18 17 17 17 17 17 18 20 21 22 23 23 23 24 23 22 22 22 21 20 20 20 20 21 23
52 50 49 49 48 46 45 44 43 41 38 36 32 30 27 25 22 19 18 18 17 17 17 17 18 20 22 23 23 24 24 25 24 24 23 23 23 21 21 20 19 19 21
50 48 48 47 46 45 44 43 41 40 38 35 32 29 26 24 22 20 19 18 18 17 17 18 19 21 22 23 24 24 25 26 26 25 25 24 23 23 21 20 19 19 19
48 47 47 46 45 44 43 42 41 39 36 33 31 28 27 25 23 21 20 19 18 18 18 19 20 21 22 23 24 25 26 26 26 26 25 24 24 23 24 22 21 20 19
47 46 46 46 44 42 42 41 39 37 36 33 31 30 27 25 24 22 21 20 19 19 19 19 20 21 22 23 24 25 26 26 26 26 26 25 24 24 24 23 22 21 20
47 46 45 44 43 42 41 39 38 37 35 34 32 30 27 25 24 23 22 21 21 20 20 20 20 21 22 23 24 25 25 26 26 26 27 26 26 25 24 24 22 22 21
46 44 42 42 42 41 39 39 38 37 35 34 32 29 27 25 23 22 22 21 21 21 21 20 21 21 22 23 24 24 25 25 26 26 26 27 27 27 26 25 24 23 22

GFSGL_250_spd_009.txt.gz
Wind_Speed
96 102 105 109 114 118 124 129 133 137 140 138 134 124 116 110 108 106 103 101 97 93 88 83 80 78 75 75 76 76 79 82 81 83 87 90 87 84 81 83 86 91 97
103 107 112 116 122 128 131 136 139 139 134 123 114 110 110 108 105 103 99 94 89 84 80 75 72 70 67 67 68 69 71 74 74 75 77 81 83 85 84 81 85 90 92
111 115 121 127 132 135 136 136 130 122 115 112 111 111 108 105 101 96 92 84 79 76 71 67 64 61 60 59 60 60 62 66 67 69 72 74 77 82 83 83 85 87 87
118 123 130 135 137 134 131 126 118 115 112 110 109 107 101 96 89 86 81 78 74 70 66 63 60 58 57 56 56 56 56 57 60 62 66 69 71 76 78 81 84 84 84
127 132 133 135 130 125 120 117 113 111 109 107 101 95 89 84 79 79 75 73 69 67 64 59 57 55 55 54 55 56 55 53 52 55 62 65 66 69 72 77 79 81 81
137 135 132 123 119 115 113 110 108 106 102 96 89 84 80 77 72 71 69 69 66 62 58 54 50 47 48 48 49 51 52 51 50 50 56 60 61 62 63 70 73 76 79
128 121 115 111 111 110 107 106 102 96 89 84 80 76 72 69 65 67 64 61 59 56 51 45 42 41 42 43 44 44 45 45 46 47 51 54 54 55 58 64 67 69 73
112 108 107 107 106 104 101 95 89 84 79 75 71 67 64 63 60 61 58 54 51 48 44 39 38 39 40 41 40 39 39 38 39 43 49 52 52 51 53 57 60 63 67
107 108 107 104 101 97 91 84 80 75 72 69 64 61 59 60 55 55 53 49 44 41 38 37 36 38 36 36 34 33 34 34 36 39 43 47 48 48 50 53 57 56 60
102 103 102 100 96 89 83 77 74 69 66 64 61 58 56 55 53 51 49 47 41 37 35 36 35 35 33 33 33 32 32 33 34 35 38 41 42 43 47 51 51 54 57
105 100 95 91 84 79 74 71 67 65 63 61 60 56 53 51 50 48 45 43 38 35 35 35 33 30 31 31 30 29 28 29 30 32 35 37 38 40 41 44 46 49 52
101 95 89 83 77 72 69 66 64 63 61 59 55 52 49 48 47 44 41 38 35 33 33 33 31 28 29 29 27 27 26 26 28 31 33 35 37 39 40 42 43 47 51
94 87 81 75 71 68 66 64 63 62 59 55 52 50 49 45 43 40 37 34 31 30 29 28 26 25 26 25 25 25 25 26 28 30 31 33 34 35 36 37 38 41 45
83 78 74 70 68 66 64 61 58 56 54 52 50 48 45 42 40 36 32 29 27 26 25 23 22 22 21 22 22 23 23 25 26 26 27 27 29 31 32 34 36 38 41
75 72 69 67 65 63 60 59 54 52 50 50 49 45 43 40 36 33 29 26 24 22 21 21 20 19 19 20 20 21 22 23 23 22 23 25 27 28 28 29 30 32 36
72 69 66 63 62 60 57 53 52 51 49 45 45 43 40 37 34 30 26 24 21 20 19 19 18 18 18 18 19 21 20 21 21 21 22 24 24 24 24 26 28 29 31
69 66 63 61 58 56 54 51 49 47 47 47 43 39 36 34 30 27 24 22 21 20 20 20 19 18 17 17 18 20 20 20 21 22 21 22 22 22 23 24 25 27 29
66 64 60 58 55 54 51 50 48 45 43 40 40 36 33 30 27 25 22 20 19 18 18 19 20 20 19 19 19 20 21 21 22 22 21 21 22 22 22 24 25 26 27
63 60 57 55 53 51 49 48 47 45 42 40 37 36 31 28 25 23 21 19 18 18 17 18 19 20 21 21 22 23 23 23 24 23 21 21 22 23 23 23 24 25 25
60 57 55 53 51 49 48 47 46 43 41 39 36 33 29 26 24 22 20 18 18 18 18 18 19 20 22 23 24 24 24 25 25 24 23 22 23 23 22 23 24 24 23
57 55 53 50 49 48 47 47 45 42 41 37 34 30 29 25 23 21 20 18 18 19 19 19 19 20 21 22 24 24 25 26 26 25 24 24 24 24 23 23 24 25 23
55 53 51 49 49 48 46 44 44 41 38 36 33 31 28 26 24 22 21 19 19 20 20 20 20 21 22 23 24 25 26 26 27 26 26 26 25 24 24 23 22 22 23
53 50 50 49 47 45 45 43 42 40 38 36 33 30 29 26 25 22 21 20 21 21 21 21 21 21 23 24 24 26 27 27 27 27 27 26 26 25 24 24 23 22 22
51 50 49 47 45 45 44 42 40 40 38 35 32 29 28 27 24 24 21 21 21 22 22 23 23 23 23 23 25 26 27 27 27 27 27 26 26 26 25 25 25 24 24
51 49 47 45 45 44 41 41 40 39 37 35 32 30 28 27 25 24 23 21 21 22 22 23 24 24 24 24 24 25 27 27 28 28 28 27 27 27 27 27 26 25 25
48 47 46 46 44 43 40 39 39 38 37 35 33 31 29 27 25 24 23 23 22 22 22 23 23 24 25 25 24 25 26 27 27 27 27 27 27 26 27 27 27 27 26

GFSGL_250_spd_015.txt.gz
Wind_Speed
92 98 103 106 110 117 123 130 134 136 137 136 133 126 120 114 110 107 104 101 95 89 86 81 78 74 72 69 65 63 61 57 55 66 67 72 78 81 84 91 93 95 100
97 102 107 113 119 125 130 137 135 130 127 124 123 118 115 111 107 102 97 92 87 81 78 74 70 67 66 63 61 58 58 57 52 59 63 65 69 73 75 81 88 91 95
102 108 115 123 129 133 129 123 123 117 114 114 113 111 108 103 98 93 89 84 79 75 73 70 67 63 62 60 57 55 53 54 53 55 60 60 63 66 69 74 80 84 86
108 116 122 130 131 131 130 126 117 112 110 105 100 96 91 87 83 81 81 78 74 71 69 67 63 59 57 56 54 54 52 51 52 53 58 59 59 61 63 66 69 74 76
118 124 128 129 132 126 122 120 117 114 106 97 90 85 82 78 75 75 75 71 70 68 66 63 62 59 55 52 51 52 49 46 48 50 54 55 56 58 59 58 60 64 65
124 127 130 131 129 125 118 110 110 106 98 89 84 78 78 75 72 71 71 68 65 64 62 60 58 56 53 48 45 46 44 42 42 44 47 49 51 52 54 55 55 55 56
126 131 132 128 123 117 114 105 99 94 89 84 80 77 76 73 68 64 65 64 61 59 57 53 51 49 47 44 41 40 38 36 38 37 39 41 42 43 45 50 52 53 54
131 129 128 124 117 112 107 99 92 87 84 82 78 74 70 68 65 62 59 57 56 53 52 50 50 48 43 40 40 39 36 35 37 35 35 35 38 37 41 43 45 48 53
131 126 124 117 111 104 97 90 85 81 79 77 72 68 65 62 60 58 55 54 53 49 46 44 43 41 39 37 37 35 34 33 34 33 32 33 36 36 38 40 42 45 49
129 125 116 109 102 95 90 82 78 77 74 71 67 63 60 58 56 55 52 49 47 44 42 40 38 36 35 34 32 31 31 30 30 30 30 30 33 34 37 39 40 43 45
123 120 109 102 95 90 83 79 77 74 70 68 65 62 59 56 54 51 49 48 45 40 38 34 32 30 29 28 27 27 27 27 27 27 27 28 28 31 33 35 37 39 42
119 110 104 97 91 82 78 75 71 69 66 64 63 60 56 54 51 49 47 44 40 37 34 31 29 27 25 23 22 23 23 24 26 26 25 25 26 28 30 31 32 35 37
112 104 97 92 84 78 74 71 68 66 63 60 59 57 55 53 50 47 43 40 38 35 32 29 26 23 21 20 19 20 21 22 23 23 23 23 24 24 26 27 29 31 33
106 98 93 85 79 75 71 69 66 63 59 56 54 53 53 51 47 43 42 39 36 32 29 26 23 21 19 18 18 18 19 20 21 21 22 22 21 22 23 24 26 27 30
100 93 86 79 76 72 69 66 63 60 56 54 53 51 48 47 45 43 40 36 32 29 26 24 22 20 17 16 16 17 18 19 19 20 21 20 21 22 23 25 27 28 30
94 87 79 75 72 69 66 63 59 57 54 52 50 46 44 43 41 39 37 34 31 27 25 22 20 18 17 16 16 16 17 18 19 19 20 21 22 22 24 24 25 26 27
88 80 75 72 68 66 63 60 58 56 53 50 47 45 44 41 40 37 35 32 30 27 24 20 18 16 16 16 16 16 17 18 19 19 20 22 23 23 23 23 24 26 26
81 75 72 67 65 62 59 57 56 54 50 48 48 45 44 41 39 37 34 32 29 27 23 20 17 16 16 16 17 18 19 19 20 21 21 22 23 23 24 24 25 26 26
75 72 67 64 62 59 57 54 52 50 49 47 45 45 42 40 38 35 32 31 29 27 25 22 19 17 17 18 19 20 22 22 23 23 23 24 24 25 26 26 27 26 27
72 68 64 62 59 57 54 51 50 49 48 47 43 41 39 37 35 34 32 30 29 27 25 24 21 19 19 19 20 21 24 25 26 26 26 27 27 28 28 28 28 28 28
67 64 62 59 57 54 51 50 50 49 48 46 43 39 38 37 36 34 33 30 28 27 25 24 23 22 21 21 21 22 24 26 27 28 28 29 29 29 29 29 29 29 29
64 60 58 57 55 52 51 50 50 48 46 44 42 39 38 37 36 35 33 31 28 26 25 24 24 23 23 23 23 23 24 26 27 28 29 30 30 30 30 31 30 30 30
60 58 56 55 53 51 51 51 49 46 43 40 40 39 39 38 36 35 33 32 29 26 25 25 24 24 24 25 25 25 24 25 27 28 29 30 31 31 32 31 30 30 31
58 56 55 53 51 51 51 50 47 43 41 39 37 38 39 37 35 34 32 32 31 27 26 25 24 24 23 24 25 26 26 27 27 27 29 30 31 31 32 31 30 31 31
55 54 53 51 51 51 50 47 44 42 39 38 38 37 37 37 36 35 33 32 31 29 27 26 25 24 24 24 25 25 26 27 28 28 28 28 30 31 32 32 31 32 33
53 53 51 50 50 50 47 44 42 40 40 40 39 39 37 36 35 34 33 33 32 31 29 27 26 26 24 24 24 25 25 26 27 28 29 28 29 30 31 32 32 32 33

GFSGL_250_spd_018.txt.gz
Wind_Speed
81 86 91 98 104 110 115 118 123 127 127 125 123 123 122 118 113 109 102 98 94 91 87 81 77 72 69 67 64 62 61 59 58 69 75 80 81 85 90 93 95 99 101
86 92 99 104 108 115 120 125 129 126 124 123 123 120 114 108 103 98 93 89 84 79 77 75 71 67 64 60 59 60 59 56 54 62 67 72 73 75 79 83 87 91 97
94 99 105 111 117 121 126 131 128 125 119 121 119 111 101 94 89 86 82 79 75 74 71 68 64 61 59 57 56 56 56 55 51 52 62 63 65 68 71 75 77 81 88
98 105 112 117 122 126 128 124 125 121 117 114 110 102 92 86 81 78 77 75 72 68 65 63 61 59 56 54 53 53 53 51 50 48 55 58 57 62 64 66 70 73 78
105 112 116 122 127 126 124 121 120 117 111 105 97 91 86 82 78 76 74 71 68 65 63 61 58 56 51 49 49 49 49 47 46 46 51 53 55 57 56 60 64 67 72
112 117 125 127 127 126 122 118 115 111 102 96 89 83 80 77 74 72 70 68 65 61 60 59 55 52 48 45 44 45 45 43 44 43 45 50 52 50 50 54 59 63 67
118 124 129 130 126 121 119 112 107 101 94 86 82 78 76 73 71 69 65 63 61 59 56 54 53 49 46 44 41 42 43 43 42 39 43 48 46 45 44 50 53 56 61
123 128 130 126 123 119 113 105 97 90 85 80 77 74 71 68 66 63 61 58 55 52 50 50 49 47 44 41 39 36 36 38 39 39 42 38 39 38 42 46 48 52 56
127 129 125 124 119 115 107 98 87 82 79 75 71 68 66 63 61 58 56 54 51 49 46 45 44 41 40 37 34 33 32 33 33 33 33 34 35 36 39 42 44 47 51
129 127 125 119 116 109 99 91 84 79 76 72 69 67 64 60 57 55 54 52 50 46 43 40 37 36 33 31 30 28 27 27 27 28 28 30 31 32 35 37 39 42 45
126 126 123 119 111 101 93 86 80 77 73 69 65 63 59 56 54 53 52 49 46 43 40 37 33 31 30 28 26 24 23 22 23 24 25 26 27 29 31 31 34 36 39
127 125 122 115 106 97 89 81 77 72 68 66 61 59 56 55 53 50 47 46 44 41 38 35 31 28 26 24 23 21 20 19 20 22 23 24 24 25 27 29 31 33 36
126 124 117 109 99 91 83 78 73 68 66 62 59 58 57 54 51 46 44 43 41 37 35 31 27 25 23 21 20 18 18 18 18 19 21 22 23 23 24 27 28 31 33
124 119 110 102 92 84 78 74 69 66 63 60 58 56 52 50 49 46 42 39 38 35 32 29 25 23 21 20 18 16 15 16 17 17 19 20 21 23 23 24 27 29 32
119 109 101 93 85 79 75 69 66 63 60 58 55 52 50 48 46 44 43 40 36 33 30 27 24 22 20 19 19 16 15 14 15 17 17 18 19 21 23 24 25 27 30
109 100 92 86 79 75 70 65 62 60 58 55 52 49 48 46 44 42 38 36 34 30 27 25 23 21 19 18 18 17 15 14 15 16 17 17 19 20 21 23 25 26 27
98 92 84 79 75 71 66 62 58 57 55 51 50 48 47 44 41 38 36 34 31 29 26 24 22 21 19 18 18 18 17 16 16 17 17 18 19 19 19 21 23 25 27
90 84 79 74 71 67 63 59 58 55 52 50 49 48 46 43 39 37 35 33 31 28 26 24 22 21 20 19 19 20 20 19 19 19 19 19 20 20 21 22 23 24 25
83 79 74 71 67 63 59 56 55 53 52 51 50 47 43 40 38 37 35 33 30 29 27 25 22 21 20 21 21 21 22 22 22 22 22 22 22 22 23 23 23 24 25
78 75 71 67 63 59 56 54 52 51 50 49 47 44 40 38 37 36 34 32 30 28 27 25 23 21 21 21 23 23 23 24 24 25 25 26 26 26 26 26 26 26 26
75 71 68 64 60 56 54 53 51 50 49 46 43 41 39 37 36 35 33 31 29 28 27 25 24 22 21 22 23 25 25 26 26 27 27 28 28 29 29 29 29 28 28
70 67 63 60 57 54 53 51 50 50 46 43 40 39 37 37 36 35 33 31 29 27 26 24 23 23 22 22 23 25 26 27 28 28 29 29 29 30 31 31 30 30 30
66 62 59 56 54 52 51 51 50 47 44 41 39 38 36 35 35 35 33 32 30 29 25 23 23 23 23 23 23 24 25 27 28 29 30 31 31 31 31 31 31 32 32
62 58 55 53 51 50 49 50 48 44 42 40 39 37 36 35 33 32 33 32 32 30 27 23 22 23 23 22 23 24 24 25 27 29 30 31 32 33 32 32 33 33 34
58 55 53 51 50 48 49 48 45 42 41 40 39 38 37 36 35 32 31 32 32 30 29 25 23 22 23 23 23 24 25 25 26 27 29 31 32 32 32 32 33 34 35
53 52 50 50 48 48 48 45 42 40 40 40 39 39 38 37 36 34 31 31 31 30 30 27 24 21 21 22 22 23 23 24 25 26 27 28 31 31 32 32 32 33 34

GFSGL_250_spd_021.txt.gz
Wind_Speed
71 75 79 83 88 94 102 108 113 119 125 126 129 126 121 118 117 116 112 105 99 94 89 82 78 75 74 72 70 67 65 61 60 65 72 79 80 79 80 84 90 95 101
74 79 84 89 95 103 110 115 121 127 127 127 122 119 115 115 111 106 100 95 89 83 78 75 72 70 68 66 64 63 62 61 57 59 65 73 73 73 73 74 79 84 91
79 86 92 100 106 112 118 122 127 124 122 120 114 111 109 106 102 96 91 84 79 77 73 70 68 66 65 63 60 58 57 57 54 54 60 66 68 70 67 70 72 75 79
89 95 102 107 112 118 121 127 125 120 115 112 109 104 101 96 92 87 83 79 75 72 69 67 65 62 60 59 56 53 52 52 52 51 56 59 61 64 63 64 67 69 74
97 102 107 113 118 123 128 127 123 116 111 106 104 98 93 88 83 79 77 74 72 70 68 65 62 60 56 53 52 52 51 51 50 48 50 54 58 59 59 57 60 64 68
103 109 114 119 124 129 126 125 119 116 110 106 98 91 86 80 76 75 73 70 69 67 65 62 59 55 52 49 48 46 46 49 50 46 45 48 52 54 53 52 57 61 65
109 114 119 123 130 129 127 122 121 111 106 99 91 85 79 75 72 72 71 67 63 61 59 58 59 56 51 49 46 41 41 43 46 43 42 43 46 48 47 50 54 58 62
114 119 123 130 131 127 124 121 115 111 101 91 84 79 75 70 68 67 65 61 58 56 55 54 53 50 45 43 39 37 36 36 38 39 36 37 41 42 41 44 48 54 57
123 127 131 132 126 126 122 118 113 103 93 85 79 75 70 66 65 62 61 60 57 52 49 47 46 44 41 38 36 34 32 30 31 31 31 33 38 39 40 41 43 47 50
129 131 130 124 125 123 120 114 103 95 87 80 75 70 66 63 61 60 58 55 53 51 47 44 43 40 38 34 32 30 28 26 26 26 26 29 31 35 37 37 41 41 42
131 128 125 128 126 122 115 106 97 89 81 75 70 66 63 61 59 55 53 51 50 48 45 42 38 35 32 29 27 25 24 22 21 21 22 25 27 30 31 33 34 35 36
130 127 128 128 124 118 107 99 90 82 76 71 66 62 59 57 54 51 49 49 48 47 43 39 36 33 29 26 24 21 19 18 17 17 18 20 23 25 27 28 30 32 35
128 129 128 126 120 107 99 91 82 76 70 66 62 58 56 54 51 49 46 46 45 44 40 36 33 30 26 24 21 18 17 16 15 15 16 18 20 23 24 26 27 30 33
130 128 126 120 110 101 92 83 76 71 66 62 59 56 54 51 51 48 45 43 41 39 37 34 30 27 25 22 20 16 15 15 14 14 14 15 17 19 21 23 25 28 30
129 126 119 111 103 94 84 77 72 66 62 59 56 54 51 51 50 48 44 41 39 38 35 32 29 26 23 21 19 16 14 15 14 13 13 14 15 17 18 21 22 24 26
122 118 111 101 93 85 78 72 67 63 60 56 54 52 51 51 48 44 41 38 37 36 33 30 27 25 23 21 19 17 15 14 15 13 13 13 14 16 17 18 19 22 24
115 109 101 91 84 78 73 67 63 59 57 55 53 52 51 49 45 41 38 36 35 33 33 29 26 24 22 20 19 18 16 15 15 15 14 13 15 16 17 19 21 22 24
108 100 91 83 78 72 68 64 60 56 52 51 51 51 50 45 41 38 36 34 34 34 31 29 26 24 23 21 20 18 18 17 16 17 16 16 17 19 20 21 23 24 25
98 89 83 77 73 68 65 61 57 54 51 48 48 49 46 42 40 37 36 35 33 32 30 29 27 24 23 22 20 20 19 19 19 19 19 19 20 21 21 22 23 24 24
87 81 77 72 69 66 62 58 55 51 49 48 48 46 42 40 39 38 37 36 33 30 28 27 26 25 23 23 22 21 22 21 21 21 22 22 23 23 24 24 24 24 24
79 76 72 69 67 63 59 55 51 48 47 48 46 42 40 38 38 38 37 35 33 30 29 27 26 26 25 23 23 23 23 23 23 23 24 25 24 24 26 26 27 27 27
74 71 70 66 64 60 55 51 48 46 45 46 42 40 39 38 37 36 34 33 34 32 29 27 25 25 25 25 24 23 24 24 24 25 25 26 26 27 27 28 28 29 30
70 69 67 64 61 56 51 49 46 45 45 43 39 39 38 38 37 35 33 31 32 33 31 28 25 23 23 25 24 23 24 24 25 25 26 27 28 28 29 30 30 29 30
67 67 65 61 57 52 49 47 45 44 43 41 38 38 38 37 36 34 33 31 30 31 32 30 27 24 22 23 24 24 24 24 25 26 26 27 28 30 30 30 31 31 32
65 63 61 57 53 49 47 46 45 43 43 40 38 38 37 36 36 36 34 32 31 30 30 30 28 24 21 22 23 23 24 25 25 26 27 27 28 29 30 32 32 31 31
62 59 57 55 52 49 47 46 45 43 41 39 38 38 37 37 37 37 36 34 31 29 29 28 28 25 22 21 21 22 23 24 25 25 26 27 28 29 29 30 32 33 32

GFSGL_250_spd_024.txt.gz
Wind_Speed
65 67 70 73 78 84 90 97 102 107 110 111 113 115 115 115 114 110 109 106 102 97 93 89 85 80 78 75 73 71 68 64 59 67 68 71 71 71 70 71 75 79 85
65 68 73 79 86 92 99 106 110 114 116 117 115 114 116 112 109 105 100 96 92 89 85 81 79 76 73 70 68 66 63 60 55 56 64 67 66 68 67 67 70 73 76
70 75 82 88 94 102 108 114 117 118 119 116 117 116 113 107 100 94 90 88 85 82 78 75 73 70 68 66 64 61 59 57 54 52 61 63 64 63 63 64 63 66 71
78 83 91 98 104 109 116 121 120 123 120 120 119 115 108 99 94 89 86 83 79 76 72 70 68 65 61 59 57 56 55 53 51 49 54 58 61 60 58 61 60 58 65
86 92 99 105 111 118 123 124 127 125 123 123 117 111 101 94 89 85 82 78 74 70 69 67 64 61 58 56 53 53 52 50 48 47 48 51 54 54 53 54 56 57 60
93 100 107 111 117 124 125 127 126 126 123 119 110 100 94 90 85 81 78 74 70 66 65 66 63 60 56 52 49 46 45 45 45 44 44 46 47 46 48 49 51 55 59
100 107 111 117 123 127 128 127 127 124 120 111 104 96 91 86 80 76 74 71 66 62 62 60 57 54 51 49 46 43 41 39 39 39 41 42 43 41 43 48 49 52 55
107 112 117 122 127 129 125 127 124 121 113 107 100 93 87 81 76 72 69 67 63 58 56 54 51 49 46 45 43 41 39 37 36 35 34 35 39 39 41 44 46 47 49
112 117 123 126 126 125 126 127 124 115 108 101 95 88 82 76 71 68 65 63 59 54 53 51 48 46 44 42 40 38 36 34 33 33 32 32 33 35 37 38 39 42 42
119 124 126 125 122 124 126 123 117 110 102 97 89 83 77 71 67 64 62 60 57 54 52 49 45 43 41 39 37 35 32 30 30 29 28 28 28 29 31 32 36 37 36
124 125 124 121 121 124 123 118 112 103 98 91 84 78 72 67 63 60 58 56 56 55 53 49 42 39 37 35 33 31 28 27 25 24 23 23 24 25 26 28 30 32 34
124 120 119 121 121 121 118 113 104 99 93 85 77 72 66 63 60 58 55 54 54 53 50 45 39 36 34 32 30 27 24 23 21 19 19 19 21 21 23 25 27 29 33
121 120 120 119 119 116 113 105 99 94 86 77 71 67 63 59 57 56 54 53 51 48 45 42 38 34 32 30 27 24 21 20 18 16 16 16 18 19 21 23 25 28 30
119 120 117 117 115 112 107 100 94 87 78 72 68 64 59 56 55 53 53 51 47 43 40 39 37 33 31 29 25 22 19 18 17 15 14 15 16 17 19 21 22 24 26
119 118 115 113 111 107 102 95 88 79 73 68 65 61 57 55 53 52 51 47 43 40 38 37 36 32 30 28 25 20 18 16 16 14 13 13 15 17 18 19 21 22 23
116 115 113 110 106 101 96 90 80 74 71 66 62 58 55 53 51 50 47 43 41 38 37 36 35 32 29 27 25 21 18 16 14 14 13 13 13 15 17 19 21 21 21
114 111 109 105 100 95 89 82 75 70 67 63 59 56 53 51 50 47 43 40 38 36 36 36 33 31 28 26 25 22 18 16 15 14 14 14 13 15 16 18 19 20 21
111 107 103 99 94 89 83 75 72 67 63 60 58 54 51 50 47 43 40 38 38 37 36 35 33 31 29 25 24 22 19 17 16 15 15 15 15 15 16 17 18 19 19
105 102 96 93 87 82 76 71 69 63 60 56 53 51 49 48 44 41 39 38 37 37 35 33 32 31 29 27 24 23 20 18 18 18 17 18 17 18 18 19 20 21 22
100 95 91 86 80 76 71 69 65 61 57 54 51 48 47 45 42 39 37 37 36 36 36 34 31 30 30 28 26 23 22 20 19 19 20 20 20 20 20 21 22 23 23
94 90 85 80 75 71 69 66 62 58 55 52 49 48 46 43 41 38 36 35 35 33 33 34 33 31 30 28 27 25 23 22 21 20 21 22 23 23 23 24 25 26 26
88 83 80 75 71 67 66 63 59 56 53 51 49 47 44 42 40 39 36 34 34 33 31 31 33 31 30 29 27 27 25 23 23 22 22 23 24 26 26 26 27 28 28
82 77 74 70 66 65 62 59 57 54 53 50 47 45 43 40 39 38 36 35 34 33 32 31 31 31 29 28 27 28 27 25 24 24 23 23 24 26 28 28 28 29 30
76 72 70 67 64 62 59 56 55 53 52 50 47 45 42 39 38 37 36 35 34 33 33 31 30 30 29 28 26 26 27 27 25 25 25 25 25 25 27 29 30 31 31
72 68 66 64 62 60 57 54 53 52 51 49 47 44 41 39 37 37 36 35 34 34 32 30 29 29 29 29 27 25 26 27 26 25 26 26 26 26 27 29 29 31 33
68 65 63 62 59 56 54 53 52 51 51 49 47 43 40 39 37 36 35 35 34 34 32 30 29 28 28 28 28 26 24 26 27 26 26 26 27 27 27 28 29 30 31

GFSGL_250_spd_027.txt.gz
Wind_Speed
60 60 63 67 71 76 80 85 92 97 103 109 110 112 111 113 116 114 106 100 96 93 89 87 85 80 78 75 72 69 65 63 57 67 68 70 66 61 62 63 66 71 74
60 62 69 73 79 83 88 94 99 105 109 110 112 114 113 116 115 108 101 95 91 86 83 80 77 76 73 70 68 66 63 60 55 57 65 65 66 63 60 60 63 65 70
64 70 76 81 86 90 95 101 107 110 111 116 115 116 118 117 111 103 95 90 85 81 79 76 73 71 69 67 65 62 59 56 53 50 59 58 60 59 58 57 59 62 64
70 75 82 87 92 97 103 108 111 114 117 116 117 119 119 114 105 95 90 84 80 78 75 72 70 66 65 64 62 59 56 54 52 49 53 53 54 54 53 54 55 56 58
78 84 89 94 98 104 109 112 116 116 116 117 120 119 117 108 97 91 85 81 78 76 72 69 67 63 62 58 55 54 52 50 48 45 46 48 49 51 49 50 51 50 54
84 91 95 100 106 109 114 117 117 117 120 120 118 115 107 98 91 86 81 78 75 72 68 66 64 60 57 55 51 48 47 47 45 44 41 42 42 45 45 44 45 48 52
91 97 102 107 111 114 118 117 117 117 119 117 113 107 98 92 86 81 78 75 72 68 63 62 61 56 55 54 51 48 45 43 41 40 39 39 39 39 37 37 39 43 48
98 102 108 111 115 118 116 117 117 117 116 112 107 100 93 87 83 78 75 72 69 64 60 59 57 55 53 51 48 44 41 38 37 35 36 35 34 34 34 33 35 39 43
104 108 112 115 116 116 117 115 115 114 111 107 101 95 88 83 79 75 73 69 65 61 58 55 55 53 48 46 44 41 38 36 35 33 32 32 31 30 29 30 31 34 36
109 112 115 115 113 111 111 112 113 110 106 103 96 90 85 79 76 72 70 65 62 60 57 54 51 47 43 41 39 37 34 33 31 30 29 29 28 27 26 26 27 29 32
114 116 115 114 111 111 113 112 109 106 103 97 92 86 81 76 74 69 65 62 60 57 56 54 48 42 38 37 36 33 32 31 29 28 26 27 26 24 23 23 25 29 33
117 117 114 113 111 111 113 110 106 104 100 93 88 83 77 74 71 65 62 59 57 55 54 50 46 41 36 36 33 31 30 29 27 26 24 24 23 20 20 21 23 27 29
117 114 110 111 112 111 108 105 104 101 95 89 84 78 74 71 66 62 59 57 54 53 49 45 43 39 35 35 31 29 27 26 25 23 22 21 21 18 17 18 20 22 24
112 110 110 111 111 108 106 106 102 96 91 85 80 75 71 66 62 59 57 54 53 49 45 41 39 38 34 32 32 28 25 24 23 21 20 19 19 18 17 18 19 21 22
112 109 110 113 111 111 107 103 98 92 86 81 75 71 66 62 58 56 55 52 50 45 42 38 36 35 34 32 29 27 24 23 21 20 19 17 17 17 17 17 19 20 22
114 113 111 112 112 108 103 99 93 87 81 76 71 67 62 59 56 55 53 50 46 43 41 38 35 33 32 29 28 26 23 22 21 19 18 17 17 17 17 17 18 20 22
116 113 112 110 108 103 99 93 87 80 76 71 67 63 59 56 54 53 51 48 43 41 40 38 35 33 31 29 26 25 23 21 20 18 18 17 17 17 17 17 17 18 21
115 111 107 105 102 99 93 87 81 76 71 65 64 60 56 54 53 51 49 45 41 40 39 37 36 33 31 29 27 25 23 21 20 19 18 18 18 18 18 17 17 18 20
108 105 103 100 97 93 87 80 75 71 67 63 59 57 54 53 52 50 47 43 40 39 38 37 36 34 30 28 26 24 22 21 20 20 19 19 20 19 19 19 19 20 21
107 103 100 96 92 87 80 75 71 67 63 59 57 54 52 51 51 49 45 41 38 37 36 35 34 34 32 28 25 24 22 21 20 19 20 20 21 22 21 21 21 21 21
98 98 95 90 85 80 74 71 67 63 60 56 54 52 50 49 49 47 44 40 37 36 35 34 33 32 32 31 27 24 23 22 21 20 21 22 22 23 24 24 24 24 24
94 91 87 82 78 74 70 67 63 60 56 54 51 49 48 48 47 45 43 40 37 36 35 33 32 31 31 30 29 26 23 23 22 22 21 22 24 24 25 27 27 27 28
87 84 80 75 72 69 67 64 59 56 54 51 49 47 47 46 45 43 41 39 37 36 35 33 32 31 30 29 28 27 25 23 23 23 22 23 24 25 26 27 29 31 31
80 77 73 70 68 66 63 60 56 53 52 50 47 46 45 44 43 41 40 38 37 36 35 34 33 31 30 29 28 27 26 25 23 23 24 23 24 25 27 28 29 31 32
73 70 68 66 64 61 59 57 54 52 52 50 48 45 43 42 41 40 38 37 36 35 34 34 34 32 30 30 29 28 27 25 24 24 24 24 24 25 27 28 29 30 32
68 65 64 62 59 56 54 53 53 53 51 49 47 45 43 41 39 38 37 36 35 34 33 34 35 33 31 30 30 29 27 26 24 24 25 25 24 24 25 27 29 30 31

GFSGL_250_spd_033.txt.gz
Wind_Speed
65 70 72 74 76 76 78 78 77 79 82 87 93 99 103 107 106 104 103 106 108 107 108 106 103 99 96 91 86 81 76 71 62 69 67 64 62 62 59 59 59 63 69
72 75 78 80 79 79 80 80 80 85 90 94 100 104 107 108 105 106 110 108 107 105 102 100 97 93 88 83 78 74 71 67 62 57 66 59 57 56 56 57 57 57 64
79 81 82 81 82 84 83 83 87 92 96 101 104 109 109 107 108 109 108 106 103 100 97 95 90 85 81 75 73 70 65 62 60 55 60 58 54 52 52 53 53 54 55
83 86 84 82 84 84 86 90 94 99 102 106 109 109 106 107 109 109 106 102 100 96 93 87 82 77 73 71 67 64 62 59 58 54 54 54 53 51 50 51 50 51 52
87 87 85 85 87 88 91 97 100 104 108 111 112 108 108 107 109 106 104 102 97 92 86 80 75 71 70 66 63 60 58 57 55 54 53 51 49 45 46 46 47 48 49
87 86 86 89 90 92 97 101 106 108 113 112 109 108 109 107 109 101 100 96 91 85 79 75 71 67 66 62 60 57 54 54 53 50 48 44 43 40 41 41 42 43 44
87 86 89 91 94 98 103 106 110 112 112 109 108 109 111 106 102 99 93 90 86 77 73 71 68 64 62 58 55 53 52 49 47 45 43 39 39 37 36 35 37 40 40
87 89 90 95 100 103 106 110 113 111 109 108 109 111 110 102 104 97 91 88 79 72 70 68 64 62 59 56 52 50 47 45 43 41 40 38 36 34 33 32 34 36 38
91 93 97 101 104 106 110 111 110 109 108 111 114 110 107 102 101 95 90 82 74 69 67 65 62 59 55 52 50 47 44 41 40 39 37 35 33 32 31 31 31 32 35
96 99 102 105 109 112 109 108 106 110 112 112 112 108 106 104 100 93 84 77 71 67 64 61 60 55 52 49 45 42 42 39 38 36 35 33 31 29 26 27 27 28 30
101 103 105 108 110 109 108 108 112 113 111 111 110 110 108 103 95 86 78 72 68 64 62 59 56 54 51 47 42 40 40 38 36 34 33 30 28 25 23 23 22 23 25
106 108 111 113 113 111 110 112 114 113 110 109 108 109 102 95 87 78 73 69 65 62 59 56 54 51 48 44 39 38 38 36 33 32 30 27 25 23 19 19 19 19 21
110 112 112 110 111 115 115 112 113 111 109 108 106 102 96 87 80 74 69 65 63 60 57 53 51 49 46 43 38 35 33 33 31 29 27 25 24 22 18 16 17 16 17
114 112 111 110 113 112 110 111 113 110 107 105 99 95 86 80 74 68 66 63 59 58 54 50 49 47 44 41 38 34 30 30 29 27 26 24 22 21 17 15 15 14 15
112 113 111 111 112 118 117 113 110 108 103 97 91 86 81 76 69 64 62 60 58 55 50 48 47 44 43 39 38 34 31 28 28 26 25 23 22 20 17 14 14 13 14
115 113 113 117 118 121 116 113 107 100 93 87 83 79 74 70 65 63 60 57 55 52 47 45 44 42 41 38 36 33 31 29 27 26 24 22 21 20 17 14 13 13 14
114 117 116 114 110 108 105 100 94 91 88 85 79 73 69 66 63 60 58 55 52 49 46 43 42 40 38 37 35 33 31 28 26 25 23 21 20 19 18 15 13 13 14
116 116 115 110 104 99 95 94 90 86 81 77 73 70 66 63 61 58 55 53 50 47 45 42 40 39 37 35 34 32 30 29 26 24 22 20 19 19 18 16 14 14 14
109 111 107 104 102 97 92 88 85 79 75 72 68 66 63 61 59 55 53 50 49 45 42 41 39 37 35 34 32 30 28 28 26 24 22 20 19 19 18 17 16 15 15
104 103 100 96 93 89 84 79 76 73 71 68 64 62 61 60 56 53 50 48 47 44 41 40 38 36 34 33 31 29 27 26 25 24 22 20 19 19 19 19 18 18 17
102 97 92 86 83 80 77 75 71 68 66 65 63 61 58 56 54 52 49 47 44 41 39 39 37 36 34 33 31 29 28 25 24 24 23 21 19 18 20 20 20 19 20
90 87 83 80 77 74 72 71 67 66 65 63 61 58 55 52 51 49 48 46 42 39 38 37 36 35 34 33 31 30 28 26 24 23 23 22 20 19 20 21 21 21 21
82 80 79 76 73 70 68 68 65 64 62 59 57 54 52 50 48 47 45 45 43 39 38 37 36 34 33 32 32 31 29 28 26 24 23 23 22 20 20 21 22 23 24
78 74 72 71 69 67 66 64 61 59 58 55 53 52 50 47 47 46 44 43 42 40 37 36 35 33 32 32 32 31 29 28 27 25 24 22 23 23 22 22 23 24 25
73 72 70 68 66 63 61 59 57 56 55 54 52 51 49 47 46 44 44 42 41 38 37 36 35 33 32 32 31 31 30 29 27 25 24 23 23 24 24 23 24 25 26
70 67 66 64 61 59 57 56 56 55 54 53 51 49 48 46 45 43 41 40 40 39 37 36 35 33 33 32 30 31 30 29 27 26 24 23 23 24 25 25 24 25 26

GFSGL_250_spd_036.txt.gz
Wind_Speed
61 67 71 76 80 82 85 88 86 85 85 86 89 93 99 104 108 110 109 107 107 106 108 106 102 100 100 98 96 94 88 83 75 72 76 72 68 66 64 64 63 62 63
68 71 77 82 83 86 89 88 86 86 88 91 94 99 104 107 109 109 109 106 107 107 107 103 101 98 97 95 92 86 81 78 72 66 71 67 63 60 58 59 60 59 59
74 78 81 83 86 90 92 89 86 89 93 96 101 105 107 109 110 110 107 108 107 107 103 99 97 94 92 90 85 79 74 71 68 62 61 61 59 56 54 54 56 55 55
79 81 82 86 91 94 92 89 90 94 98 102 105 107 110 110 111 109 109 109 107 105 101 97 94 90 87 84 77 73 68 66 63 59 57 57 55 53 51 53 52 51 54
81 82 86 90 96 94 91 92 96 100 104 106 108 110 110 109 109 109 111 110 106 103 101 97 91 84 82 76 71 67 63 60 59 57 55 54 51 49 47 46 46 46 46
80 86 89 94 96 94 93 95 101 106 108 108 110 111 109 109 110 111 110 108 106 100 95 92 86 79 75 69 68 65 59 56 57 54 52 48 45 43 43 41 40 40 43
85 89 94 98 97 95 97 102 107 109 110 111 109 107 109 111 116 110 107 106 102 97 93 86 80 72 70 66 61 59 57 56 55 53 47 42 40 38 38 36 37 38 39
89 94 99 98 97 99 104 109 111 113 112 112 111 112 113 115 113 112 105 99 98 93 86 80 74 67 66 62 59 56 54 54 52 48 44 42 39 38 35 34 35 34 36
94 99 99 99 100 104 108 113 114 114 111 110 110 111 113 111 107 103 101 99 93 86 79 73 68 63 61 59 56 55 54 52 47 45 42 40 36 35 34 31 33 33 32
101 100 100 101 108 113 114 116 115 112 111 111 112 113 111 106 107 103 96 92 87 80 73 67 66 61 58 55 53 52 51 47 44 41 38 37 34 33 31 30 30 30 30
101 102 104 109 112 113 113 114 113 114 114 112 111 111 110 109 103 99 91 86 80 74 67 63 61 60 56 52 51 51 49 44 40 38 36 35 32 30 27 26 27 26 27
103 107 112 115 116 119 119 116 113 111 114 111 106 109 107 103 96 93 85 77 73 69 64 62 59 55 53 50 48 48 46 41 38 36 35 33 31 27 24 23 23 24 24
109 114 116 117 117 117 116 114 115 115 111 110 107 103 98 93 89 84 80 72 68 65 62 59 56 52 49 48 46 45 43 38 35 34 32 30 29 26 23 21 20 21 21
115 118 118 117 116 115 114 115 113 111 111 111 106 100 93 88 81 75 72 69 64 62 59 56 53 49 48 46 44 43 40 35 32 31 31 28 27 25 22 20 18 19 19
119 119 117 115 113 115 115 113 112 110 105 99 95 88 84 79 74 69 65 65 63 59 56 53 50 47 46 44 43 42 38 34 31 30 29 27 25 24 21 18 17 17 17
117 116 111 112 114 113 111 107 106 102 97 93 88 82 78 74 71 66 63 59 57 57 55 51 48 46 46 43 42 40 37 32 30 29 28 26 24 23 21 17 16 15 16
117 114 116 114 110 107 103 102 95 95 91 87 83 78 73 68 65 62 60 58 55 54 51 49 46 46 45 42 41 39 36 32 30 28 27 26 24 22 21 17 15 15 15
114 114 111 110 106 105 99 95 90 85 82 82 77 74 71 66 62 59 58 56 54 51 49 47 45 46 44 41 39 37 34 32 30 28 26 24 23 22 20 18 15 15 15
111 110 109 108 104 97 94 91 86 82 77 74 72 68 66 64 61 56 55 53 51 49 47 45 45 44 42 39 37 35 33 31 29 27 26 24 21 21 20 19 16 15 16
107 104 101 94 89 85 84 83 81 78 75 70 68 66 64 61 58 54 52 50 49 46 45 44 42 42 41 38 36 34 32 30 28 26 26 24 21 20 20 19 18 16 16
101 97 93 90 85 82 79 75 73 71 70 69 67 63 61 58 55 53 50 48 46 44 43 42 41 41 39 37 35 33 31 29 27 25 25 24 22 20 20 20 19 18 17
95 91 89 87 82 78 76 73 70 68 66 64 62 60 58 56 53 52 50 48 47 44 42 41 40 39 37 35 34 32 31 29 27 25 24 24 23 22 21 21 21 19 19
89 87 82 80 78 75 73 70 67 64 62 60 58 58 57 56 55 52 50 48 46 44 42 41 39 37 36 34 33 32 30 29 28 26 24 23 23 24 23 22 21 21 21
86 82 79 76 74 72 68 65 63 62 59 58 58 57 56 55 52 50 48 45 43 42 41 39 37 36 36 35 32 30 30 29 28 26 26 24 22 23 24 24 22 22 23
80 78 76 74 70 68 67 65 61 60 59 57 56 54 52 50 49 47 45 43 41 39 38 38 37 36 34 34 34 31 29 29 28 26 25 25 23 22 23 25 24 23 23
76 74 72 69 67 66 65 65 63 60 57 55 54 53 52 49 46 45 44 42 40 39 37 37 36 35 34 32 32 32 29 27 27 27 25 24 24 22 22 23 24 25 24

GFSGL_250_spd_039.txt.gz
Wind_Speed
57 62 65 69 72 76 79 83 83 86 92 93 99 100 96 95 100 104 110 113 112 109 108 108 108 110 109 108 106 100 98 93 86 82 78 73 69 66 66 65 63 60 59
56 61 66 70 74 77 81 82 84 89 93 99 101 98 96 99 105 110 112 111 107 108 108 109 108 107 105 105 103 99 92 87 80 74 73 70 66 64 62 61 58 57 56
61 64 67 71 73 75 79 85 89 92 97 101 100 99 99 104 110 113 112 108 107 107 108 108 107 104 100 98 96 89 84 80 75 71 68 65 63 60 58 55 54 54 54
69 70 70 72 77 81 86 91 93 98 102 101 100 101 106 111 113 113 111 107 108 108 109 109 106 101 94 90 87 82 77 74 70 68 64 62 59 55 51 51 51 50 51
70 73 76 79 83 88 91 94 100 103 101 101 104 110 113 112 114 110 108 107 108 106 107 107 103 97 89 85 81 77 73 68 66 64 62 58 55 53 50 47 47 48 43
75 80 84 88 91 94 96 101 105 101 103 107 112 116 113 109 108 108 109 109 108 104 102 102 95 91 86 81 77 72 68 65 64 60 57 54 52 50 47 44 45 43 43
80 84 90 93 95 98 103 104 102 104 109 114 117 117 116 113 110 110 109 107 103 102 97 94 89 86 81 76 71 65 63 62 59 57 56 52 51 46 43 41 41 41 41
85 91 94 97 100 103 103 103 107 112 117 118 115 113 110 109 111 111 111 109 104 101 94 87 84 81 76 71 67 63 60 58 55 51 51 50 47 45 43 40 38 37 39
91 94 97 103 104 103 105 109 115 118 118 117 114 111 112 111 111 112 108 103 98 95 89 84 79 74 70 66 63 62 59 55 51 49 48 48 44 42 40 37 37 38 35
95 100 105 104 103 105 111 116 120 120 118 117 112 111 111 108 105 103 101 95 90 88 81 76 73 68 65 62 60 59 55 52 49 46 45 44 41 39 37 36 35 35 33
100 105 103 103 107 113 117 120 120 117 116 113 113 112 110 107 102 101 99 93 86 81 76 71 68 65 61 59 57 55 51 48 46 45 45 41 38 34 33 34 33 33 32
103 101 103 110 115 118 121 121 119 117 113 113 112 107 104 101 97 92 88 85 80 75 72 68 64 62 59 56 54 51 48 46 44 43 43 40 36 33 32 32 31 31 29
102 105 111 116 120 121 119 114 111 113 113 109 105 100 98 95 89 84 81 79 75 69 66 64 60 58 56 53 51 48 45 44 42 41 41 38 35 32 30 30 28 28 27
108 113 118 120 119 114 112 112 112 111 108 105 100 94 89 85 81 78 75 73 72 68 62 60 58 56 53 49 47 45 43 42 40 38 37 35 33 31 29 27 26 25 25
115 120 120 118 114 111 112 112 110 109 102 97 93 87 83 81 78 75 71 69 65 62 59 56 54 53 49 46 44 43 41 40 38 36 35 33 31 30 27 26 24 23 22
121 119 117 114 112 111 112 112 110 105 98 92 86 82 81 75 71 67 65 62 61 60 56 54 50 48 46 43 41 40 39 38 36 34 33 30 29 27 26 25 23 21 20
119 116 114 111 113 112 109 105 97 94 94 91 85 79 74 72 68 65 63 59 56 55 52 50 47 45 43 41 39 38 37 36 35 32 31 29 28 27 24 24 22 20 20
116 114 110 109 108 106 102 97 92 88 86 86 82 75 70 68 65 61 58 56 53 50 49 47 46 43 41 40 39 37 36 35 32 30 30 29 26 25 24 23 21 19 19
115 111 107 103 101 98 93 89 86 81 79 76 77 74 67 65 62 58 54 53 52 49 48 46 44 42 40 38 38 36 35 34 31 29 28 27 26 25 23 23 21 19 18
114 108 104 101 97 93 89 84 80 75 72 71 71 69 66 62 60 56 54 52 52 50 49 46 43 41 40 38 37 36 34 32 30 28 27 25 25 24 23 22 21 19 18
104 100 99 95 93 89 85 80 78 73 69 66 65 64 62 59 57 56 55 52 50 48 47 45 43 40 38 36 35 35 32 30 29 27 26 24 25 25 23 22 21 20 19
102 100 97 92 88 84 81 77 76 73 68 64 62 60 58 57 55 54 53 52 48 45 43 42 40 39 37 35 34 33 31 30 28 27 25 24 24 25 24 22 21 20 21
97 95 91 88 84 81 78 75 71 69 67 64 60 59 57 55 53 51 49 47 47 46 42 39 38 36 35 34 32 31 31 29 27 27 25 24 23 24 24 24 22 21 21
93 90 86 81 79 77 74 71 69 68 66 64 61 59 56 55 52 50 48 46 44 42 41 40 37 36 34 33 32 31 29 29 27 26 25 24 23 23 23 24 24 23 22
91 87 81 78 75 72 70 69 67 66 65 63 61 59 56 53 50 47 44 42 40 39 37 36 36 35 34 33 31 31 29 28 28 25 25 24 23 23 22 22 24 25 25
84 81 77 75 70 67 66 65 64 63 62 60 58 56 53 50 48 45 42 40 38 37 36 35 32 32 32 32 31 30 29 27 27 26 24 24 24 23 22 22 24 25 27

GFSGL_250_spd_042.txt.gz
Wind_Speed
50 55 59 62 64 68 69 68 72 75 79 84 88 92 96 98 103 105 103 105 110 114 112 111 107 105 107 108 108 108 106 104 102 93 90 83 78 72 67 63 60 57 54
53 57 62 66 70 72 73 74 77 81 85 90 93 97 101 104 105 104 107 112 114 112 108 106 105 105 105 106 106 102 99 96 93 87 82 76 71 65 63 61 58 55 54
59 62 65 69 71 73 75 77 81 85 90 92 96 102 104 103 104 109 113 112 109 109 108 107 108 108 107 106 103 98 96 90 87 81 75 71 67 62 62 58 56 54 52
64 67 68 69 72 75 78 81 85 89 93 97 103 102 101 105 110 113 113 109 109 107 106 107 107 106 104 100 99 94 90 85 79 75 70 67 64 61 58 57 55 52 48
65 66 70 74 76 80 84 87 90 94 100 103 100 101 107 112 113 113 110 109 109 109 110 110 109 106 103 100 96 89 83 76 73 69 67 63 62 58 56 53 50 52 46
65 71 74 79 83 85 87 90 96 101 100 99 103 110 113 113 112 111 111 111 112 112 111 110 106 102 98 91 84 80 76 70 69 67 62 60 58 55 52 48 48 45 43
73 77 81 84 88 90 91 97 102 100 101 106 112 113 114 112 111 110 112 113 113 110 108 105 101 97 90 84 79 76 71 67 64 64 62 58 55 53 50 47 43 38 38
80 84 88 91 91 93 98 103 102 104 110 113 116 114 113 112 112 113 113 112 109 106 102 97 92 86 82 78 74 71 67 63 60 56 57 56 52 50 47 45 43 37 35
87 90 93 92 94 99 105 101 105 112 117 119 117 115 112 111 112 112 109 105 101 96 92 87 83 79 75 74 69 67 63 59 56 54 53 51 48 45 44 43 39 38 34
91 95 95 95 99 105 103 106 112 118 120 119 115 112 111 112 112 109 103 99 92 87 85 81 78 73 70 68 66 63 61 57 53 51 50 47 45 42 40 40 38 37 36
94 93 95 101 106 104 107 112 118 119 118 115 112 113 112 110 107 102 96 92 87 84 79 76 72 68 65 62 61 59 58 54 51 48 46 43 40 39 38 36 36 35 33
94 96 101 105 103 107 112 118 119 118 114 113 111 111 110 109 103 95 92 88 83 78 73 68 66 64 62 59 59 56 53 51 48 45 43 41 38 36 35 33 32 34 33
97 100 106 104 107 112 117 120 119 115 113 112 111 108 106 103 95 90 87 82 76 72 69 65 62 61 59 57 54 52 49 47 45 42 41 39 37 35 32 30 31 31 32
101 105 104 107 113 118 120 121 116 115 114 111 107 104 100 95 89 83 79 77 73 69 66 61 58 57 54 52 49 47 45 44 41 40 38 36 35 34 31 30 29 29 30
106 104 107 112 118 120 120 117 115 115 113 108 104 97 91 89 83 78 75 72 68 65 61 56 53 51 50 48 46 44 42 41 39 38 35 34 33 32 30 28 27 27 27
105 109 114 118 120 120 117 113 114 114 110 107 101 93 85 81 74 73 70 66 63 60 59 53 51 48 47 46 45 42 40 38 37 36 34 32 31 29 28 27 25 25 25
108 113 116 119 119 117 116 114 108 103 103 99 94 90 82 74 73 69 65 63 62 58 56 52 50 49 46 45 43 41 38 37 36 35 33 31 29 28 27 25 24 24 23
113 116 117 117 115 111 110 107 103 95 89 89 89 85 80 74 69 65 61 61 59 56 55 53 51 50 47 44 42 40 37 36 34 33 31 30 29 27 25 24 22 22 21
116 118 118 117 115 112 108 104 97 90 85 82 81 79 75 70 67 63 58 56 56 56 54 53 50 49 46 43 41 39 36 35 33 31 29 28 27 26 24 24 22 21 20
117 118 117 113 108 106 103 97 91 85 81 78 77 74 70 67 65 62 58 55 53 53 53 52 49 46 44 42 40 38 35 33 32 30 28 27 27 26 24 22 22 21 20
116 114 112 110 109 102 97 90 86 81 77 74 72 71 67 65 64 61 58 54 51 49 49 49 47 44 42 40 38 36 34 33 31 29 28 27 26 26 24 23 21 21 20
113 111 109 106 101 94 89 84 81 78 72 69 68 67 65 63 61 59 56 53 50 47 46 45 44 42 40 38 36 35 33 32 31 29 28 26 25 25 25 24 22 21 21
109 107 104 99 94 88 83 79 77 73 70 68 66 64 63 60 58 56 52 48 47 44 42 41 40 39 37 37 35 34 32 31 30 28 28 26 25 25 25 24 23 22 21
105 102 96 92 87 83 79 75 72 70 69 66 66 63 60 58 55 52 50 47 45 42 40 40 39 37 35 34 34 34 32 30 30 28 28 27 25 25 24 24 24 23 22
101 96 90 85 81 79 75 73 69 66 65 63 62 61 60 55 52 50 47 43 41 39 37 36 36 36 34 33 32 32 31 31 28 27 27 28 26 25 24 24 24 24 24
94 89 82 79 76 73 71 70 67 64 62 61 59 57 56 53 49 47 43 41 39 37 36 34 33 33 34 33 32 31 30 29 28 27 26 26 25 24 24 25 25 24 25

GFSGL_250_spd_045.txt.gz
Wind_Speed
48 48 50 54 57 59 62 67 70 72 74 76 79 82 86 88 93 100 102 101 103 108 111 112 110 111 111 111 113 114 114 111 106 103 97 95 90 83 80 77 69 66 61
47 51 55 57 59 63 66 67 70 73 78 83 85 87 89 95 101 102 101 106 110 111 109 109 109 110 111 114 115 115 112 106 100 95 89 84 81 76 73 70 64 59 55
52 56 60 62 64 66 66 70 74 79 83 87 87 90 95 101 101 102 106 110 111 109 108 109 109 110 113 114 112 108 104 99 92 86 82 78 75 71 68 64 61 55 51
59 63 63 64 67 68 71 75 81 84 88 88 91 95 101 101 102 106 109 110 109 108 109 109 111 113 114 111 107 101 95 91 86 82 78 74 69 66 64 61 57 54 51
63 64 66 68 69 73 77 82 85 89 89 91 95 101 102 104 108 110 111 112 111 111 111 113 114 113 109 103 98 92 88 84 80 77 72 69 65 61 59 56 56 55 49
64 66 68 69 74 78 83 87 90 90 92 95 102 103 104 109 112 115 116 113 113 113 114 114 112 108 102 95 91 87 82 78 77 73 69 65 61 57 55 54 53 50 48
66 68 70 74 79 84 87 89 91 93 96 103 104 105 110 115 119 119 116 115 115 115 114 111 107 99 95 90 86 82 77 73 70 66 64 60 58 55 53 52 49 46 45
69 72 76 79 85 88 90 93 92 94 101 104 106 110 114 118 118 118 117 115 114 114 111 106 98 93 88 84 79 75 71 67 64 61 60 59 57 54 52 50 46 43 43
75 79 82 86 89 92 95 96 97 103 106 106 109 114 117 119 119 118 116 114 114 111 106 98 92 88 82 76 74 71 68 64 61 59 58 56 54 51 50 47 44 43 41
79 83 87 91 93 93 96 96 101 104 104 108 114 117 119 118 118 116 116 114 110 105 99 92 86 82 77 73 70 67 64 61 58 55 53 52 50 47 45 44 43 41 40
84 88 90 93 95 96 98 101 105 104 107 113 115 118 119 120 118 118 114 110 107 100 94 86 80 76 72 69 65 62 59 56 53 52 49 47 45 44 43 43 42 40 38
88 90 93 96 96 98 101 105 104 108 111 116 116 118 120 119 117 115 111 106 100 94 87 80 75 70 67 64 60 58 54 52 50 48 46 44 42 40 40 40 38 36 36
92 94 96 98 99 101 105 103 107 112 115 115 117 118 117 116 115 112 104 100 93 86 81 76 70 65 63 60 55 53 51 48 47 46 44 42 39 38 37 36 36 34 32
94 96 97 99 101 105 103 107 112 114 116 116 118 117 114 111 110 104 97 94 87 80 77 72 66 62 59 57 53 50 49 47 46 44 42 40 38 37 36 34 32 31 30
96 97 99 101 105 103 107 113 114 115 118 118 117 114 112 105 100 97 91 88 81 76 70 68 62 59 56 53 52 50 48 46 45 42 40 38 37 36 34 33 30 29 28
98 100 103 106 104 108 112 111 115 119 120 121 118 113 104 100 94 89 84 81 78 71 67 64 60 57 55 52 50 49 47 44 43 41 39 37 37 35 33 31 29 28 27
100 104 106 105 109 112 115 114 112 111 117 114 113 107 103 94 90 85 79 73 70 66 65 62 58 57 55 52 49 47 45 43 41 39 37 36 36 34 31 29 28 27 26
105 104 107 109 112 114 113 115 114 111 106 105 105 101 98 91 87 80 74 69 67 65 61 60 57 54 54 51 48 45 43 41 39 37 36 35 33 33 30 27 26 25 23
105 109 111 113 115 114 116 113 111 109 107 101 95 92 90 84 80 76 71 67 64 63 59 57 54 53 52 49 46 43 41 39 37 35 34 33 32 31 29 27 25 25 23
110 112 114 115 114 115 112 111 109 106 102 96 91 86 82 77 75 74 69 64 61 58 55 54 51 49 48 46 44 41 40 37 35 34 32 31 30 29 29 27 25 23 23
113 114 115 114 114 111 110 108 104 99 94 90 85 80 75 73 72 69 67 62 57 54 51 49 47 47 45 43 41 39 37 36 34 32 30 30 29 28 28 26 25 23 22
114 115 114 112 110 109 107 102 97 92 88 83 79 75 72 69 67 65 63 60 56 52 48 47 46 44 42 40 39 37 35 34 33 31 30 29 28 28 26 25 25 23 22
115 114 111 109 108 105 101 96 91 87 82 76 73 71 69 67 63 61 58 57 54 50 47 45 43 41 39 37 36 35 33 32 32 30 29 29 28 27 26 25 25 24 22
113 110 108 107 103 99 94 90 85 80 76 73 69 66 65 65 62 57 54 53 52 47 44 42 40 39 37 36 35 35 33 31 30 29 28 28 28 26 26 26 25 24 23
107 106 104 101 97 92 88 84 78 75 72 70 67 64 61 59 58 56 52 48 47 44 41 40 38 36 35 34 33 33 33 31 28 28 28 27 27 25 25 25 25 24 24
104 103 100 95 90 85 80 77 74 71 69 66 64 62 59 56 53 52 50 46 43 42 40 38 36 35 34 33 31 32 31 30 28 27 27 26 26 25 24 24 24 23 23

GFSGL_250_spd_048.txt.gz
Wind_Speed
38 41 45 45 57 55 60 65 67 68 70 73 74 78 82 85 89 91 92 96 99 106 107 109 112 114 113 111 112 111 111 109 104 101 100 96 91 86 81 79 75 72 68
39 41 47 52 56 58 67 67 70 71 73 75 81 84 86 89 92 93 96 100 105 107 109 113 114 113 114 113 111 110 109 105 102 97 93 88 84 79 75 73 71 66 62
41 46 51 51 56 65 68 70 70 72 74 78 83 85 89 92 95 97 100 106 108 110 115 116 116 116 117 114 112 111 106 101 95 89 87 84 78 74 71 68 65 62 56
47 51 55 60 64 68 70 70 73 76 79 83 87 91 92 96 98 99 105 107 110 114 117 117 118 118 117 114 112 107 100 93 89 85 80 76 71 68 64 62 61 55 52
51 56 60 65 68 71 72 74 77 79 83 87 90 93 95 98 100 105 108 108 113 116 118 119 118 118 117 114 108 100 92 87 84 80 76 72 68 65 61 57 57 53 48
57 62 66 69 71 73 75 76 78 82 86 90 93 96 99 101 104 108 108 112 116 119 119 120 121 119 114 110 102 94 89 83 79 76 72 69 65 62 58 54 52 51 48
62 66 68 71 74 76 77 79 82 86 90 93 97 100 101 104 110 109 113 117 120 120 122 123 121 117 111 102 96 90 84 78 75 72 69 65 62 59 57 52 49 48 46
66 68 72 75 77 77 79 83 87 90 94 97 99 102 104 110 109 112 118 121 120 122 123 122 118 113 104 98 90 84 79 73 71 67 64 62 59 55 53 50 47 43 42
69 72 75 75 78 81 84 88 91 95 99 101 103 105 109 110 112 118 121 121 122 122 121 118 112 105 99 91 85 79 74 68 66 63 60 57 55 53 51 49 45 42 41
72 73 76 78 81 85 89 92 96 99 100 102 104 109 109 110 118 121 122 121 120 117 116 112 104 97 92 86 80 76 69 65 62 59 56 54 52 50 48 47 45 41 39
74 76 79 83 86 90 94 96 98 100 102 104 107 107 111 118 120 122 121 120 117 112 110 105 99 91 85 81 76 71 65 62 59 56 53 51 50 49 47 45 44 40 37
77 81 85 88 91 94 96 97 100 101 104 107 105 110 116 119 121 120 119 116 113 108 103 98 93 86 81 75 70 67 62 58 56 52 52 50 49 47 44 42 42 40 39
82 85 88 91 94 96 97 100 102 106 107 106 112 114 115 114 117 120 116 114 110 101 97 91 88 81 76 71 67 64 60 56 55 51 50 48 47 45 43 39 39 38 37
85 88 91 94 96 97 100 102 105 106 108 113 115 114 113 112 113 114 115 111 102 95 89 87 83 75 71 67 65 62 58 54 53 50 49 47 45 43 42 38 37 36 35
88 91 94 95 97 100 102 106 105 111 115 116 118 116 115 110 111 111 106 102 96 90 84 81 78 74 69 65 62 60 56 54 52 49 47 45 43 41 39 38 35 34 33
92 94 95 97 100 101 106 104 111 114 117 122 121 120 113 115 111 104 99 94 90 85 79 77 74 70 66 63 60 58 54 52 50 47 45 43 41 39 38 36 34 32 31
93 95 98 101 102 107 107 108 111 114 119 120 121 118 117 112 106 100 93 89 86 80 77 73 71 66 62 59 57 54 51 49 48 45 43 41 39 38 35 34 32 30 30
95 98 101 104 109 109 110 114 115 113 111 110 114 116 115 109 101 94 89 84 80 79 74 71 66 63 57 56 54 51 47 46 45 43 40 38 36 35 34 32 30 29 28
100 102 106 111 110 111 116 117 117 114 111 108 107 110 107 101 95 89 84 80 78 74 71 67 63 60 56 52 50 47 45 43 42 40 38 36 34 33 32 31 29 27 27
104 108 111 110 113 117 119 117 114 111 109 109 108 101 95 92 87 84 81 77 73 70 66 64 59 55 52 49 47 46 42 40 39 38 36 34 32 31 30 30 28 26 25
110 111 111 115 118 119 115 113 110 108 108 106 100 94 89 83 80 78 76 74 70 65 61 60 56 52 48 45 43 41 39 37 36 35 33 31 29 29 28 28 27 26 24
110 112 115 118 117 114 112 109 108 107 105 98 93 89 84 81 78 73 70 68 66 63 57 55 51 48 45 42 40 39 37 34 34 33 31 30 28 27 26 26 26 25 23
113 117 117 115 114 111 109 108 106 102 97 91 86 82 79 77 74 71 67 63 61 59 53 50 47 44 42 39 38 37 35 32 32 32 30 28 27 26 25 25 25 24 23
116 114 114 114 112 109 108 106 101 95 90 85 80 77 74 72 70 67 64 60 57 55 51 47 45 42 40 38 37 36 34 31 30 30 28 27 26 25 24 23 22 23 22
113 114 114 112 109 107 105 100 94 89 84 80 77 72 69 68 65 62 60 56 53 51 48 44 42 40 39 37 36 35 33 31 29 28 27 26 25 24 22 21 21 22 22
115 113 110 107 106 102 97 91 87 83 79 76 72 69 66 63 61 59 56 52 50 47 44 42 40 37 36 36 34 33 31 30 28 27 26 25 24 23 22 21 22 21 20

GFSGL_250_spd_051.txt.gz
Wind_Speed
30 28 31 35 39 43 49 57 61 65 68 73 77 81 80 79 83 86 87 91 94 97 99 101 104 106 113 114 115 120 122 119 117 111 105 101 92 87 82 79 76 72 70
31 32 34 38 43 48 56 57 59 65 72 76 79 82 83 84 86 91 93 95 98 100 102 105 108 112 115 116 120 122 120 118 111 103 103 95 90 83 77 73 69 64 62
33 36 40 43 50 52 58 60 67 72 75 78 81 84 87 86 88 91 95 98 101 103 106 109 114 115 117 121 122 121 118 114 108 104 99 92 85 79 74 68 65 60 56
41 42 45 49 54 58 61 66 69 73 78 81 85 87 89 89 93 95 99 102 104 107 109 114 115 118 122 122 122 119 117 113 107 100 93 87 79 76 71 66 63 57 54
43 48 52 55 58 62 65 68 72 77 80 84 87 88 89 93 95 98 101 103 105 109 114 114 118 123 123 123 120 117 114 110 102 95 89 81 77 72 67 62 60 56 51
49 52 55 59 61 64 68 73 77 79 83 86 87 89 93 97 98 100 102 105 109 112 113 118 123 124 122 120 117 113 110 102 95 88 84 77 74 67 63 59 57 54 50
52 55 58 61 64 68 73 77 78 82 85 86 89 93 96 99 101 103 106 108 111 112 117 122 123 123 121 116 113 110 103 95 88 83 77 72 68 64 60 57 54 50 47
54 58 62 65 69 73 76 78 83 83 85 88 92 96 98 102 104 106 109 112 111 117 121 123 122 121 118 112 108 101 95 89 82 78 71 68 64 61 57 54 52 48 43
60 64 66 69 73 76 79 82 82 84 87 91 95 98 101 104 107 109 113 111 116 120 122 122 122 118 113 107 101 94 89 85 78 71 67 65 62 58 55 53 51 48 44
65 67 70 72 76 79 81 82 84 87 91 95 98 101 103 106 108 115 115 116 119 120 120 121 118 113 107 102 93 88 83 79 73 68 65 62 60 56 53 51 51 48 43
67 69 73 78 80 81 83 85 88 91 95 98 100 102 105 107 112 115 117 122 122 118 117 114 112 108 101 95 88 83 78 74 72 66 62 59 58 55 52 49 49 47 43
72 75 77 78 81 83 87 90 92 96 98 100 101 103 106 112 117 118 122 125 122 117 112 110 106 102 96 90 83 77 74 72 70 65 60 57 55 52 51 48 46 45 42
74 76 79 81 84 88 90 93 96 98 98 101 103 104 109 115 114 118 120 121 119 115 111 105 100 95 90 84 79 73 72 70 67 63 57 56 53 51 49 46 44 42 40
76 78 81 84 87 90 92 95 96 98 101 104 107 110 113 112 116 117 115 114 111 112 108 100 93 88 84 79 76 72 69 66 64 59 56 53 51 49 47 45 41 40 37
76 79 82 85 89 91 94 95 98 101 105 109 113 113 112 114 113 113 111 106 105 100 96 93 88 84 79 76 73 69 65 63 60 57 54 50 48 45 44 42 39 37 35
81 84 87 91 93 93 95 99 102 106 112 115 114 116 117 115 111 108 104 102 98 92 89 85 82 79 76 72 69 65 62 60 57 55 50 47 45 43 41 40 37 35 33
89 92 93 95 95 96 99 101 105 112 113 114 117 116 115 115 112 105 99 95 92 87 84 81 78 74 71 68 64 62 58 56 53 50 47 45 43 41 38 37 34 33 31
95 96 95 97 98 99 101 105 108 106 111 115 117 115 115 110 105 100 94 88 86 83 80 79 74 70 68 63 59 57 54 51 49 47 44 42 40 38 36 34 32 31 30
93 94 97 97 100 102 105 104 108 111 112 111 110 110 106 105 104 98 92 86 83 80 78 74 70 66 64 59 55 51 49 47 45 43 41 38 36 35 34 32 30 29 28
94 96 97 99 102 103 107 110 112 113 111 109 104 98 98 97 96 95 91 85 81 75 71 71 67 62 58 53 50 48 46 43 41 39 37 36 33 32 31 30 28 27 27
95 97 100 102 104 109 111 113 114 111 108 104 100 96 92 90 88 84 81 80 76 72 69 67 62 58 54 49 46 44 42 39 37 36 35 33 31 30 29 29 27 26 25
98 101 103 107 110 112 114 113 111 108 106 101 97 94 92 86 81 78 76 72 70 68 65 62 58 54 51 45 43 41 39 37 35 34 33 30 29 28 27 28 26 25 25
103 107 109 112 114 115 113 111 110 106 102 98 95 91 87 81 77 75 72 70 67 63 60 57 54 50 47 43 40 39 37 35 33 33 31 29 28 26 26 27 25 24 24
108 110 113 115 115 113 112 111 107 103 100 96 90 85 80 77 73 70 69 67 63 59 55 52 50 46 43 41 38 37 35 33 31 31 29 28 26 25 25 25 24 24 23
112 114 115 113 112 112 110 106 102 100 96 89 84 78 76 73 70 67 65 62 59 55 51 48 46 43 41 39 36 35 33 32 30 29 28 27 25 24 23 23 22 22 23
114 111 110 111 109 108 105 102 99 93 88 83 78 75 72 70 67 64 61 57 55 51 48 45 42 40 38 37 34 33 32 30 28 27 27 25 24 23 22 21 22 22 23

GFSGL_250_spd_054.txt.gz
Wind_Speed
38 39 42 41 41 42 45 44 46 50 55 61 66 72 75 76 82 88 88 88 89 94 96 99 102 103 105 107 109 112 115 115 118 120 122 120 112 110 104 96 87 83 79
40 41 42 42 41 42 44 48 51 56 60 66 70 72 74 80 85 88 90 91 94 97 100 102 104 105 107 110 112 116 116 119 122 121 122 117 109 104 99 92 85 78 74
42 43 44 44 43 45 49 53 57 61 66 68 73 75 80 85 87 88 91 94 98 100 102 104 107 108 111 113 117 117 119 122 124 121 115 111 107 102 93 86 81 76 68
44 45 46 46 48 51 54 59 63 67 70 73 78 80 83 86 90 92 94 97 100 102 105 107 109 112 115 117 121 120 121 126 124 118 111 106 104 97 88 82 77 70 63
45 46 48 49 52 55 58 63 67 71 74 76 81 82 86 90 93 95 98 100 102 105 108 110 111 114 116 122 123 123 126 125 120 114 109 103 98 90 83 77 70 66 60
49 51 53 56 58 61 64 68 71 74 76 79 83 87 91 93 96 99 101 102 105 107 109 111 114 117 120 124 123 126 126 123 116 112 103 97 90 83 77 71 66 63 59
51 53 55 58 61 63 67 70 72 76 79 83 87 90 93 97 100 100 102 104 106 107 109 114 116 120 124 123 127 123 121 118 113 106 98 93 85 78 71 68 64 62 57
50 51 52 55 60 64 68 71 75 79 83 87 89 92 95 98 99 101 103 104 105 107 112 116 119 122 124 128 124 120 116 112 106 97 92 86 80 72 69 65 62 60 55
51 53 56 60 64 67 71 75 79 82 85 88 91 93 93 96 99 102 103 104 106 110 115 119 121 122 127 125 122 118 111 108 97 91 85 81 75 70 66 63 59 58 54
55 58 61 64 67 71 73 77 79 82 85 86 87 90 92 97 101 104 106 108 110 114 118 119 122 125 123 123 118 111 104 99 91 83 81 76 71 67 66 60 57 56 53
57 60 63 66 69 72 75 77 79 79 81 84 87 92 98 102 104 107 110 113 115 117 117 120 122 121 120 117 110 104 96 92 85 80 76 72 67 64 63 58 54 53 50
60 62 65 68 71 73 74 76 79 82 86 90 94 98 102 105 106 108 112 117 120 120 123 120 119 119 114 108 101 94 89 85 79 75 73 68 63 62 59 54 52 50 48
60 63 67 70 73 75 78 81 85 89 93 96 100 103 105 106 107 108 111 113 119 122 122 119 117 111 106 98 92 87 81 80 77 73 69 65 61 59 55 52 48 47 44
67 71 76 79 83 86 88 89 92 95 98 101 104 103 105 105 106 107 111 116 118 117 116 114 110 103 96 89 86 82 79 75 71 69 66 62 57 55 51 48 45 43 41
76 78 81 83 86 88 90 92 95 98 101 101 101 103 103 105 107 112 115 115 111 110 107 101 98 95 89 84 81 78 74 72 67 65 62 58 53 51 48 45 42 40 38
78 81 83 84 86 88 91 94 99 100 100 100 101 103 105 108 112 113 112 109 109 104 99 93 89 86 83 79 76 73 70 68 63 61 57 53 49 47 44 41 39 37 35
88 89 88 90 91 95 97 97 97 97 101 104 104 107 111 113 113 110 108 108 104 96 91 86 83 82 79 75 72 69 65 63 59 57 53 48 46 44 41 39 37 35 33
94 94 92 93 95 95 94 96 98 101 103 105 108 112 115 113 109 106 104 99 95 90 85 81 80 78 75 71 68 66 61 58 55 51 48 45 43 40 37 35 34 33 32
90 89 88 89 90 93 96 98 101 103 104 108 111 113 112 111 110 105 99 92 89 87 84 80 76 73 71 67 63 61 58 54 50 47 44 42 39 36 34 33 32 30 30
90 89 90 92 94 95 98 101 102 104 107 110 110 110 111 111 107 102 95 91 88 86 82 78 73 70 67 62 59 55 53 50 46 43 41 39 36 34 32 32 30 29 29
103 99 99 98 97 100 103 103 106 108 110 109 110 110 108 105 98 93 89 86 84 80 77 74 70 67 61 57 55 51 48 46 42 39 38 36 34 32 31 30 29 27 27
105 100 100 100 102 105 107 108 110 109 110 111 109 108 103 97 91 86 83 81 77 75 72 70 66 62 57 53 51 48 44 42 39 37 36 35 32 31 30 28 27 27 26
107 105 104 106 107 108 111 110 110 110 110 109 106 101 96 91 87 83 79 76 72 70 67 64 61 57 54 49 47 45 41 40 37 36 35 33 30 30 29 27 26 26 25
108 107 108 109 111 111 111 111 111 110 107 103 98 94 90 86 82 77 75 72 68 65 62 59 56 54 50 46 44 42 38 37 35 34 33 31 29 28 27 26 26 25 24
111 110 111 111 112 111 111 111 108 105 101 96 92 88 84 80 76 73 70 66 64 60 57 55 52 50 46 44 41 39 36 34 33 32 32 30 28 26 25 25 24 24 23
113 112 112 112 112 112 110 106 102 97 94 91 87 83 79 75 72 68 65 62 59 56 54 52 49 46 44 42 39 37 34 32 32 31 30 29 26 25 24 24 24 23 22

GFSGL_250_spd_057.txt.gz
Wind_Speed
42 43 45 45 47 46 47 51 51 54 57 59 62 64 65 66 71 76 80 86 89 91 96 100 101 103 104 107 110 113 116 117 115 113 119 123 125 125 122 117 116 109 102
44 45 46 46 44 44 44 51 55 59 62 62 62 63 66 72 76 81 86 88 91 94 98 100 103 105 108 112 114 116 117 117 118 118 121 127 127 127 124 114 109 105 101
43 45 43 42 44 50 52 53 55 58 60 63 64 67 72 78 82 85 87 91 94 97 99 101 105 108 110 113 115 116 118 119 122 124 126 125 126 127 118 112 103 98 93
45 44 45 48 51 52 53 55 57 59 62 65 69 72 76 80 84 86 88 91 95 99 101 104 106 108 111 114 116 118 120 123 126 128 126 127 124 120 118 106 100 95 85
45 46 48 50 51 51 53 56 59 61 66 69 72 76 80 82 85 88 90 93 96 99 101 103 104 108 112 116 120 121 124 127 129 130 131 126 122 115 108 103 94 87 81
43 45 49 51 54 56 57 59 61 64 67 72 75 77 79 82 85 89 91 94 97 98 98 102 108 113 116 117 117 119 123 127 126 131 127 125 122 114 104 97 89 81 75
47 49 50 49 50 51 53 55 59 61 65 69 73 77 81 85 88 90 93 95 96 98 103 107 111 116 119 120 121 121 121 124 127 124 120 120 115 111 100 92 84 76 72
45 46 46 47 50 52 54 57 61 65 69 72 77 81 85 87 90 92 93 94 98 104 107 111 115 116 118 120 120 120 125 126 125 121 116 108 104 101 94 84 79 72 69
44 46 48 50 53 55 58 61 65 69 72 75 78 81 84 86 87 93 97 100 104 109 111 115 116 115 117 120 123 127 124 120 122 118 110 103 97 91 87 80 72 67 67
47 48 51 53 55 57 61 65 67 70 72 76 80 85 89 93 94 98 104 108 109 110 113 113 114 116 118 121 125 124 119 118 115 111 105 98 90 84 81 74 68 64 60
49 50 51 52 54 57 61 65 70 75 79 84 89 93 95 97 99 102 106 108 108 108 108 110 113 115 119 123 123 119 118 113 109 104 97 90 82 79 74 70 65 60 58
49 49 52 56 60 64 68 73 77 81 85 88 90 92 95 98 100 103 106 106 107 108 111 113 114 119 122 120 117 116 112 106 100 93 89 85 78 73 69 67 64 58 53
54 55 59 62 63 65 74 79 83 86 89 92 95 97 100 102 104 103 103 106 109 111 111 114 117 119 117 117 115 110 105 98 92 85 80 78 74 70 65 61 58 54 52
56 60 61 66 71 73 78 83 89 91 90 91 91 91 94 97 98 101 104 107 108 110 112 114 114 114 115 112 106 101 94 90 84 81 76 71 68 65 61 57 55 50 48
65 66 69 71 72 76 82 85 87 90 92 95 95 95 97 100 102 103 106 107 109 111 109 110 110 110 108 103 98 90 84 82 80 77 73 68 64 60 56 54 52 47 46
67 68 68 72 77 83 88 91 91 93 99 100 97 97 100 100 102 105 108 109 110 109 108 106 104 100 98 95 91 84 80 77 75 73 69 65 59 56 53 51 48 45 43
75 75 77 81 85 88 91 90 95 103 105 101 99 99 100 101 104 107 108 109 110 110 105 101 96 92 90 88 84 80 77 73 71 67 62 59 55 51 50 46 44 42 39
77 77 81 87 88 90 95 100 105 103 106 102 98 102 105 106 108 108 109 110 109 105 101 94 90 88 85 82 80 77 73 70 65 61 58 55 52 49 46 42 41 39 36
82 83 84 91 95 96 100 109 106 104 107 107 105 105 106 108 110 110 110 107 104 100 94 90 85 84 81 78 76 72 69 65 61 57 54 51 48 46 43 40 39 37 34
83 84 89 95 98 102 108 113 113 114 111 109 110 110 110 111 111 110 107 104 97 93 88 84 83 81 78 75 71 67 64 60 55 54 51 47 45 43 40 38 36 35 33
86 92 100 106 112 114 115 118 119 117 116 115 113 112 114 112 110 107 102 97 93 87 83 81 79 78 75 70 65 62 59 56 51 50 47 44 42 40 38 36 35 33 31
102 108 112 115 118 119 125 126 124 117 116 116 114 115 113 110 107 102 96 91 86 83 79 77 76 72 69 65 60 57 55 52 48 46 44 42 40 38 35 34 33 31 29
108 113 116 120 124 125 127 124 120 120 117 117 116 113 111 106 101 96 90 87 83 79 76 72 70 67 63 60 57 53 50 48 45 44 41 40 38 35 33 32 31 30 28
114 117 121 125 125 127 124 123 121 120 119 117 114 111 107 102 95 91 87 84 80 75 71 67 65 63 59 57 54 51 47 45 42 41 40 38 36 33 31 30 29 28 27
117 121 126 128 128 130 128 122 121 120 117 114 110 105 101 95 92 88 84 80 75 70 67 64 62 60 56 53 51 47 44 42 40 39 38 36 34 32 30 29 28 26 25
124 128 130 130 130 126 124 122 119 116 112 107 104 99 95 92 88 84 79 74 71 67 64 61 59 56 52 49 46 44 42 41 38 37 36 35 33 31 28 27 27 25 24

GFSGL_250_spd_060.txt.gz
Wind_Speed
36 35 36 39 42 37 44 50 53 57 62 64 61 61 65 68 71 75 77 79 81 81 85 89 95 98 100 104 106 108 110 113 113 111 115 120 122 124 123 121 119 120 119
30 33 35 36 39 42 46 53 57 58 57 56 58 62 66 71 75 79 81 81 82 85 89 92 97 101 101 103 106 110 113 115 116 115 119 122 124 122 122 122 122 122 116
35 39 40 38 45 50 54 57 57 57 57 61 63 63 64 66 71 75 79 82 85 90 92 95 96 99 102 106 108 110 113 116 120 123 123 123 120 121 121 124 123 115 109
43 45 41 43 50 55 56 54 54 56 57 56 59 62 63 66 68 73 77 80 83 85 88 92 96 101 105 107 110 114 117 121 126 128 124 120 119 121 125 125 119 112 105
41 44 44 49 52 51 51 52 55 56 57 58 58 58 58 60 63 67 71 76 82 86 91 96 100 103 106 110 115 118 120 121 121 121 122 124 125 125 127 122 117 109 99
46 42 46 47 50 51 53 52 51 50 50 51 53 57 60 63 68 72 77 82 86 91 94 98 103 108 113 116 114 113 116 116 115 120 121 122 123 128 124 118 113 105 94
42 45 45 47 47 48 48 48 50 51 53 56 59 62 65 69 74 79 82 86 91 96 101 106 111 111 109 110 112 111 111 116 121 123 123 124 124 122 118 112 106 98 91
44 47 48 49 50 51 52 53 56 57 58 61 62 64 67 72 78 83 88 92 98 100 102 102 102 104 108 108 106 108 112 117 120 123 125 123 120 117 114 105 98 92 87
47 48 49 50 52 54 55 56 56 58 59 61 65 67 71 76 81 85 87 87 88 91 93 95 97 99 104 108 109 112 114 116 120 123 122 121 117 111 104 99 91 85 79
47 49 52 54 55 57 58 59 58 59 63 68 71 75 76 77 82 87 86 89 93 93 95 98 101 103 105 109 113 116 116 118 119 119 119 116 110 102 97 92 85 78 72
46 46 48 49 49 52 56 59 60 64 67 71 72 73 78 83 87 89 93 93 94 94 94 98 101 104 106 110 115 117 117 117 117 116 112 107 101 95 89 85 79 73 68
48 51 51 53 56 57 60 63 65 67 67 68 71 78 83 83 88 94 95 94 95 94 95 97 101 105 108 111 114 115 117 117 113 108 104 99 94 88 82 77 74 70 63
55 55 58 59 61 61 65 65 68 71 71 75 79 85 86 89 92 92 95 98 98 98 99 101 105 108 109 111 113 114 114 111 105 100 97 91 87 81 76 72 67 65 62
66 67 66 64 65 65 66 71 75 77 77 79 83 88 91 95 97 101 101 102 102 103 104 107 108 110 111 110 109 108 106 101 96 90 88 84 79 75 71 67 63 58 58
69 73 70 70 72 75 75 77 79 79 81 85 87 90 95 100 102 103 104 105 104 108 110 110 110 108 107 107 105 102 98 94 90 84 81 78 75 71 65 61 57 54 52
79 75 76 78 80 77 79 82 88 87 85 85 88 93 97 105 105 106 110 115 113 113 112 112 107 105 104 102 97 94 92 89 85 81 78 75 68 66 62 57 53 50 47
77 78 80 83 84 85 85 91 91 91 86 88 94 99 103 108 107 111 119 117 115 116 114 111 107 104 101 96 91 89 87 86 81 78 73 71 65 60 56 53 51 47 43
83 84 86 90 91 95 94 92 92 89 90 95 100 103 111 116 119 126 120 122 123 118 114 110 105 101 96 92 89 87 84 83 79 73 67 64 60 56 52 49 47 43 40
86 89 92 96 96 96 98 95 91 92 92 99 108 111 118 126 131 126 126 126 122 118 113 108 103 96 92 89 86 84 81 78 73 69 64 59 55 52 50 46 44 41 38
91 95 97 100 99 98 98 97 98 105 109 115 120 126 128 128 130 125 121 122 118 115 109 106 100 94 89 86 83 80 76 71 67 64 61 57 53 50 46 45 41 39 37
97 98 98 100 99 104 104 101 110 116 120 124 128 130 133 135 131 125 125 120 117 111 106 101 96 91 86 82 78 75 71 66 63 60 57 53 50 47 44 42 39 37 35
99 101 104 106 107 108 106 107 117 122 126 130 132 132 133 132 124 125 121 117 111 107 101 96 91 88 84 79 76 72 67 63 60 57 53 50 47 43 41 39 37 35 33
103 103 105 106 106 110 113 118 123 128 131 131 134 135 130 125 125 121 117 111 107 101 96 92 89 85 80 76 71 68 64 59 55 52 49 46 43 41 38 36 34 33 32
101 103 104 106 112 117 118 122 129 130 134 137 138 131 127 124 122 117 111 106 101 96 91 87 84 80 76 71 66 62 58 54 50 48 45 43 41 38 36 34 33 31 30
103 106 110 114 117 120 125 128 132 135 137 133 129 128 124 121 114 109 103 99 94 90 86 82 77 73 70 66 61 57 52 50 47 44 41 40 39 36 34 32 32 30 29
110 111 115 118 124 127 130 132 135 134 129 126 124 122 114 110 106 101 96 91 87 84 79 75 72 69 65 61 56 53 49 46 44 42 40 38 36 34 32 31 30 29 28

GFSGL_250_spd_063.txt.gz
Wind_Speed
25 30 28 26 25 22 25 28 31 47 50 57 59 65 71 72 72 72 72 72 74 77 81 84 87 88 92 95 98 101 104 105 104 108 113 116 118 123 124 123 123 119 118
25 26 21 17 39 22 33 38 43 51 60 66 69 72 74 74 75 75 75 76 74 76 77 80 82 84 86 89 93 98 103 109 111 111 114 118 118 117 119 117 118 118 117
11 25 30 37 41 41 46 50 56 62 65 69 74 76 78 77 72 71 71 73 75 73 74 75 79 83 88 94 99 103 107 111 114 114 110 110 108 109 113 116 118 121 119
34 41 45 42 50 55 59 62 66 68 72 74 76 78 72 70 70 69 67 67 69 72 76 80 84 89 93 96 98 101 105 107 106 104 103 104 106 109 114 118 120 121 118
52 55 57 56 57 61 65 66 65 68 70 73 71 69 67 65 65 67 69 71 72 76 79 83 87 90 92 93 96 98 98 98 99 100 102 104 107 111 118 122 124 121 115
53 58 60 61 63 60 66 68 64 63 65 64 64 64 64 66 68 70 72 74 76 79 82 81 83 89 91 94 93 97 98 97 97 100 102 108 112 117 120 121 122 119 114
38 42 44 47 50 53 54 55 56 58 60 61 61 62 65 68 71 72 74 75 77 79 79 83 86 90 90 92 92 92 95 99 103 105 110 115 117 119 121 123 120 114 105
46 46 46 47 48 50 52 53 55 56 59 60 62 63 66 69 72 74 75 73 71 72 77 83 85 91 92 90 89 92 94 99 104 110 116 119 121 122 122 119 113 104 98
34 36 40 44 48 50 52 53 54 56 58 60 61 63 66 69 71 72 71 72 74 80 83 89 89 92 96 96 95 95 100 103 106 112 117 119 119 119 118 111 103 97 91
38 38 39 41 43 45 47 48 50 56 59 60 62 63 64 67 71 71 73 77 79 85 87 88 94 97 109 102 99 102 104 106 107 111 113 114 115 114 110 103 95 89 85
47 45 45 48 50 52 52 52 54 58 58 59 58 62 64 67 72 76 80 82 83 84 90 91 99 106 110 106 112 114 112 108 109 110 108 108 106 103 99 95 89 84 79
56 55 53 54 55 57 59 61 64 61 64 65 66 69 71 74 80 82 83 83 85 87 87 96 104 109 116 116 122 117 116 112 111 108 107 104 99 95 93 90 84 79 76
60 59 62 63 63 64 64 64 69 70 72 72 73 77 78 82 86 85 87 86 90 92 91 100 108 111 116 123 121 117 114 113 110 106 103 98 95 91 89 84 80 74 70
64 66 66 66 69 69 70 71 74 75 76 79 79 81 85 88 87 90 91 91 90 94 99 107 109 112 122 124 119 116 116 114 107 102 98 95 92 87 83 80 71 69 65
66 70 72 71 72 74 75 77 80 80 82 84 86 89 91 89 89 93 90 93 95 98 104 109 115 125 127 126 120 117 117 111 105 99 94 89 88 83 76 72 68 62 59
73 74 77 77 77 80 83 84 85 85 85 86 91 92 92 92 96 92 94 96 96 103 109 120 125 127 128 122 118 116 110 106 100 94 91 85 81 78 71 65 63 59 54
76 77 82 82 84 86 87 87 90 89 90 92 95 96 98 101 94 93 95 104 107 114 121 128 130 130 126 120 117 111 105 99 95 92 87 81 74 72 68 61 58 56 53
82 88 88 89 89 90 91 93 95 95 94 96 97 98 101 100 98 97 104 114 120 126 130 132 132 128 124 120 113 108 101 96 92 88 82 77 71 65 62 59 55 53 49
88 91 91 92 92 95 96 97 98 97 97 96 100 100 101 103 105 111 116 122 127 133 135 133 134 128 122 115 109 102 97 93 88 83 79 73 67 61 57 55 52 50 45
94 94 96 97 99 99 100 102 101 99 99 99 102 103 104 107 113 119 123 129 132 132 136 135 127 123 115 109 102 97 93 89 84 79 72 68 63 57 53 50 48 46 42
98 98 99 102 105 104 104 103 99 100 101 105 106 105 108 118 120 124 131 133 135 135 131 126 122 116 110 104 97 93 88 83 78 73 68 63 59 54 49 47 44 42 39
102 105 107 109 110 109 106 102 102 103 106 108 111 116 120 124 128 131 135 135 137 132 125 122 116 110 103 97 92 87 82 76 73 68 63 59 54 50 47 44 41 39 37
105 106 108 112 107 100 97 100 103 106 109 112 118 122 125 128 130 133 134 133 128 124 120 113 108 102 97 91 85 80 76 72 68 63 59 55 51 47 44 41 39 37 35
106 109 110 103 99 98 101 103 106 111 114 119 122 126 130 132 132 131 129 127 125 117 110 104 100 95 90 85 79 74 70 66 62 58 54 50 47 44 41 39 37 36 34
108 104 100 100 101 103 106 110 115 117 120 123 126 129 129 131 130 128 124 120 114 107 102 97 93 89 83 79 73 68 65 61 58 55 50 46 44 42 39 36 35 34 33
101 99 101 104 106 110 113 116 118 121 123 125 125 128 130 126 122 118 113 108 103 99 95 90 86 82 77 71 67 63 60 57 53 50 46 42 40 39 36 34 34 33 31

GFSGL_250_spd_066.txt.gz
Wind_Speed
17 17 15 20 22 21 20 23 25 37 38 47 50 58 60 60 64 69 71 75 81 84 88 91 93 90 89 87 87 84 85 88 90 92 97 101 102 106 107 110 109 108 108
17 16 18 17 20 21 27 27 28 44 60 56 55 53 60 68 69 75 79 83 86 89 93 95 91 89 84 82 82 85 88 90 93 92 96 97 99 101 102 102 103 103 105
30 25 24 29 22 35 36 38 48 52 57 57 65 66 69 73 79 85 87 89 89 92 92 88 83 82 82 83 85 86 90 90 90 91 93 92 93 98 102 102 102 104 107
43 39 36 32 26 43 49 51 56 61 62 66 70 75 80 83 85 85 88 89 90 85 81 81 81 83 83 84 87 90 86 86 92 95 94 93 100 101 103 104 101 105 109
42 44 46 50 47 44 52 59 63 64 67 71 76 81 86 86 85 86 85 81 79 79 79 81 82 83 84 86 86 86 88 91 94 95 95 99 101 101 102 101 102 108 109
46 43 45 54 56 60 63 64 65 70 73 75 80 79 81 80 78 79 77 76 78 79 78 81 84 83 84 83 85 86 88 93 94 95 98 102 105 104 104 104 110 111 111
39 45 49 54 60 64 69 73 76 74 73 72 70 72 75 75 76 76 74 73 76 78 79 78 73 74 76 78 81 84 87 96 96 97 101 108 105 110 105 108 111 112 113
31 36 41 50 57 60 65 65 63 58 61 64 65 65 62 62 64 65 66 67 66 65 67 71 74 77 78 79 82 86 93 94 94 105 111 114 116 114 112 114 114 113 111
24 28 32 37 42 46 48 50 49 51 54 55 54 56 60 60 60 60 62 63 67 71 73 77 80 83 84 84 84 83 96 91 99 109 111 114 117 117 117 117 114 110 106
32 34 37 38 41 42 43 44 47 48 50 51 55 59 60 62 64 64 67 70 70 73 77 82 83 84 86 88 87 91 93 96 103 108 112 122 121 119 118 117 110 104 100
39 40 42 44 45 47 50 52 53 54 55 58 61 63 66 66 69 71 73 72 73 79 81 85 84 85 89 89 90 94 94 99 108 108 117 119 120 116 115 110 105 101 94
45 46 46 47 49 53 57 59 58 60 64 65 67 70 71 73 75 78 77 78 80 82 87 89 90 90 90 93 95 96 98 106 111 117 119 122 115 115 111 104 99 98 91
52 53 54 56 55 56 60 62 63 64 68 71 73 75 76 79 82 82 82 82 82 84 89 92 92 95 98 101 98 103 108 111 115 122 120 117 114 110 105 99 95 92 84
59 59 61 62 62 63 65 66 69 71 74 77 77 79 81 85 87 87 88 86 84 87 90 92 96 99 101 101 103 109 115 116 124 120 122 119 114 107 103 96 91 88 79
66 67 68 67 69 71 72 73 75 78 79 82 82 83 86 90 91 93 93 89 89 91 93 97 100 99 99 103 110 115 122 127 126 125 125 116 110 104 102 97 86 82 76
71 72 71 70 73 75 79 78 79 83 87 89 90 92 95 97 99 98 94 90 89 92 96 98 97 99 106 111 118 123 127 128 128 129 120 114 106 100 96 91 83 75 72
78 76 75 77 76 80 80 85 87 90 92 95 96 98 100 102 103 97 92 90 92 95 96 99 100 108 113 116 123 125 127 129 126 121 114 108 101 96 88 82 77 73 67
80 81 83 80 82 85 88 89 94 96 97 99 100 103 104 108 102 95 92 94 96 98 103 104 109 115 117 121 125 127 129 127 121 116 109 102 94 90 83 76 70 68 63
84 85 82 86 89 93 95 98 100 101 102 103 106 107 108 109 99 95 96 99 101 105 109 113 117 119 123 126 128 128 125 122 117 108 102 95 88 81 75 71 66 62 59
81 84 93 94 98 100 100 103 103 104 105 106 109 110 110 103 100 102 102 105 107 110 114 118 121 124 127 128 127 125 122 116 108 99 94 89 83 76 70 65 61 59 54
92 95 97 101 103 103 104 105 107 106 109 112 112 109 104 100 100 102 105 107 111 116 118 122 126 128 127 125 122 117 114 104 98 93 86 82 75 69 64 61 57 55 51
98 101 103 104 104 104 106 107 108 111 113 113 109 103 101 102 104 105 108 112 116 121 126 128 126 125 123 117 115 109 102 96 90 85 80 74 69 64 61 57 53 51 47
104 104 105 105 105 106 108 111 112 112 111 107 105 104 104 104 106 110 113 117 121 125 125 123 123 120 116 112 102 97 93 89 83 78 74 69 63 60 57 53 50 47 44
105 105 105 105 107 109 112 113 114 112 107 103 104 105 106 111 112 114 117 120 121 121 121 119 115 111 105 100 95 90 84 79 76 71 67 63 58 57 53 49 47 44 41
104 104 107 109 111 114 115 115 109 107 105 104 106 108 110 112 115 118 119 118 118 115 113 109 103 99 97 92 87 81 77 73 70 65 62 57 54 52 49 46 43 41 39
107 109 110 112 112 111 108 106 105 105 106 108 110 112 114 116 116 115 114 113 110 106 102 98 93 89 87 82 78 74 70 66 62 59 56 53 50 48 46 43 40 38 36

GFSGL_250_spd_069.txt.gz
Wind_Speed
26 25 23 23 23 20 20 24 29 22 24 24 31 38 57 54 54 61 65 65 68 70 77 78 82 88 92 92 91 90 86 85 82 83 86 91 93 94 98 98 102 103 109
29 28 29 28 26 24 25 24 28 29 36 36 40 44 53 59 66 74 65 70 72 77 81 85 90 92 92 92 87 86 83 84 83 85 89 87 89 93 96 97 98 105 103
33 33 32 32 26 24 22 27 36 38 38 38 42 51 60 64 73 75 76 79 77 81 86 93 92 90 89 86 84 84 84 86 88 84 80 84 88 92 92 92 98 102 105
38 40 38 35 29 30 32 44 47 48 48 49 51 54 59 67 73 77 78 79 84 88 91 92 91 86 83 84 83 82 80 77 79 81 80 84 87 87 89 92 98 98 101
37 42 44 43 37 40 43 46 53 52 58 56 55 59 65 71 76 81 84 85 88 87 87 85 83 82 84 78 76 75 76 81 84 84 85 87 88 89 90 95 96 95 101
36 38 43 46 49 50 54 55 55 59 60 63 63 70 73 77 80 83 86 88 84 84 80 75 77 73 72 74 77 79 78 81 84 83 87 89 89 90 94 99 97 98 96
29 34 38 43 48 54 56 60 57 63 65 68 71 72 72 79 83 87 79 76 74 72 72 71 71 72 74 77 79 80 79 82 87 88 89 89 90 96 97 96 99 100 101
28 30 34 38 43 50 50 52 56 58 60 62 61 60 64 64 65 63 61 63 63 65 69 70 71 72 74 76 80 82 85 87 90 90 92 93 96 101 102 98 102 100 104
27 29 32 35 37 38 42 43 44 45 48 51 51 52 50 52 55 57 58 63 65 69 71 72 76 77 80 83 84 85 88 90 93 96 97 100 104 107 103 104 104 104 105
37 36 38 38 39 40 40 42 44 46 49 50 51 52 55 57 58 61 64 67 71 72 74 77 81 83 87 89 88 86 86 89 94 97 101 103 103 101 105 107 110 107 107
44 45 45 44 45 46 46 47 49 51 53 55 57 58 61 62 62 65 69 72 75 79 81 84 87 90 94 92 88 86 86 89 91 93 97 99 96 103 106 113 113 115 109
49 50 52 53 55 56 55 55 56 58 60 61 63 65 68 67 68 70 75 77 80 85 85 89 92 94 98 92 87 86 88 89 90 93 94 95 99 107 113 116 118 116 112
55 56 57 58 60 61 59 59 61 63 64 65 67 69 70 71 73 74 80 85 87 87 89 94 97 98 100 92 88 89 89 90 94 96 97 103 106 111 115 117 118 112 110
59 60 62 61 64 65 64 66 67 69 70 70 72 77 75 77 79 83 87 90 90 92 95 98 102 103 100 92 91 91 93 96 98 99 104 108 111 115 118 117 114 112 107
63 66 66 67 68 69 70 72 74 76 76 77 76 84 79 81 86 89 92 92 94 98 100 105 108 107 100 95 94 95 99 100 102 104 108 111 113 115 118 116 112 110 99
70 70 70 69 70 72 75 77 80 82 81 80 83 87 83 90 94 95 94 95 101 103 107 109 112 106 101 96 97 98 100 103 105 108 112 113 116 119 117 116 110 102 97
73 76 75 73 75 77 81 83 84 85 84 84 89 88 93 99 99 98 99 103 105 108 111 114 111 103 99 99 100 102 106 107 110 112 115 118 118 116 114 108 102 95 90
80 79 78 78 79 82 85 87 87 87 89 90 92 97 103 102 101 103 105 108 110 113 116 113 105 101 101 103 104 105 107 110 113 116 118 117 115 110 106 99 93 87 83
81 79 82 83 85 86 88 90 93 89 92 97 102 106 106 105 107 108 110 113 116 118 114 109 105 104 104 104 106 108 110 113 115 117 116 113 109 101 98 91 87 81 76
82 84 84 86 88 92 94 89 89 96 99 106 108 108 109 110 111 113 115 118 120 116 113 110 107 107 106 108 109 111 114 116 115 113 110 105 100 95 90 86 81 76 71
86 86 88 93 94 86 88 95 99 103 107 109 110 112 112 113 114 116 119 118 116 113 110 109 108 109 109 109 112 114 115 114 110 106 102 99 93 87 82 78 75 69 65
91 93 89 85 91 97 99 103 105 109 110 112 113 114 116 116 117 117 116 115 113 111 112 112 110 110 110 112 113 111 108 106 102 96 92 89 84 79 76 72 67 64 60
86 91 95 99 101 104 106 108 110 111 113 115 116 116 116 116 115 114 113 112 112 114 111 109 111 112 111 109 106 102 101 97 93 89 85 83 77 71 69 66 62 59 55
97 100 103 104 107 109 110 111 113 115 115 115 115 115 114 114 114 112 112 113 110 109 109 109 107 105 104 102 98 94 89 86 83 81 79 75 70 66 64 61 57 55 51
103 105 107 109 110 111 113 115 114 115 116 115 114 116 116 113 111 112 111 108 107 107 106 104 102 98 95 94 91 87 82 80 76 73 71 66 63 60 59 56 53 50 47
107 109 110 111 112 113 113 114 116 116 115 115 115 113 112 111 111 107 106 104 102 100 97 95 92 90 87 84 83 80 75 72 70 66 64 61 57 55 54 51 48 45 43

GFSGL_250_spd_072.txt.gz
Wind_Speed
30 33 36 38 38 37 38 36 32 29 24 30 33 37 42 48 44 46 47 53 56 61 67 67 71 72 77 79 80 88 93 93 91 92 86 83 79 78 79 82 86 89 91
32 34 35 37 38 37 39 40 37 35 34 36 35 33 39 40 39 37 47 53 55 62 66 70 72 74 79 86 89 90 91 87 86 83 77 77 79 82 84 85 90 90 93
33 37 37 39 38 38 37 36 40 37 42 44 40 38 43 45 47 44 49 56 62 62 67 72 79 86 88 89 87 89 85 78 74 74 78 81 82 86 87 90 90 93 94
35 38 40 37 37 37 37 39 42 42 44 40 44 47 50 52 52 49 55 59 64 69 73 79 83 86 90 85 77 73 75 74 76 79 80 82 86 90 92 94 92 97 97
28 41 44 41 37 36 39 39 40 44 44 48 52 56 59 57 58 61 65 66 71 75 79 85 83 80 71 71 72 70 73 74 76 80 83 85 88 92 95 97 95 91 95
19 19 36 44 43 42 42 46 45 48 49 53 51 53 57 61 65 67 69 69 72 72 71 65 65 60 60 63 66 67 69 73 79 82 85 88 94 97 98 96 95 97 94
28 26 21 22 32 41 44 46 50 51 52 53 57 59 63 66 63 60 59 60 54 52 56 57 56 58 62 67 69 73 75 78 83 86 90 94 97 98 97 96 97 95 96
30 30 30 28 28 31 34 38 42 43 43 44 45 45 45 45 47 50 52 53 53 57 60 60 60 63 64 70 75 76 78 81 86 90 95 99 101 101 96 93 92 93 96
35 35 33 34 33 33 34 36 38 41 43 46 48 49 50 51 53 56 59 60 61 62 62 63 64 66 70 76 79 79 82 86 90 95 101 103 103 99 97 94 95 95 93
41 40 40 41 41 42 43 43 45 47 49 51 53 55 56 57 60 62 64 64 65 67 68 68 68 71 75 81 80 82 86 91 95 100 105 107 103 99 98 98 99 98 98
45 45 46 46 48 48 50 51 52 54 55 54 57 56 57 59 62 63 67 68 71 70 74 77 74 79 82 82 84 86 91 95 101 105 109 109 105 101 101 103 103 103 103
55 54 52 50 50 52 53 55 56 58 60 62 63 62 63 65 68 70 73 74 76 74 80 81 81 86 87 86 89 92 97 101 106 110 113 111 105 103 105 105 106 106 108
61 60 58 56 57 59 62 63 62 62 64 66 69 69 69 70 74 76 79 80 80 79 84 84 88 92 91 92 95 99 102 107 111 114 116 112 107 105 105 103 104 107 110
67 62 63 65 66 66 65 66 66 66 66 69 71 73 74 75 78 80 83 84 85 84 89 90 98 96 96 98 101 103 107 111 115 118 116 111 108 107 104 104 107 107 107
69 69 67 68 70 71 71 71 72 72 74 75 76 75 77 79 82 84 87 90 86 90 92 99 101 100 100 103 106 108 112 116 119 121 115 108 105 105 107 111 108 107 107
71 72 74 76 77 78 78 77 78 77 77 80 80 82 83 85 87 88 91 91 90 94 99 104 103 105 106 108 111 114 118 121 122 115 111 108 110 112 112 111 110 110 110
79 82 81 82 83 83 81 76 76 81 85 84 85 87 89 90 91 94 95 90 96 101 106 106 108 110 111 116 119 123 123 123 120 115 113 114 116 114 111 111 110 110 105
78 81 84 86 84 84 82 81 84 89 90 89 89 91 91 93 98 97 94 101 104 108 109 112 113 115 118 122 125 124 124 120 117 116 117 117 116 111 111 109 107 101 97
79 81 83 86 88 89 92 91 91 89 89 90 93 93 95 101 97 98 106 108 111 113 115 116 119 123 125 126 124 123 120 118 119 118 118 116 112 110 107 103 98 95 89
83 85 88 90 91 92 91 91 91 92 96 98 97 100 101 98 103 108 111 114 116 118 118 122 127 128 129 126 123 122 120 120 120 119 116 113 108 104 100 95 91 88 84
85 86 88 90 89 91 94 94 97 99 99 100 101 98 102 107 109 114 116 118 120 121 125 129 128 127 126 123 121 120 120 120 118 115 110 105 100 96 91 87 83 81 78
87 89 92 93 92 94 97 99 99 100 103 101 101 107 110 113 116 119 120 121 124 128 127 128 127 125 123 121 120 119 117 115 111 105 99 96 93 88 85 82 77 74 69
89 90 92 94 97 99 103 103 106 105 103 106 110 113 115 118 121 123 125 127 127 126 125 124 123 121 119 117 115 112 109 105 100 96 92 89 86 81 77 74 70 67 62
91 96 100 102 103 105 107 110 108 110 112 114 115 116 119 122 124 126 126 125 125 123 121 119 115 115 114 111 107 102 97 93 91 87 84 81 78 74 71 68 64 62 57
99 104 106 106 108 110 113 113 114 115 115 114 116 119 122 124 124 123 124 122 119 118 115 112 110 106 102 99 96 94 91 87 84 81 78 76 72 67 65 62 58 55 52
101 105 107 109 110 111 112 114 114 113 114 116 118 120 120 121 122 120 118 116 113 110 106 102 98 95 92 90 88 84 81 78 75 72 69 66 64 61 59 55 52 49 47

GFSGL_250_spd_078.txt.gz
Wind_Speed
19 18 27 33 36 37 35 33 35 40 39 38 36 39 45 48 50 47 53 57 58 55 52 51 45 44 48 50 51 54 56 58 59 61 62 70 70 69 71 72 71 72 73
18 18 18 24 31 37 41 40 40 43 42 42 40 43 44 42 42 45 48 49 47 45 46 47 48 52 53 54 54 56 58 61 60 66 70 68 70 70 75 75 75 74 75
18 21 19 18 20 30 35 40 40 40 40 39 40 40 41 42 42 43 43 44 44 43 44 48 52 53 52 53 54 59 62 68 66 67 67 67 72 70 70 70 71 75 77
24 22 23 21 21 21 25 34 39 40 40 41 40 40 41 42 44 46 47 48 48 50 54 55 56 53 49 53 57 58 57 59 63 65 67 69 72 71 73 72 75 78 80
30 28 27 27 24 23 24 23 29 36 43 43 42 45 47 50 46 44 46 51 54 54 53 52 50 47 46 48 51 53 57 60 62 65 68 71 74 75 80 83 82 84 84
34 35 32 32 31 30 28 27 23 25 34 36 39 40 38 40 42 44 49 49 44 42 41 43 45 47 49 51 54 58 59 61 64 67 70 72 76 78 81 83 84 86 88
38 38 38 38 37 38 37 34 33 30 26 24 28 31 30 32 33 33 34 37 40 42 45 48 49 52 54 57 60 63 65 67 70 73 76 78 80 79 83 88 90 90 93
45 43 41 39 42 40 40 42 42 38 37 35 34 34 34 34 36 37 41 43 46 49 52 55 57 60 62 63 66 68 71 74 77 81 83 83 85 83 86 88 91 93 96
50 50 46 40 41 44 45 46 49 49 45 45 44 43 43 44 45 48 51 52 53 55 58 61 64 66 67 69 72 75 74 76 79 83 84 85 88 89 90 94 94 94 100
56 55 51 49 47 48 48 48 50 52 51 51 50 50 51 52 54 57 60 59 61 62 63 65 67 70 72 73 77 78 79 82 84 87 88 89 92 95 95 97 98 100 105
58 58 57 53 53 52 50 51 52 56 55 56 56 56 58 61 61 62 63 66 67 67 68 70 72 75 77 79 81 85 87 87 89 91 94 96 97 99 99 104 104 105 108
62 62 64 62 59 56 54 51 53 57 62 63 63 64 66 67 68 69 72 74 74 77 76 75 77 82 88 87 87 89 90 93 94 98 100 101 103 103 104 107 105 108 112
67 67 68 67 64 63 64 63 60 59 64 66 67 70 71 72 74 75 77 80 81 80 83 86 88 90 90 91 94 96 97 99 102 106 104 106 106 105 110 109 111 113 117
71 71 71 71 70 68 69 69 69 69 68 68 70 74 76 78 82 83 84 84 84 86 87 93 95 93 95 97 100 101 102 105 108 106 108 109 108 109 113 114 114 118 121
74 75 74 75 75 74 75 76 74 74 74 74 75 77 78 80 83 85 86 87 89 91 92 94 97 100 102 103 103 104 107 109 111 108 110 112 113 113 118 117 120 123 126
80 79 78 78 77 75 75 78 81 81 81 81 80 81 82 84 85 88 90 92 95 96 96 97 100 103 103 105 107 108 109 110 110 115 116 116 114 118 120 125 125 127 131
86 87 87 86 84 80 80 82 83 86 88 87 86 88 88 91 94 95 96 98 101 102 101 102 106 106 108 109 110 112 113 114 117 120 120 120 120 122 127 127 129 133 133
83 86 92 90 89 89 88 86 88 97 92 91 93 94 95 97 99 99 98 101 105 107 109 110 110 112 114 114 114 116 119 122 125 123 122 123 125 127 128 132 133 133 135
90 82 91 81 84 85 89 94 95 99 102 99 98 100 103 102 101 102 104 106 108 112 113 113 114 117 120 119 120 123 125 125 124 123 124 125 126 130 131 131 131 131 127
85 88 92 93 90 86 83 93 99 97 106 105 108 108 108 109 109 111 114 115 114 113 116 117 120 123 121 122 124 125 124 124 123 126 125 126 128 129 129 128 125 123 120
86 87 89 90 91 93 97 102 105 109 111 113 113 114 113 115 114 114 114 114 114 117 120 121 125 121 122 122 122 122 122 124 124 123 127 128 127 126 122 119 117 110 106
86 86 90 90 92 94 97 101 104 106 107 107 109 111 110 110 112 112 114 116 118 119 122 121 121 123 120 118 119 124 122 121 125 125 124 122 120 117 113 108 104 100 96
82 83 85 87 88 94 99 101 103 105 105 106 109 111 110 111 113 115 119 122 123 123 120 121 121 117 117 120 120 119 120 122 122 120 117 114 110 105 101 98 95 91 87
83 86 90 88 90 95 97 99 103 106 109 110 111 112 114 116 117 120 123 123 121 119 117 116 116 117 118 117 117 117 116 115 113 110 105 101 96 94 90 87 83 80 76
82 86 90 91 93 96 99 101 104 105 109 113 116 117 117 118 118 118 118 116 114 114 116 116 116 114 114 113 112 111 108 105 100 97 93 90 87 84 80 77 74 71 68
79 83 88 90 92 95 98 101 105 107 111 111 112 113 114 116 117 115 112 111 111 110 109 109 109 108 107 106 103 100 96 93 89 87 84 80 78 75 72 69 68 65 62

GFSGL_250_spd_081.txt.gz
Wind_Speed
21 19 20 18 17 26 29 31 30 29 28 30 33 35 38 42 45 46 48 48 50 51 55 57 57 56 58 58 57 57 56 59 60 61 58 53 52 52 59 69 69 70 69
20 21 19 19 18 16 20 29 36 39 38 38 39 43 45 46 45 47 46 50 50 50 50 50 52 51 51 54 53 55 59 63 61 53 51 52 54 57 61 61 66 68 71
23 22 24 20 18 20 18 17 28 32 44 44 42 42 45 45 45 48 50 50 50 48 48 46 46 48 51 51 55 60 63 58 52 54 55 57 57 57 62 64 66 70 73
32 28 25 26 24 23 21 20 19 21 33 41 48 49 48 48 48 47 48 49 46 49 50 50 53 54 56 57 61 55 48 49 52 56 56 60 63 64 66 69 73 75 80
36 37 34 27 28 29 28 25 23 22 22 23 36 46 51 53 53 52 50 50 51 54 53 52 53 56 57 59 49 49 50 52 55 58 62 66 69 70 74 78 80 83 82
39 42 38 37 35 32 33 32 29 30 29 28 30 30 35 48 50 50 51 51 50 51 54 56 59 53 47 48 49 52 55 57 61 64 68 73 74 75 80 81 81 84 86
44 45 41 42 43 39 38 39 34 35 35 32 34 33 34 34 39 44 42 42 38 41 42 42 44 47 50 53 54 58 60 63 66 69 73 75 77 79 80 85 88 89 89
47 49 49 45 46 45 42 43 41 39 41 40 40 40 40 39 44 44 41 39 41 46 48 49 53 55 56 59 61 63 65 68 70 73 77 79 83 86 87 90 91 92 96
58 52 53 52 50 48 48 51 48 46 43 41 42 44 45 47 48 49 50 50 50 51 52 56 60 61 61 65 68 70 73 74 75 76 78 84 90 92 93 94 97 99 100
53 54 55 53 53 55 52 49 52 52 52 52 51 51 47 51 51 53 53 53 56 59 60 60 62 65 68 70 74 78 80 81 83 84 87 90 92 93 97 100 103 104 105
58 58 57 57 58 58 56 54 56 55 56 55 57 55 52 53 52 57 60 62 63 64 64 65 68 72 75 78 81 83 85 87 89 92 93 94 97 99 101 105 107 108 110
64 64 65 65 63 63 61 57 58 58 60 63 63 60 59 60 59 61 65 68 70 71 71 75 77 79 82 85 88 90 91 94 95 97 99 101 103 104 107 110 110 112 115
69 71 72 72 72 70 67 64 61 62 65 67 68 69 68 68 67 69 69 70 73 77 79 81 84 88 89 90 92 93 94 96 100 101 103 104 106 109 112 113 114 117 117
76 76 78 76 76 75 75 72 70 71 72 71 71 71 72 74 76 77 79 80 80 82 83 83 86 89 91 92 93 95 97 99 101 103 107 110 113 116 119 122 121 123 124
82 79 78 78 76 74 74 76 77 78 77 78 78 78 81 84 84 85 85 86 86 87 89 89 89 91 93 95 97 100 103 104 106 109 111 114 118 121 123 124 127 129 129
79 80 79 79 80 79 80 80 77 76 78 80 83 82 83 83 82 83 91 92 92 92 94 96 97 98 99 101 104 106 109 111 112 117 119 122 124 125 127 129 132 135 134
80 80 81 83 85 85 87 88 90 89 89 89 87 87 86 85 82 91 99 101 102 100 101 102 102 103 105 108 112 114 117 118 121 124 128 129 130 130 132 135 136 135 132
76 78 78 80 80 80 84 90 93 94 95 96 96 96 96 95 95 95 98 95 101 103 109 112 110 113 114 115 117 120 125 127 127 129 131 129 128 129 130 131 128 128 125
76 76 76 81 76 73 84 89 94 91 93 96 97 93 88 93 94 96 97 99 104 110 113 113 118 119 120 122 124 124 124 127 126 122 121 124 128 129 127 127 126 125 125
77 78 77 77 79 86 87 92 93 92 92 96 99 97 92 89 89 90 91 102 111 119 122 125 125 125 127 127 125 126 124 124 124 125 127 129 128 127 126 123 124 122 122
80 81 80 82 81 85 91 92 97 98 98 99 100 101 102 102 105 108 113 116 123 126 126 126 130 128 129 128 128 129 128 126 127 128 129 128 125 123 122 118 118 117 115
79 82 84 87 89 90 95 97 98 99 101 102 103 105 108 106 107 111 116 121 123 125 130 129 129 130 131 131 129 128 130 132 133 132 127 122 120 118 116 115 113 111 107
75 78 83 87 91 95 98 100 102 103 104 106 108 110 111 111 112 116 119 122 124 125 128 128 127 128 129 131 130 130 129 126 124 121 118 117 115 113 112 109 104 100 97
73 77 80 82 84 87 91 93 96 98 99 102 104 106 108 111 113 114 116 118 121 124 126 125 125 126 126 125 124 121 120 116 115 114 113 111 109 107 101 98 94 91 88
70 75 78 80 82 85 89 93 96 99 102 104 106 107 109 111 113 117 119 120 121 121 121 121 121 120 120 118 114 113 112 111 109 107 106 104 99 96 93 89 86 82 79
69 72 76 80 83 85 87 90 94 97 99 103 104 105 106 107 109 110 112 113 113 113 114 113 111 109 109 108 107 106 104 104 102 99 96 93 90 87 84 80 77 73 70

GFSGL_250_spd_084.txt.gz
Wind_Speed
26 25 25 19 14 11 11 23 29 33 37 43 47 50 55 61 66 66 64 66 67 66 64 66 68 66 64 61 62 63 65 67 63 61 58 55 56 59 61 58 55 53 54
32 28 24 24 21 16 16 14 14 30 36 35 35 37 41 42 42 44 46 48 51 54 57 56 56 59 60 62 62 62 63 60 56 54 52 57 61 54 53 55 53 54 56
31 31 24 27 29 26 22 20 18 15 13 33 43 47 44 43 42 45 48 49 52 55 58 57 59 61 60 58 56 52 52 54 54 54 54 61 56 58 57 57 59 60 62
38 38 30 32 31 31 29 28 25 24 24 20 18 24 39 50 50 51 52 53 56 57 57 58 60 58 56 56 54 57 58 58 56 59 57 55 58 61 61 62 63 66 66
42 41 41 36 33 34 36 30 28 29 29 29 26 25 24 22 27 37 47 54 58 58 58 56 58 58 60 60 58 59 62 61 59 53 54 58 61 64 67 69 69 70 69
48 49 46 41 35 39 41 36 35 35 36 33 35 33 32 33 33 32 32 30 29 42 55 56 53 53 51 53 54 53 52 51 53 57 59 62 64 66 70 74 77 78 80
50 46 45 49 46 45 45 41 40 42 41 37 37 37 39 38 40 40 41 39 35 36 40 41 41 44 44 46 47 50 53 57 59 62 64 67 69 73 77 80 83 85 88
53 51 53 55 56 53 49 54 47 45 44 45 45 42 46 49 48 46 45 43 41 45 46 47 48 52 52 54 57 56 59 60 62 65 69 72 76 78 82 85 86 89 92
56 62 62 63 64 63 54 55 60 51 49 50 45 46 45 46 48 51 49 49 48 46 51 55 56 58 59 57 62 65 65 66 67 71 74 78 81 84 87 90 92 95 97
75 75 73 72 67 66 65 60 61 59 57 59 57 50 49 52 53 53 53 54 54 56 55 54 54 57 60 63 66 68 70 72 74 78 81 84 87 90 92 96 98 98 101
84 81 79 77 73 70 62 60 64 60 59 61 64 60 56 53 57 59 60 60 58 58 60 62 65 67 68 71 74 76 77 79 82 84 87 89 91 95 98 100 100 99 102
90 89 84 80 77 72 64 62 59 67 67 65 64 65 65 64 64 65 66 66 65 65 66 67 67 69 73 75 77 80 83 86 89 91 93 96 96 96 98 100 103 107 109
91 90 91 87 81 76 66 68 68 67 67 69 69 70 70 71 72 72 73 73 74 76 76 76 77 79 81 84 85 87 89 91 94 97 99 99 100 102 104 107 109 111 114
97 98 98 97 92 86 79 78 78 77 72 72 71 73 74 73 71 75 79 79 67 80 83 84 84 87 91 94 95 95 96 96 97 101 104 105 105 106 109 110 113 117 119
104 101 99 96 93 87 83 81 82 80 79 77 79 77 78 75 56 70 74 85 81 87 88 91 94 96 92 86 91 98 96 100 102 106 111 111 110 114 111 113 116 119 120
92 91 87 84 82 80 80 79 80 86 84 79 78 78 77 77 76 78 81 89 90 87 93 94 93 90 95 96 98 101 102 105 109 110 110 116 116 117 117 124 127 132 126
81 81 79 76 76 76 76 77 77 77 78 76 69 76 80 64 73 75 86 93 96 97 100 103 104 103 103 103 104 109 109 108 107 110 112 115 120 125 129 131 137 139 130
79 79 75 76 75 79 75 80 78 77 77 61 63 86 86 81 89 99 103 104 106 105 108 109 108 110 110 105 102 104 107 106 107 110 118 125 128 133 138 141 143 135 142
76 76 74 73 75 81 67 81 66 69 72 77 86 93 85 84 90 95 96 98 102 106 106 107 105 107 109 110 110 107 109 113 115 117 126 134 135 139 140 143 145 146 139
73 73 74 75 76 75 83 91 80 76 73 70 86 88 83 89 92 94 94 96 93 103 103 105 108 108 116 116 113 113 117 120 123 127 131 135 137 142 145 145 142 139 130
71 73 73 75 77 82 87 90 88 86 84 87 91 93 91 92 90 96 100 101 101 106 113 114 114 117 119 120 123 124 126 129 132 135 138 141 142 144 140 136 129 127 118
66 70 72 75 78 80 84 88 91 93 96 94 93 97 98 100 105 107 110 112 114 116 116 118 120 121 123 126 129 133 133 133 136 138 137 134 134 132 125 121 115 111 111
63 65 69 71 73 78 82 84 87 94 96 99 98 100 104 105 107 109 111 114 116 118 118 120 123 125 127 129 129 129 129 129 129 130 125 122 118 115 111 110 109 106 103
62 63 64 66 68 72 77 80 84 88 92 98 101 102 104 106 108 110 113 115 119 124 125 124 126 126 124 124 124 123 121 121 120 116 112 111 110 107 105 105 102 97 93
61 61 63 65 67 69 72 76 80 84 87 91 95 98 101 103 105 109 112 114 115 118 118 119 120 120 118 116 115 115 115 111 108 108 107 105 104 102 98 95 93 89 86
63 64 65 67 69 71 73 75 77 81 84 87 90 93 96 98 100 103 105 108 109 110 111 111 109 108 109 109 106 105 105 104 103 101 100 98 95 93 91 88 86 83 79

GFSGL_250_spd_087.txt.gz
Wind_Speed
27 25 23 23 23 16 18 16 13 23 34 49 63 67 71 70 69 68 68 69 71 72 76 78 77 77 80 76 74 74 72 71 58 63 59 63 62 62 62 59 56 56 58
30 28 27 25 20 17 22 22 22 19 15 28 40 55 67 69 75 73 72 72 78 78 76 76 77 77 70 72 69 65 60 60 59 59 61 64 61 56 55 54 58 56 53
35 32 27 30 28 28 23 27 24 23 23 21 19 27 42 46 50 56 59 59 62 63 60 60 61 58 59 62 63 64 64 64 65 66 62 58 60 58 60 59 57 56 57
40 32 31 30 33 36 33 29 26 27 29 29 29 29 27 26 33 44 49 53 52 51 53 57 57 58 60 62 62 64 65 64 64 61 61 58 57 59 56 58 56 60 61
42 41 37 36 39 40 40 37 26 31 35 37 36 34 35 34 33 29 29 30 33 42 53 58 60 59 60 62 63 62 59 59 58 52 46 43 47 51 55 58 61 64 67
43 42 44 46 46 46 45 44 40 42 42 43 43 46 42 41 41 41 38 36 36 37 37 37 38 38 39 42 43 45 48 46 46 47 47 49 52 56 62 64 67 69 73
49 47 46 49 49 50 52 49 45 49 51 49 46 50 52 50 46 44 47 49 48 47 44 43 44 46 46 46 46 46 49 52 54 55 57 58 60 64 67 70 74 75 78
51 53 51 52 51 57 55 53 55 62 60 60 59 54 56 57 56 54 51 49 51 51 53 54 51 51 52 53 54 56 57 58 61 64 65 66 67 68 70 74 78 81 84
53 55 55 59 59 49 54 59 66 64 65 65 65 63 53 61 62 58 58 54 52 51 52 54 56 58 62 64 62 60 64 65 65 66 69 71 72 74 77 81 84 88 90
56 48 47 48 58 64 61 67 69 70 71 74 72 63 58 59 64 68 68 67 62 57 55 55 55 56 59 63 68 71 72 71 71 72 74 76 79 80 81 84 86 89 91
60 64 69 72 73 72 72 66 65 67 70 70 69 64 60 60 64 67 70 72 70 70 66 64 65 65 66 66 68 71 74 76 76 77 79 81 84 85 88 91 93 97 100
76 76 79 81 81 83 87 85 75 73 75 76 73 71 66 63 63 65 71 73 72 73 72 69 69 69 73 75 77 80 84 85 83 82 87 90 91 94 96 98 104 104 103
86 88 89 91 93 93 96 95 93 87 82 78 74 74 75 76 71 71 73 72 72 75 75 72 69 67 71 74 78 81 84 85 88 94 97 98 101 101 103 106 103 105 102
98 100 100 101 104 104 103 98 95 95 96 91 87 87 85 81 81 78 78 79 77 74 74 73 70 74 69 70 85 81 87 98 102 103 105 105 105 105 105 105 108 108 108
103 105 108 108 107 106 103 104 105 102 99 97 94 89 70 59 81 78 83 83 78 72 67 83 76 71 64 67 80 88 97 87 100 111 110 111 111 112 108 113 113 112 113
111 112 110 108 105 101 97 93 91 90 89 87 85 83 71 80 79 70 82 86 90 84 80 92 79 68 80 76 97 98 100 91 108 112 119 118 122 124 119 114 116 116 116
104 103 97 96 94 92 88 82 83 87 79 78 77 77 79 79 82 83 90 90 89 91 85 85 86 86 87 92 104 105 109 114 118 122 127 130 123 117 124 119 117 117 122
95 93 90 88 88 86 84 79 79 86 77 75 67 62 71 75 74 72 79 84 79 86 91 88 86 84 87 91 102 104 113 122 128 129 131 127 123 118 120 119 122 125 127
87 86 85 83 82 82 81 78 77 82 80 79 74 77 84 91 87 86 85 78 76 79 85 95 91 96 99 102 109 115 119 125 131 131 126 121 120 122 126 127 129 131 134
81 81 81 81 82 81 80 77 75 77 82 83 83 85 86 87 88 79 77 79 82 88 97 100 103 107 112 118 124 124 125 125 128 125 122 123 126 128 131 133 134 134 135
73 74 74 77 75 78 78 78 78 77 79 83 85 86 88 90 93 90 86 85 86 98 107 113 116 120 121 121 118 120 122 124 124 126 125 127 131 135 135 133 133 134 130
73 74 73 75 71 72 74 74 75 76 78 81 85 88 92 95 98 100 97 97 100 101 101 104 110 113 114 116 120 122 123 124 125 128 130 130 131 129 127 126 121 118 116
72 70 69 69 69 69 70 69 67 70 74 77 83 87 93 97 100 101 103 101 101 104 107 109 113 116 119 121 122 123 124 125 126 125 123 122 120 120 117 115 113 110 107
69 69 67 68 67 65 66 69 68 67 70 72 76 80 85 90 94 98 101 103 104 108 110 111 112 114 114 115 118 119 117 117 117 117 118 116 113 111 108 106 104 103 100
65 65 65 65 66 66 67 67 68 67 68 72 74 76 79 82 86 90 94 97 99 102 106 108 108 107 107 108 109 110 110 111 110 108 108 106 104 103 101 100 98 94 91
59 60 61 62 63 64 65 66 68 69 71 72 74 76 79 81 84 87 89 91 93 95 96 98 99 100 102 103 103 102 102 101 101 101 100 99 99 97 94 91 89 87 85

GFSGL_250_spd_090.txt.gz
Wind_Speed
28 30 30 30 30 23 21 19 21 20 18 17 30 40 41 44 59 62 61 66 67 67 68 68 70 72 73 73 74 73 72 73 77 85 82 76 70 70 64 62 62 63 58
32 31 33 33 32 28 25 26 21 22 22 22 20 20 31 40 45 51 64 69 70 71 70 72 75 76 76 77 78 80 79 75 70 67 66 64 64 64 64 63 62 62 62
33 33 35 36 35 32 30 32 30 25 24 18 20 24 27 27 29 36 46 55 63 64 65 67 75 75 76 74 70 62 60 59 57 56 57 59 60 65 63 63 64 66 67
37 35 37 38 37 34 32 32 30 32 30 28 25 25 28 29 34 37 36 35 40 48 54 56 58 59 60 59 57 60 62 63 63 60 62 64 63 63 64 64 64 63 57
38 38 39 40 39 40 39 39 40 38 36 35 39 36 34 41 39 37 39 43 42 41 39 39 39 41 48 52 54 57 61 64 66 65 65 67 62 58 57 55 53 56 59
42 42 41 41 42 42 41 43 44 44 43 42 47 47 45 48 48 48 49 42 47 51 48 49 48 46 48 49 48 49 49 49 48 47 48 48 48 52 58 58 61 64 64
47 47 44 45 42 42 46 47 47 47 48 51 50 51 49 54 53 53 52 54 49 50 54 54 55 55 57 57 58 58 57 55 55 58 57 56 57 63 67 68 70 72 74
53 53 52 50 49 49 46 46 48 50 50 50 48 51 56 61 58 57 58 55 54 51 57 59 59 61 59 60 60 58 61 62 61 63 65 64 65 67 69 71 75 75 77
56 59 57 59 58 57 54 55 55 52 52 49 55 55 56 56 56 59 64 63 60 55 56 60 62 61 64 65 65 65 66 65 65 68 70 71 71 71 72 73 74 76 79
59 61 60 60 62 59 58 59 61 54 50 55 59 58 61 61 65 67 70 71 67 67 59 61 63 65 71 73 72 71 69 69 69 69 70 72 75 77 78 79 82 85 88
57 58 60 59 60 66 66 54 48 55 64 68 71 69 68 73 70 72 78 79 74 75 68 61 60 65 70 72 72 71 71 73 74 71 71 74 77 81 81 82 82 83 87
65 65 64 65 66 60 60 65 67 72 74 78 81 82 86 87 86 86 86 83 80 80 78 74 74 73 71 73 76 77 78 78 79 75 77 78 83 82 82 84 91 94 99
74 74 65 68 74 73 74 77 80 82 85 86 90 94 95 95 97 93 88 78 67 72 76 76 79 71 72 80 82 81 80 78 77 75 78 82 77 84 91 91 102 104 104
76 75 76 78 80 81 82 86 90 91 94 103 101 99 98 98 97 96 97 96 102 92 97 74 65 81 86 84 85 82 82 75 81 81 83 83 74 76 84 98 107 111 114
84 85 84 84 87 89 92 95 97 100 102 104 104 106 109 107 107 99 115 113 102 94 89 85 81 89 84 86 86 88 85 76 81 86 87 87 87 90 97 102 110 112 115
91 91 92 95 96 100 104 102 106 110 112 114 116 114 112 108 104 100 99 99 100 90 84 80 81 72 86 87 85 85 86 86 86 90 97 95 99 102 102 110 112 118 121
100 102 105 106 108 110 111 113 115 115 112 107 100 98 97 93 90 92 92 92 95 94 86 83 86 87 93 95 94 96 100 99 99 104 106 111 114 111 116 123 120 124 129
109 108 108 110 112 112 110 109 109 103 101 97 94 91 89 88 88 88 89 90 88 89 85 87 97 98 98 101 102 108 113 117 117 110 109 113 110 116 116 120 126 130 135
107 108 109 108 107 104 101 99 98 96 96 96 92 90 88 86 87 86 86 83 86 91 92 90 93 102 112 118 118 116 113 114 109 110 114 115 118 117 119 119 120 125 129
105 104 101 98 96 95 94 93 93 92 92 92 91 89 86 85 85 86 83 81 86 91 95 92 92 91 95 102 101 100 105 108 111 115 116 119 121 121 124 129 131 135 136
96 94 94 93 92 91 89 88 88 88 89 88 89 88 84 83 83 85 86 84 85 88 93 94 96 98 100 101 105 107 108 108 111 112 113 118 121 125 128 129 136 143 143
90 89 88 87 86 85 84 83 83 82 81 80 81 79 78 77 77 78 82 85 86 88 89 93 98 102 105 106 106 106 105 104 105 110 115 119 122 123 125 129 126 126 125
82 82 80 79 75 75 75 73 74 73 73 72 70 71 72 72 72 73 77 81 84 86 87 90 93 94 94 97 97 97 98 100 103 106 110 115 116 114 113 113 114 113 113
78 79 78 78 76 74 73 73 73 73 72 72 73 73 73 73 73 73 75 77 81 82 84 87 89 90 92 93 96 98 99 101 103 104 104 105 106 107 106 105 105 103 100
71 70 71 70 67 66 66 66 68 70 71 71 72 73 74 74 74 75 75 76 78 80 82 84 86 88 90 93 96 97 100 103 105 106 106 103 102 103 102 98 96 96 94
61 61 61 61 62 63 62 62 63 65 66 68 69 70 72 74 75 76 76 77 78 80 82 84 86 88 90 93 95 96 96 97 97 98 99 98 96 94 93 92 91 89 88

GFSGL_250_spd_093.txt.gz
Wind_Speed
31 29 26 25 21 23 23 22 19 16 17 17 15 15 14 18 33 38 42 48 49 53 54 56 58 61 68 73 74 76 77 72 71 79 78 79 79 78 80 80 73 69 68
33 34 28 27 24 24 25 25 24 22 21 15 13 10 10 13 15 17 26 42 48 53 59 62 64 64 66 69 71 72 75 76 75 77 76 77 81 78 73 69 69 68 67
35 37 32 29 29 27 26 27 29 27 25 21 17 14 17 13 11 9 12 16 20 26 31 37 47 57 66 69 70 71 74 75 75 74 66 66 60 60 61 62 65 67 67
39 41 40 34 31 31 31 30 32 33 32 28 29 26 22 29 28 25 23 24 25 27 24 30 37 40 42 43 45 48 53 56 59 60 57 63 64 65 68 70 69 69 70
41 41 40 38 35 33 33 34 35 36 34 34 36 35 32 31 35 36 35 36 32 35 37 37 34 39 44 46 47 50 49 48 46 45 45 48 50 50 53 56 52 56 56
45 41 39 38 39 39 39 37 39 41 42 41 40 41 38 38 40 40 40 43 41 46 43 45 43 36 40 45 49 54 54 54 54 54 53 54 56 58 59 63 64 66 64
45 43 44 44 45 46 46 45 46 45 43 41 41 40 43 45 43 43 39 43 45 47 50 47 45 46 49 49 57 59 57 59 60 61 59 58 58 60 63 66 68 69 71
47 45 47 47 49 48 51 52 53 52 50 53 52 55 53 53 52 45 46 45 46 51 51 52 51 55 63 62 64 60 59 62 62 62 62 61 64 66 68 68 70 72 74
51 51 51 52 50 50 53 57 59 59 60 61 61 60 61 57 60 59 55 53 54 55 56 65 61 65 65 67 70 74 69 63 58 62 68 70 69 69 71 73 74 76 78
56 59 59 57 53 52 54 58 62 64 63 61 63 62 64 65 66 62 62 65 63 66 68 67 69 74 68 69 71 67 67 67 66 68 74 73 70 71 72 74 77 80 78
59 60 61 58 57 56 56 58 60 63 62 65 64 66 71 67 62 61 69 72 75 75 77 75 76 75 68 75 81 72 76 68 71 78 81 71 71 74 77 77 79 80 83
69 65 67 64 63 60 59 59 62 65 65 68 70 70 71 60 63 71 75 80 80 83 82 82 82 60 84 90 77 72 85 81 85 84 88 77 75 77 78 81 83 84 80
67 67 68 70 70 72 68 67 69 69 70 70 70 75 74 72 77 80 84 89 92 94 90 87 92 87 87 88 91 87 93 74 97 83 86 86 88 73 93 90 88 91 87
72 71 70 70 72 71 73 76 78 76 75 74 74 79 85 86 89 92 95 96 98 101 99 100 98 94 94 103 100 97 94 86 83 75 77 95 96 100 96 97 89 91 95
79 78 77 78 78 77 78 80 77 77 79 81 83 87 90 96 96 98 103 107 108 106 106 106 109 109 115 116 119 117 111 105 95 103 103 100 102 94 100 104 105 102 99
86 86 86 87 86 89 90 86 84 84 86 91 94 95 98 102 104 107 109 112 115 117 119 120 120 121 112 106 110 111 111 108 107 101 99 97 101 98 110 110 117 112 110
91 91 89 90 91 90 87 88 90 95 100 100 103 106 108 110 113 115 118 121 123 122 118 111 107 103 103 101 102 103 109 110 108 103 103 102 100 108 116 123 122 118 120
94 93 92 92 93 95 99 103 104 107 109 110 113 117 118 118 117 114 112 109 106 105 103 99 97 96 97 98 96 98 100 105 109 111 109 111 110 116 119 123 125 127 125
99 100 101 103 106 108 109 112 113 115 118 120 120 117 115 112 108 104 102 100 99 98 97 96 94 92 91 93 95 96 100 102 109 113 115 113 118 121 126 129 133 134 133
105 108 110 112 114 114 115 114 114 114 114 112 110 107 103 101 100 100 98 98 97 96 92 90 89 88 88 89 92 94 95 99 103 108 108 108 112 114 121 127 128 131 132
105 106 108 110 110 109 110 110 107 104 100 99 98 98 96 97 96 93 91 91 92 89 87 83 83 83 84 85 88 90 93 96 101 104 104 104 105 108 112 112 117 121 124
101 101 102 102 101 99 99 98 98 96 94 93 93 89 85 84 82 79 80 80 80 80 79 78 77 79 82 82 83 84 87 91 96 99 102 103 104 105 105 107 109 110 110
93 93 93 93 93 95 96 95 94 91 86 83 82 82 81 80 80 79 78 78 78 78 79 79 77 76 77 81 83 84 85 86 88 91 94 97 99 102 102 100 101 104 104
90 89 90 90 90 90 88 87 86 85 83 79 76 74 74 74 73 74 76 77 78 78 78 80 80 79 79 79 80 82 85 87 88 89 89 90 90 92 94 95 95 95 96
84 83 82 81 82 83 83 81 78 76 74 72 71 69 68 69 71 71 72 73 74 76 76 78 79 80 81 82 83 82 83 85 87 88 89 89 89 90 90 91 92 92 91
76 75 75 73 72 72 71 70 71 71 72 71 70 69 69 69 68 68 69 70 71 71 73 74 75 77 78 79 79 80 81 82 83 83 85 87 88 88 87 87 86 85 85

GFSGL_250_spd_096.txt.gz
Wind_Speed
31 32 31 32 29 23 20 19 17 16 18 18 17 11 6 6 13 22 26 28 31 36 37 42 45 49 52 54 56 58 60 63 67 73 76 78 78 76 77 77 80 79 76
36 35 33 32 32 29 23 23 22 20 20 21 18 13 11 9 10 14 18 23 26 29 36 43 48 51 53 56 56 59 59 58 56 62 69 70 71 74 76 73 66 63 61
35 35 36 36 33 32 28 28 26 24 22 24 22 20 14 12 14 9 8 10 14 17 16 17 20 25 29 32 35 38 43 49 53 54 57 60 61 61 60 60 62 64 64
41 44 41 39 34 33 35 34 31 28 27 27 28 27 25 25 24 25 26 20 24 26 25 27 21 24 22 23 28 33 39 41 42 43 46 50 50 51 52 52 51 51 51
41 45 45 43 40 38 39 39 36 33 32 33 34 33 32 33 32 29 29 29 25 29 30 31 33 36 32 31 29 32 32 32 36 39 36 46 55 56 58 59 56 60 59
47 46 46 44 44 42 40 40 39 37 36 36 38 39 40 39 37 35 31 32 34 34 34 35 36 40 39 40 36 38 36 44 48 46 46 50 51 58 63 63 61 62 61
48 48 46 43 45 46 44 45 44 42 42 40 42 43 44 44 42 39 40 43 43 41 45 40 43 42 45 46 45 47 49 53 54 50 49 53 57 54 58 62 63 63 64
50 48 48 49 51 51 51 49 48 48 46 46 47 47 47 49 46 46 48 49 48 49 52 52 53 51 49 49 55 57 59 57 62 58 57 54 53 59 58 60 61 62 63
50 50 52 53 52 53 54 53 51 52 53 52 52 51 51 53 53 56 58 54 54 52 58 61 63 60 55 61 62 59 61 61 63 66 63 62 64 68 62 63 67 69 72
53 53 54 52 52 55 57 57 56 58 57 55 53 54 55 58 59 60 61 59 59 61 62 60 60 60 62 67 72 71 67 71 73 67 67 68 72 65 64 77 82 85 88
59 59 57 58 57 60 62 62 62 61 63 59 56 57 59 61 60 62 66 66 65 69 69 70 66 63 68 73 77 79 76 77 67 79 69 80 87 84 77 77 81 89 81
64 64 65 64 64 64 66 67 69 69 69 70 66 63 61 63 66 66 67 70 70 70 71 73 73 69 74 76 70 77 89 87 79 81 80 86 90 99 92 86 82 93 87
68 69 71 69 70 73 74 75 77 78 78 71 71 72 73 73 73 73 76 76 76 74 73 78 79 79 84 83 86 92 96 96 94 91 90 92 102 103 102 100 104 99 98
76 74 73 74 75 76 77 82 83 79 76 78 78 75 73 76 78 80 80 82 82 80 80 81 86 91 92 94 100 104 109 109 106 106 106 108 108 116 119 121 118 112 104
78 79 80 81 83 84 84 83 83 82 83 85 83 82 83 84 85 87 89 88 85 84 84 89 94 95 99 102 106 109 112 116 117 115 116 117 124 125 129 129 119 113 109
90 90 90 91 92 90 89 87 85 87 88 88 90 89 92 93 94 95 98 90 90 91 94 99 102 106 110 113 116 117 120 124 126 126 127 128 124 121 121 119 117 114 113
94 95 95 95 93 90 92 92 92 91 90 91 92 93 94 97 100 95 98 98 101 105 108 112 113 114 117 122 125 127 127 127 125 121 116 112 109 108 108 110 115 118 120
97 97 98 97 96 96 96 97 97 98 98 99 103 105 103 104 103 103 105 107 111 115 116 117 119 121 121 122 122 121 118 116 112 110 108 105 103 103 105 108 110 112 113
101 102 103 104 104 104 104 103 104 105 108 108 105 104 105 107 110 112 114 115 116 117 116 115 116 114 111 109 110 109 108 108 106 103 101 99 98 99 100 104 106 108 110
108 109 110 111 112 110 109 113 109 107 105 104 105 106 109 111 111 112 115 115 115 112 109 108 108 109 107 105 103 101 100 97 95 92 91 91 91 92 95 99 101 103 106
111 111 113 115 114 111 108 106 105 104 104 106 108 108 109 112 113 110 108 106 105 105 104 102 98 95 90 89 90 90 89 87 85 84 84 85 86 87 88 91 94 98 101
102 103 103 104 103 102 102 102 104 105 105 106 108 108 106 105 104 104 103 100 95 91 89 90 89 87 86 86 87 88 87 85 84 82 81 81 81 82 83 85 86 89 92
96 96 96 97 97 99 100 101 103 104 103 100 99 100 101 102 101 98 95 91 89 85 82 80 80 80 80 80 80 81 83 84 84 84 83 82 83 83 84 85 86 86 87
93 94 95 95 96 97 98 98 97 98 98 97 96 95 95 93 92 91 87 83 81 79 79 79 79 78 77 77 77 78 78 79 80 80 81 81 82 83 84 85 86 87 88
89 90 91 92 92 93 93 92 93 93 92 90 88 87 86 85 83 82 80 80 81 80 80 80 80 79 79 78 76 76 76 76 77 79 80 81 81 82 83 83 84 84 85
84 85 85 86 86 86 86 85 85 84 83 83 82 81 81 81 81 81 82 82 82 81 81 80 79 78 78 78 78 78 78 78 78 78 79 79 79 79 79 79 79 78 77

GFSGL_250_spd_099.txt.gz
Wind_Speed
41 39 37 34 31 30 28 25 23 19 16 15 14 17 16 13 10 20 27 33 37 38 42 47 48 49 50 50 49 49 48 49 52 53 57 59 63 65 65 66 68 69 70
40 42 42 38 32 28 29 32 28 26 20 20 20 16 15 15 15 15 14 16 20 26 29 34 37 43 46 46 48 46 48 50 53 60 60 62 64 67 68 66 65 65 66
41 44 44 41 35 31 31 33 33 32 27 24 23 23 21 18 16 13 16 19 19 19 21 25 28 29 32 33 34 33 33 32 37 42 44 44 43 39 41 45 51 52 52
44 43 43 40 37 37 37 36 33 31 32 31 29 28 27 26 22 23 23 23 25 25 27 27 27 27 26 28 27 29 28 21 24 22 23 29 32 40 35 38 37 38 44
47 45 44 44 42 41 40 40 41 38 36 37 35 35 32 32 29 29 29 30 30 33 35 35 35 34 36 34 37 40 37 32 35 33 32 35 38 39 41 45 46 42 43
46 44 44 47 49 51 50 47 46 46 44 41 41 40 40 37 36 36 35 36 36 38 38 39 39 39 44 43 44 47 48 42 38 44 43 43 45 48 53 50 52 51 54
50 51 50 54 55 57 52 46 45 44 43 45 45 45 44 44 44 42 42 42 42 43 44 44 45 47 47 45 47 49 49 55 53 52 47 50 46 51 51 55 59 60 58
57 58 60 60 61 58 52 50 49 49 49 49 50 51 51 48 51 50 49 48 48 49 51 50 48 50 50 52 51 53 58 60 59 62 59 57 57 59 59 61 62 63 65
54 57 61 60 59 56 53 51 50 52 52 53 54 53 56 54 54 55 55 54 55 55 55 54 52 51 54 53 56 58 60 60 61 66 70 67 65 67 71 69 71 71 68
57 62 60 56 56 57 56 57 57 56 57 56 55 54 56 56 57 59 60 61 60 59 58 56 55 54 56 59 59 61 64 69 65 67 71 72 75 75 74 76 80 77 84
63 63 59 59 61 62 61 62 62 62 60 59 59 60 61 61 61 62 63 65 66 68 65 61 60 62 63 65 66 67 68 72 72 73 71 74 80 82 86 90 88 87 89
65 68 69 69 69 70 68 67 68 66 65 66 63 65 66 67 67 68 70 72 74 72 68 71 74 73 74 76 75 76 78 80 77 79 84 87 89 92 97 95 95 94 93
63 73 73 74 73 72 72 73 71 73 72 70 73 72 73 73 74 76 77 80 79 76 76 76 76 77 79 82 84 83 83 86 85 84 88 95 98 100 102 101 99 103 109
70 80 77 79 80 78 78 80 80 78 76 77 78 78 79 79 81 82 81 82 82 83 86 85 86 86 85 85 88 90 93 91 90 90 88 90 95 100 105 111 115 115 118
81 85 88 87 85 84 84 84 82 84 85 84 87 88 86 86 84 85 86 87 85 86 90 92 93 92 92 95 94 94 98 98 98 98 101 104 105 108 112 117 121 124 125
88 88 87 87 90 90 85 86 89 92 92 92 90 89 89 89 91 93 95 91 93 95 96 94 95 96 96 100 103 103 104 104 104 107 110 113 117 120 123 124 126 126 127
84 85 88 86 89 91 93 95 96 94 95 94 95 97 99 101 101 100 99 98 99 98 100 100 103 104 110 109 106 107 108 109 112 114 118 120 123 124 124 124 123 122 119
93 93 96 97 97 98 98 100 100 102 102 102 104 105 106 105 104 104 105 104 104 106 108 110 115 112 110 109 109 110 112 114 117 119 119 116 116 114 113 113 114 114 114
105 104 104 104 104 105 106 107 107 108 109 110 110 110 111 109 109 110 112 114 117 115 117 114 112 111 111 112 113 113 113 112 110 110 109 108 109 108 108 108 107 107 105
102 105 109 111 110 109 111 112 113 111 110 110 110 112 115 115 115 118 122 120 123 119 114 113 113 114 114 113 111 108 106 107 107 106 102 100 99 99 98 99 99 98 96
99 103 108 110 110 113 116 117 118 118 117 117 118 120 123 122 121 124 126 119 115 114 114 112 112 110 108 105 105 104 101 99 98 98 95 92 90 90 90 90 90 91 91
107 108 108 110 113 115 116 115 115 116 117 118 120 123 123 119 116 116 115 114 113 111 108 105 105 105 104 102 100 97 95 92 88 87 85 85 85 84 85 84 83 83 84
105 107 110 113 114 115 117 116 115 113 113 113 113 114 114 114 113 112 109 106 104 103 101 101 100 100 99 96 94 90 87 85 84 85 85 85 84 84 83 82 82 81 80
97 100 102 103 104 104 106 106 107 107 106 106 105 105 105 104 103 101 100 98 98 98 97 96 96 94 93 90 88 87 86 85 84 82 81 81 80 79 77 77 77 78 79
88 90 91 93 94 96 97 98 98 98 98 98 98 98 98 97 97 97 97 96 96 95 94 93 91 89 88 87 85 83 81 81 81 80 78 77 76 75 74 74 74 74 73
84 85 86 87 88 89 90 91 92 93 94 94 94 95 95 95 94 94 94 93 91 89 88 88 87 85 83 82 81 80 79 79 78 77 76 75 75 74 74 74 74 74 74

GFSGL_250_spd_102.txt.gz
Wind_Speed
54 51 51 47 43 40 38 35 31 25 23 22 19 17 18 16 14 14 21 30 39 51 60 69 66 62 56 57 55 56 58 60 59 64 61 59 55 56 55 55 59 64 64
53 50 50 47 46 42 40 39 37 33 30 26 23 22 21 20 19 16 16 19 31 35 41 49 52 52 53 56 55 55 59 60 60 63 59 57 57 59 61 63 65 63 60
50 48 50 48 47 43 41 39 34 31 32 31 29 24 25 25 22 20 20 18 20 24 32 38 44 48 49 49 52 55 55 57 57 55 55 52 51 53 53 51 49 39 31
47 45 49 49 47 44 43 42 38 35 34 32 30 33 30 31 29 28 26 28 25 24 23 25 28 33 36 37 39 41 44 42 39 37 40 40 36 41 39 39 35 39 41
46 50 51 48 46 45 45 45 41 39 39 40 37 37 35 38 34 34 34 32 34 34 35 37 37 39 40 40 42 42 41 41 43 41 46 45 48 49 47 50 49 48 50
48 46 52 51 49 48 48 49 48 47 46 44 43 44 45 41 42 40 40 41 40 39 40 41 41 43 45 45 46 47 48 47 49 48 52 53 56 60 55 59 59 59 55
48 49 52 50 52 50 52 53 52 52 52 52 49 48 47 46 48 46 45 45 46 46 46 47 47 47 47 48 49 51 52 55 54 53 53 54 56 59 62 67 69 69 67
50 50 52 50 49 47 49 53 60 61 57 56 53 51 50 54 53 51 49 50 52 52 50 50 51 52 54 56 57 59 62 63 61 62 60 59 61 62 66 65 67 73 78
52 54 52 57 57 57 61 64 65 64 61 57 56 54 55 55 56 55 53 53 55 58 55 53 54 55 55 58 59 61 64 68 66 66 65 64 65 65 68 71 73 74 75
54 54 58 61 60 62 65 66 66 64 64 63 59 58 58 57 59 60 60 58 59 59 61 60 60 60 58 57 60 61 66 70 69 68 67 71 71 73 74 74 76 79 82
56 50 53 52 60 63 66 64 64 65 66 65 63 63 64 62 61 65 67 66 65 64 63 63 64 65 65 66 67 71 72 71 71 72 72 76 80 78 82 82 83 85 85
58 59 56 59 61 63 61 63 68 66 66 68 66 67 67 68 71 71 71 71 69 68 69 68 67 70 72 72 74 77 78 82 81 82 86 87 86 86 87 90 90 93 96
67 71 75 65 70 68 69 71 74 73 72 74 75 75 75 74 75 76 76 76 76 76 75 75 75 78 80 82 79 80 80 82 87 89 91 92 93 95 96 99 100 102 102
74 76 76 71 73 71 73 78 79 81 82 83 82 82 83 82 83 84 85 85 86 84 84 84 84 87 87 87 88 86 86 88 87 89 94 99 100 101 100 101 103 105 108
77 79 84 85 83 81 84 86 89 89 87 92 92 90 90 89 91 92 92 93 93 93 94 92 92 94 94 92 91 91 91 92 91 94 95 96 100 105 107 112 115 118 118
82 83 85 86 86 87 88 93 90 90 92 99 96 95 95 96 96 97 96 95 96 97 99 102 102 98 94 95 98 99 99 99 102 101 102 107 112 115 119 125 123 123 124
87 87 86 87 92 91 93 95 97 99 98 101 105 103 102 99 99 102 102 102 104 105 104 101 101 102 103 105 106 106 107 108 108 109 114 120 119 127 125 121 121 122 124
97 98 97 95 96 96 96 95 101 102 105 106 107 109 108 108 104 102 103 107 109 107 107 109 109 109 110 110 110 112 112 113 116 123 123 125 126 119 118 119 119 119 117
100 102 104 104 105 108 109 111 109 109 110 110 111 112 111 109 108 108 109 111 115 115 115 116 118 117 116 116 117 118 121 124 122 126 122 119 118 117 115 114 112 110 109
107 106 105 105 105 106 107 110 112 112 113 114 115 115 116 117 116 117 118 119 122 123 125 122 121 119 120 121 123 122 126 128 121 118 118 117 115 113 111 108 104 100 99
106 105 107 107 108 110 112 114 115 114 114 114 117 120 123 124 125 124 122 123 122 121 123 124 122 122 124 128 125 120 118 118 118 115 113 113 109 105 102 99 94 90 89
117 116 115 114 115 116 116 115 115 114 113 113 114 115 114 114 115 117 120 120 121 122 123 125 127 124 119 119 118 117 116 114 112 109 106 104 100 97 93 90 88 86 83
103 106 109 111 113 116 118 119 119 118 119 119 119 119 119 120 121 121 120 120 120 118 117 116 116 116 116 115 113 112 109 105 103 102 99 96 92 89 87 84 81 79 77
97 98 99 100 102 102 104 105 106 108 109 109 110 110 111 112 113 113 113 113 114 115 115 115 114 113 111 108 106 103 102 100 98 95 90 88 86 83 80 78 77 76 76
92 94 96 97 98 100 101 102 103 104 106 106 107 107 108 109 109 110 110 110 110 110 109 108 106 104 102 101 100 98 96 92 90 87 84 81 80 79 78 78 78 78 78
86 88 89 90 92 93 94 96 97 98 99 100 101 102 102 103 103 103 103 103 102 102 102 101 99 98 96 94 92 90 87 84 83 82 81 80 79 78 77 76 75 75 74

GFSGL_250_spd_105.txt.gz
Wind_Speed
64 56 51 44 47 50 51 48 42 38 33 27 21 17 14 13 14 15 19 30 51 68 76 70 67 74 80 82 82 82 84 85 83 83 79 79 75 72 70 70 69 68 65
48 47 46 43 49 54 51 48 45 41 36 31 26 22 22 22 20 20 19 20 23 30 40 58 79 78 68 67 64 65 70 70 71 73 73 71 70 69 71 70 70 69 70
44 43 40 48 50 49 52 50 47 44 42 38 36 30 29 27 26 26 26 25 24 22 25 28 32 38 46 53 58 60 57 59 58 58 64 64 63 65 65 64 63 60 59
38 36 44 47 45 52 54 52 49 46 44 42 37 34 31 33 32 31 30 30 29 30 29 27 28 31 36 41 48 53 57 59 59 57 55 55 51 51 52 49 48 49 50
38 42 46 43 48 55 55 51 49 48 45 43 41 37 36 35 34 35 35 37 35 33 33 35 34 34 35 37 41 43 45 45 46 48 49 49 51 51 52 54 52 57 56
43 48 47 44 47 53 53 51 50 49 47 43 43 41 38 39 43 44 44 44 42 41 39 39 42 42 42 44 47 48 50 53 55 54 56 59 61 61 62 65 65 66 67
47 49 49 45 50 53 54 51 50 49 47 49 50 49 49 49 48 48 47 48 50 50 48 48 47 48 45 46 46 48 49 49 51 51 55 58 60 63 66 69 70 70 71
45 49 48 44 47 51 55 54 53 51 47 43 53 50 53 55 54 53 51 52 55 56 55 52 51 50 51 52 53 53 52 53 53 54 58 58 61 64 68 71 75 77 77
41 41 43 48 49 49 52 54 53 53 57 61 61 60 60 61 59 59 60 58 58 58 56 55 55 54 55 57 58 59 59 58 58 58 59 59 59 62 64 70 72 73 75
43 43 47 46 50 53 55 52 50 52 54 58 59 64 63 66 67 63 63 61 61 61 61 61 60 61 61 62 62 63 63 64 65 65 67 67 68 70 71 71 70 75 79
48 58 49 58 53 56 59 61 62 63 68 68 70 71 70 70 69 67 68 66 65 65 65 65 67 67 65 66 68 69 71 71 71 71 70 74 76 80 81 79 78 81 83
40 46 58 58 60 63 60 61 64 67 68 70 68 71 71 73 74 74 72 69 68 69 69 69 69 71 74 75 75 76 78 77 76 76 78 81 82 84 83 85 86 86 89
55 58 59 53 56 67 62 62 63 59 67 70 67 67 70 72 76 74 72 71 74 77 77 78 78 79 80 81 81 81 83 84 84 86 85 87 88 88 91 94 92 91 93
58 67 72 71 66 63 75 71 69 70 71 75 79 76 79 77 80 80 81 81 82 83 83 85 85 84 83 85 87 87 90 92 95 92 93 97 98 99 100 99 99 98 100
75 75 76 75 71 77 79 78 79 75 77 75 76 87 85 87 88 85 87 88 88 91 91 92 94 94 94 93 95 95 99 102 104 105 104 105 106 107 105 102 105 106 106
87 84 85 83 85 86 87 86 89 89 81 86 88 91 89 90 94 95 95 98 101 98 99 100 100 105 104 103 103 105 108 107 111 111 112 114 112 112 110 112 114 115 114
92 95 96 93 92 90 94 93 94 95 98 96 94 95 96 99 99 99 102 103 105 107 107 109 108 107 106 110 111 113 108 115 110 113 118 117 118 119 122 124 119 117 117
96 97 96 96 99 99 100 98 99 102 104 105 105 107 107 106 104 107 108 107 110 109 111 113 114 115 115 116 117 118 117 115 115 115 117 121 123 127 127 122 122 121 123
107 105 103 104 105 103 106 106 106 105 106 108 109 108 108 110 110 112 114 113 115 114 116 117 119 122 125 128 124 120 120 121 122 124 126 128 126 121 121 121 124 127 122
114 113 113 112 112 112 112 112 111 110 110 111 113 115 117 117 117 117 119 121 122 121 122 125 128 130 126 125 125 125 123 122 121 119 120 121 122 122 124 123 120 118 115
108 114 119 119 120 120 120 119 119 118 118 117 118 119 119 120 123 124 125 126 128 132 134 132 128 127 125 124 122 121 122 122 124 124 123 123 121 119 118 116 113 111 110
104 106 109 114 118 120 123 123 125 128 127 126 127 127 128 127 127 129 131 130 128 128 130 129 127 127 126 127 126 127 124 123 122 121 119 118 117 114 112 110 108 107 105
100 105 106 104 106 109 114 116 119 123 125 126 127 128 128 128 128 127 124 125 126 126 127 129 129 127 124 124 124 123 121 119 118 116 113 112 112 110 107 106 106 102 98
91 93 96 98 104 107 108 110 113 116 119 120 121 122 123 124 124 125 125 125 124 123 122 124 125 123 121 121 119 117 114 112 112 112 111 109 108 105 103 100 95 92 88
91 92 92 93 93 96 98 99 100 100 102 104 106 108 111 113 114 115 116 117 118 118 117 116 115 114 112 112 113 113 112 109 107 107 105 103 99 96 93 90 88 87 87
86 88 89 90 90 91 92 93 94 95 96 97 98 100 102 103 105 106 106 106 107 107 108 109 110 109 108 107 106 106 104 103 101 97 94 92 89 88 87 86 84 82 81

GFSGL_250_spd_108.txt.gz
Wind_Speed
81 84 81 75 68 58 57 50 38 41 45 44 38 30 24 19 15 14 12 13 29 54 55 57 55 59 62 63 65 65 68 68 68 70 72 73 76 79 81 82 81 79 75
86 83 74 60 58 55 52 40 41 43 49 46 41 34 29 24 21 19 18 17 17 19 30 52 65 59 63 64 67 73 77 77 77 74 79 77 79 75 76 74 71 66 65
77 69 64 59 56 50 41 39 43 49 51 48 43 37 34 29 26 26 27 25 23 21 21 20 20 28 42 60 76 72 57 55 68 78 72 69 69 66 58 58 63 59 52
62 58 52 44 42 39 41 40 43 51 52 50 44 42 41 37 33 34 34 32 28 27 26 26 23 23 24 24 27 31 36 41 43 44 47 50 55 59 60 55 48 55 54
48 40 39 40 41 41 39 40 45 53 52 50 47 46 44 43 42 41 38 35 32 31 32 33 30 31 32 32 32 31 31 34 38 44 49 51 52 53 54 55 56 61 61
36 38 38 38 40 38 43 43 48 52 53 51 49 46 45 47 45 45 42 39 37 36 36 40 40 40 40 40 39 40 41 39 39 42 46 50 50 50 52 52 53 54 56
33 35 36 36 39 45 41 43 49 51 51 52 52 50 50 50 48 47 45 42 42 42 45 46 45 47 47 46 46 46 47 46 48 48 50 49 52 54 54 56 56 56 59
27 33 34 38 45 43 44 46 49 51 50 52 53 52 51 52 52 51 51 50 50 51 51 48 47 49 51 53 52 52 52 53 53 55 55 54 55 58 59 60 61 63 63
23 30 32 41 39 44 48 48 52 54 52 49 49 46 51 53 52 53 54 54 51 52 53 54 54 55 58 59 55 56 56 58 60 60 59 59 59 60 62 63 65 66 67
32 33 37 39 42 42 46 49 52 53 54 54 53 53 55 56 58 57 58 58 58 62 63 62 61 61 61 61 61 61 62 64 64 65 65 62 64 65 69 72 73 74 75
30 39 39 36 40 46 43 46 54 54 54 54 55 57 56 60 65 65 65 68 68 69 69 67 65 61 63 68 65 65 68 68 70 70 70 70 71 73 74 78 79 78 79
48 45 49 39 49 36 46 51 53 58 60 61 63 60 60 64 68 68 71 69 69 70 72 74 74 72 70 69 70 68 72 74 74 75 76 77 81 82 82 82 84 86 87
51 44 54 56 55 55 55 54 65 59 60 67 69 66 66 72 74 77 76 67 69 73 76 74 73 75 76 70 72 75 78 80 82 85 84 84 86 88 87 91 92 94 97
49 53 53 51 66 62 65 66 76 66 72 73 71 73 73 74 73 74 75 71 79 76 75 78 82 79 79 77 78 79 82 86 88 88 91 94 94 92 96 97 102 105 108
64 59 72 69 67 67 67 66 70 76 79 76 72 75 75 79 78 82 83 85 79 84 85 84 85 88 89 90 90 93 92 91 93 98 100 101 102 105 108 109 108 107 111
84 73 76 81 74 78 76 75 79 82 77 79 77 83 75 82 81 85 88 84 87 91 94 93 93 97 99 99 99 101 101 105 107 107 107 108 110 111 111 112 113 116 119
86 85 85 85 92 83 81 85 78 86 91 89 91 91 85 86 88 92 94 96 97 96 95 98 102 104 103 105 103 104 109 110 111 113 111 114 115 117 119 121 121 122 129
98 97 96 94 92 91 100 91 90 92 93 99 98 100 98 95 99 100 103 99 104 104 105 105 104 107 109 109 112 115 115 115 116 118 121 124 124 127 129 129 130 136 130
112 107 108 104 105 102 102 104 102 101 103 107 108 104 105 104 104 105 110 113 113 114 114 115 118 118 119 121 121 122 121 120 123 127 128 130 131 132 134 136 139 137 135
118 116 116 115 113 113 111 112 114 113 112 112 111 111 111 112 112 117 120 120 120 121 122 124 126 126 125 126 127 129 130 131 131 131 133 135 137 139 140 142 139 133 129
116 120 121 124 123 122 117 119 122 122 121 121 124 121 121 122 124 125 125 125 127 127 128 129 130 131 131 133 134 135 135 134 134 138 139 141 138 139 143 134 128 126 128
91 97 113 121 122 130 128 127 129 127 129 131 134 134 132 131 134 134 134 132 133 133 134 133 135 138 137 135 134 136 138 141 143 141 141 145 142 133 128 128 125 119 117
87 89 93 92 108 124 127 125 132 128 130 134 137 135 135 133 130 130 134 136 137 139 140 140 138 139 140 142 145 144 143 144 145 142 133 130 130 127 122 120 118 113 109
84 86 87 89 92 95 96 97 99 103 106 110 116 120 123 126 129 133 132 134 135 135 136 137 139 140 140 140 139 140 135 129 129 130 127 121 120 118 114 110 108 106 102
81 83 84 85 86 88 90 93 94 96 97 99 101 104 106 109 112 115 119 123 125 125 125 128 128 125 122 118 120 122 121 118 116 116 117 114 109 108 107 102 100 98 96
73 74 77 81 84 86 87 88 88 88 89 91 93 94 95 96 98 99 101 101 103 105 107 108 109 109 110 109 111 112 112 111 109 106 105 104 101 99 97 95 93 92 90

GFSGL_250_spd_111.txt.gz
Wind_Speed
68 69 72 74 67 63 62 64 61 57 52 43 42 39 38 36 32 25 22 17 16 29 49 47 42 42 42 42 44 47 50 52 57 62 64 66 67 67 70 69 67 69 73
67 65 66 64 61 58 59 63 65 59 51 47 43 41 42 40 33 27 24 21 17 16 23 51 51 44 45 46 52 53 54 58 58 60 65 67 68 71 69 70 72 77 73
69 67 63 62 63 58 61 63 60 55 54 51 44 42 47 45 40 33 31 28 25 21 17 18 19 34 46 54 46 39 51 55 60 70 72 72 76 72 70 68 71 71 60
66 66 67 66 62 55 59 69 67 60 53 54 45 44 51 49 45 38 36 34 30 27 24 22 21 23 23 26 27 28 27 29 31 34 38 41 45 46 44 45 49 52 53
70 69 69 68 64 60 63 67 60 59 52 52 47 45 53 51 50 44 40 38 34 32 29 29 29 29 31 28 27 26 26 28 31 32 32 32 35 38 41 44 47 49 50
64 63 60 59 59 50 43 43 48 49 50 50 46 46 54 54 52 49 45 43 42 40 39 33 34 36 36 37 37 35 35 36 36 37 39 42 41 44 44 45 47 50 52
53 52 48 46 45 36 46 44 44 47 50 52 47 49 56 55 53 52 50 48 47 46 42 43 41 42 44 45 44 43 43 43 43 43 45 46 48 50 51 53 56 56 58
36 34 37 39 41 37 40 42 50 48 52 53 50 51 56 55 55 54 52 51 51 50 50 49 48 48 48 48 48 49 51 49 48 48 50 51 53 56 55 57 60 61 60
23 18 25 29 34 36 49 52 50 59 54 52 49 50 52 56 56 56 55 55 55 55 55 52 52 53 54 53 53 51 52 55 57 57 56 56 56 58 61 62 63 63 65
24 25 27 23 28 38 45 47 51 55 52 48 51 53 53 53 55 57 59 59 57 58 58 58 58 60 57 54 55 56 56 61 61 58 57 58 59 61 64 67 68 69 67
33 36 31 31 29 32 43 45 44 45 49 54 56 55 55 57 56 57 60 61 62 61 61 61 59 58 61 63 66 67 66 66 68 66 64 67 65 67 69 68 69 71 72
49 46 41 40 34 35 45 40 38 42 44 49 50 53 57 59 61 60 61 64 66 63 64 65 63 65 68 68 66 68 69 71 77 77 76 73 75 71 72 73 74 75 78
64 54 50 44 40 39 51 48 50 54 55 53 51 50 55 56 62 64 66 66 69 69 69 69 67 68 67 71 74 77 76 74 75 76 77 77 71 73 71 74 79 85 86
66 62 58 56 59 54 57 61 59 62 61 61 62 65 70 68 68 68 71 72 73 74 75 75 75 75 75 79 76 78 79 81 82 80 77 80 84 83 85 89 89 91 92
77 70 70 65 70 63 62 69 61 63 69 68 65 68 72 80 73 77 74 77 79 80 81 80 75 77 75 74 79 76 82 82 85 86 86 89 90 91 93 94 97 101 105
82 80 74 69 72 71 71 73 75 73 76 76 74 73 79 80 83 83 78 84 86 83 84 84 88 86 82 87 88 86 91 92 95 98 102 99 98 99 102 105 105 105 107
90 92 91 87 80 83 80 80 86 84 83 84 80 82 78 85 92 92 99 90 93 90 88 88 90 90 90 89 90 94 96 96 96 103 110 106 109 110 110 111 112 115 119
98 98 96 98 93 88 88 86 87 90 91 97 95 94 94 93 97 98 102 95 96 95 96 96 92 98 95 99 101 103 105 108 112 114 115 115 115 117 118 120 123 127 130
103 103 106 103 104 100 97 98 95 98 96 96 99 100 105 105 106 105 100 104 104 107 104 105 103 108 105 105 106 107 109 112 114 115 119 122 123 124 127 129 132 134 135
98 110 111 110 113 112 110 105 106 103 102 103 107 105 103 107 112 111 109 110 112 113 110 114 114 114 113 115 117 118 119 123 125 125 123 125 126 128 133 136 138 141 142
76 102 109 115 115 120 123 119 116 116 114 113 115 118 117 115 117 120 120 116 114 121 120 118 122 122 128 127 127 129 129 130 128 130 132 136 137 136 140 143 145 146 145
78 81 85 113 120 121 125 122 125 125 122 125 122 125 126 126 123 124 127 128 128 125 127 128 126 127 129 134 137 135 133 134 135 136 140 143 144 147 151 149 148 147 150
78 82 83 85 91 106 121 122 129 134 133 129 129 133 132 132 134 132 129 133 135 135 136 135 137 137 138 139 140 140 140 140 141 144 147 149 146 144 144 146 146 146 148
75 78 82 83 85 87 93 97 120 121 132 137 136 134 135 135 136 136 139 137 139 142 142 144 145 145 144 145 149 147 149 150 151 152 153 146 146 146 144 146 144 134 133
70 72 74 77 79 81 83 85 88 92 104 116 117 120 128 132 134 139 145 144 145 146 147 150 146 148 147 149 151 152 147 147 148 142 133 132 133 130 125 124 124 120 118
67 68 70 71 73 75 77 80 81 82 85 88 92 95 97 100 103 104 108 117 126 133 135 137 138 138 140 145 142 133 126 121 119 118 117 117 116 116 115 114 112 108 105

GFSGL_250_spd_114.txt.gz
Wind_Speed
69 69 65 65 67 67 63 61 61 56 54 54 54 49 50 48 42 36 37 36 33 27 28 28 41 43 43 40 38 41 45 44 43 46 51 51 51 53 55 58 60 62 67
67 70 67 64 62 58 56 60 58 57 56 59 55 53 52 50 44 40 40 38 35 29 26 22 32 42 45 42 44 44 46 45 44 42 46 50 52 55 58 61 63 63 68
69 69 64 62 61 54 59 57 59 57 53 56 57 56 57 53 47 42 44 42 38 31 28 24 19 27 40 45 47 48 48 48 50 47 51 54 56 59 60 62 66 69 71
68 66 62 60 56 58 52 52 51 50 55 60 63 62 60 56 52 46 49 47 42 36 31 28 25 23 23 28 34 39 42 45 50 53 56 61 60 60 57 54 51 48 45
65 63 64 64 62 61 62 64 61 56 60 62 65 65 65 63 57 50 53 52 47 42 38 35 33 31 30 29 29 29 31 31 31 32 32 33 34 35 35 35 36 38 40
62 62 61 59 57 57 59 58 56 57 63 68 73 71 71 70 64 53 57 57 51 48 44 41 39 35 34 34 35 35 38 37 35 35 35 36 36 37 38 39 41 43 46
51 52 52 53 55 59 61 60 58 60 65 70 74 73 69 70 57 54 57 61 57 53 50 48 46 43 41 38 39 40 43 46 45 43 42 44 45 45 44 46 47 48 50
48 49 50 51 55 57 56 51 48 46 46 56 55 55 57 55 51 54 56 62 60 58 56 53 51 49 47 47 49 49 49 49 51 49 49 50 51 51 52 53 53 54 55
45 45 49 46 45 43 40 44 40 44 43 30 53 54 53 52 50 55 58 62 62 62 61 59 58 58 57 57 53 52 51 51 52 53 56 56 55 55 57 57 58 57 58
46 44 41 38 39 28 31 30 36 54 49 45 50 53 55 53 54 56 60 58 62 62 62 64 63 63 63 62 61 59 57 58 59 60 60 57 57 59 63 61 62 63 64
43 38 42 38 32 33 35 45 52 45 49 51 49 54 55 55 55 59 61 61 60 61 63 64 67 68 66 66 65 64 63 62 62 61 62 65 67 70 66 68 68 72 74
48 45 48 48 36 42 41 38 51 48 46 50 55 56 57 53 48 55 65 67 65 62 63 63 66 67 67 69 67 67 67 66 65 65 69 72 72 69 72 74 78 77 74
54 54 48 57 48 56 49 46 59 58 55 61 60 61 54 56 60 63 65 68 67 64 67 67 69 69 69 68 68 69 69 70 70 72 71 70 71 76 79 83 84 85 84
56 56 53 59 63 63 57 56 61 64 62 63 74 65 65 64 65 61 60 65 68 69 69 68 68 70 71 70 71 72 72 72 75 75 77 79 82 82 86 86 86 86 87
58 59 62 60 67 72 69 66 65 64 69 68 70 70 72 64 65 67 66 66 70 68 70 73 71 66 76 77 77 77 79 79 79 80 84 87 88 89 89 88 90 93 92
67 69 72 70 76 78 78 79 72 71 76 74 79 78 76 75 77 78 76 75 76 75 79 79 76 80 82 85 83 82 84 84 84 85 86 83 84 86 88 92 93 93 95
76 74 78 80 82 85 90 89 89 87 84 80 85 86 86 83 87 89 86 84 82 86 86 88 88 94 89 87 90 89 89 89 89 89 88 89 90 91 95 97 101 99 99
84 81 79 84 89 96 99 98 101 97 97 95 92 94 92 93 93 95 93 94 92 93 95 95 95 94 101 97 97 98 96 93 90 90 92 99 100 101 102 103 104 106 109
82 79 78 80 85 98 101 111 108 108 107 104 102 101 103 103 101 98 96 100 103 103 101 95 101 99 108 104 108 110 108 109 107 106 105 106 107 110 113 113 113 116 118
79 78 77 76 79 86 95 102 114 116 115 112 110 108 105 104 110 108 109 108 107 107 106 107 106 104 109 111 112 112 115 114 112 115 117 117 118 116 119 119 122 123 124
75 76 76 76 77 79 87 89 99 110 121 119 117 117 113 113 112 112 116 116 116 117 116 114 117 118 115 118 121 124 124 125 125 126 126 123 125 126 125 129 131 133 135
74 74 75 77 78 79 81 86 89 98 98 111 120 122 122 125 122 119 118 118 121 123 123 124 125 124 128 128 126 126 127 128 129 130 132 130 128 131 133 134 137 139 140
73 73 74 75 76 78 80 82 88 92 96 97 103 114 117 119 120 122 124 126 124 123 130 134 131 130 133 137 134 132 132 133 134 134 135 137 139 142 144 144 145 148 148
69 69 71 73 75 76 77 79 82 85 89 95 97 99 103 109 111 112 118 124 127 128 127 126 130 132 133 133 134 137 135 137 139 139 140 141 142 142 145 146 148 151 153
67 68 69 70 71 72 74 75 77 80 82 84 87 92 93 97 100 106 112 114 114 121 128 127 124 126 131 135 136 137 135 135 135 135 138 141 141 143 146 151 153 154 157
57 59 61 64 66 68 71 73 75 77 78 80 82 83 86 88 89 92 100 105 104 107 110 115 121 123 126 131 132 134 136 138 139 141 143 144 146 147 149 152 149 145 141

GFSGL_250_spd_117.txt.gz
Wind_Speed
66 67 67 66 65 66 69 66 62 61 61 56 54 52 54 54 54 54 51 43 37 37 38 42 38 34 38 51 49 50 49 53 59 61 64 60 59 60 61 59 60 63 65
68 67 70 69 67 67 72 66 62 60 59 58 54 51 55 54 58 55 47 42 37 37 39 44 39 37 27 51 51 47 49 52 54 60 65 66 67 66 63 57 56 56 56
69 69 69 69 68 70 71 70 67 65 59 59 55 54 55 58 56 53 50 46 43 43 41 45 41 38 29 34 54 53 51 46 47 50 50 51 54 56 56 54 55 56 57
72 72 71 70 70 72 74 73 70 62 61 59 57 56 55 55 56 55 52 51 49 48 41 49 46 41 33 30 37 52 56 54 51 51 50 50 51 52 56 56 55 59 63
69 69 70 70 72 72 72 70 64 56 62 57 54 59 59 59 59 58 57 55 53 53 45 49 50 45 39 35 32 38 51 57 57 56 56 55 56 58 57 55 53 51 46
64 69 71 72 72 71 71 71 70 67 64 61 58 53 64 65 67 66 64 62 59 57 56 46 57 52 46 41 38 37 36 40 45 46 46 46 47 46 46 44 42 41 41
65 66 64 65 64 66 67 65 65 67 63 61 61 59 69 68 70 71 69 67 68 68 65 61 62 59 54 48 45 42 42 42 41 42 43 45 45 45 45 45 47 47 47
52 54 56 58 58 59 62 61 59 59 58 55 43 64 67 72 73 76 78 75 75 75 68 61 63 65 61 57 52 50 47 46 48 49 49 51 53 55 52 51 50 51 53
54 56 56 57 55 54 53 55 57 59 58 45 60 69 71 70 76 79 81 78 75 69 62 57 61 69 67 62 58 58 56 56 54 55 57 56 58 56 56 55 57 57 58
43 45 46 48 50 50 49 51 54 53 49 49 41 38 50 52 56 59 61 61 54 53 50 56 60 68 71 68 66 64 64 63 62 59 57 58 58 60 60 61 62 62 63
44 50 48 47 48 46 50 50 49 38 39 43 46 51 48 57 60 59 54 53 51 51 50 57 63 66 71 73 71 71 71 69 68 66 65 66 65 65 64 65 66 67 67
48 52 48 50 48 45 45 50 48 49 53 57 48 61 72 65 65 60 58 52 47 49 49 55 62 69 70 70 72 74 75 73 72 71 70 70 70 70 70 70 70 70 73
52 57 52 52 54 49 49 50 52 55 54 62 66 63 62 62 62 50 50 64 59 57 58 61 64 70 73 70 74 75 74 75 73 71 69 71 73 73 74 74 74 75 76
56 62 61 58 59 59 55 56 59 63 64 67 73 75 75 76 62 61 59 62 67 67 64 61 64 66 74 78 80 77 77 76 73 71 73 73 75 77 78 80 79 76 76
63 68 69 69 69 67 66 64 63 64 72 74 65 63 71 81 75 75 71 78 78 78 73 76 74 76 77 79 82 80 78 79 79 79 78 78 77 77 78 81 82 84 86
71 72 75 76 76 74 73 72 72 73 70 77 73 69 78 86 86 86 84 81 78 84 77 80 81 81 82 83 84 84 82 82 84 85 82 77 80 83 84 85 87 90 90
77 77 78 81 80 80 78 78 77 77 79 78 85 85 81 87 94 92 92 92 92 88 91 89 91 91 89 86 86 87 88 87 85 85 88 85 86 92 96 93 94 95 95
83 84 86 86 86 85 84 83 85 86 86 87 87 92 94 92 97 103 101 101 100 100 97 98 98 96 95 92 92 89 89 93 94 90 92 96 94 97 103 104 102 99 101
87 88 90 92 94 95 94 93 91 92 93 95 99 98 101 104 104 102 107 107 107 105 103 104 105 103 103 104 102 104 102 102 100 103 100 98 104 105 105 105 108 109 110
82 84 87 90 92 94 95 95 95 93 93 99 105 107 110 111 112 113 113 110 111 111 111 112 112 112 110 108 109 109 108 110 110 109 113 113 112 114 114 113 113 117 117
76 77 79 81 83 85 86 87 89 90 92 93 96 103 113 114 118 120 119 119 118 116 115 115 115 118 118 117 116 115 117 118 118 117 117 119 119 116 119 119 123 121 124
71 72 74 75 76 78 81 82 84 86 87 89 92 96 100 105 111 116 119 121 122 119 120 121 122 121 125 124 125 123 124 125 124 127 128 128 126 127 127 127 126 129 130
69 69 70 70 71 73 75 77 79 81 83 85 88 92 96 99 103 106 109 113 115 116 120 123 125 125 128 123 127 131 133 133 131 130 130 132 132 132 132 132 133 133 134
67 66 67 68 69 69 70 71 72 75 77 79 82 85 88 93 97 100 101 103 106 107 108 106 111 115 120 123 124 125 130 132 134 134 133 134 136 138 138 136 137 138 140
61 60 60 61 63 65 67 68 69 71 73 75 76 79 81 84 87 90 94 96 99 100 101 101 103 105 107 111 114 120 124 127 127 130 130 130 130 132 132 131 132 131 132
57 56 55 56 58 59 61 63 65 67 69 71 72 73 75 78 81 84 86 88 91 93 94 95 96 98 100 102 104 105 108 111 115 118 119 121 123 125 128 131 133 134 133

GFSGL_250_spd_123.txt.gz
Wind_Speed
70 69 74 73 68 75 79 72 72 68 64 57 58 52 55 53 54 53 56 58 61 58 56 57 55 57 56 56 56 50 44 36 33 34 32 43 46 53 52 53 56 55 55
78 71 68 80 82 83 82 77 73 72 68 64 59 59 58 59 60 61 61 59 59 55 56 54 58 58 57 61 57 53 46 38 33 36 35 40 46 52 55 51 58 56 57
72 77 84 88 86 83 79 77 77 74 72 69 66 65 62 58 61 61 60 60 59 59 60 60 61 60 62 59 58 56 51 46 42 37 37 43 46 51 58 61 63 63 61
64 68 68 77 80 79 79 78 77 75 74 71 71 71 71 69 70 69 66 65 65 65 64 61 63 64 63 60 57 58 54 55 45 38 39 41 52 52 54 59 62 66 65
59 63 68 72 76 77 79 79 78 74 72 72 70 71 71 71 70 69 68 67 67 65 66 64 66 67 66 66 63 58 56 57 46 44 39 42 47 59 59 58 60 59 59
54 58 64 69 71 74 76 77 76 74 73 73 74 74 73 72 70 69 69 68 69 69 63 62 65 65 66 67 66 60 55 55 55 47 39 43 44 55 65 64 65 65 62
54 58 64 68 71 73 73 77 78 77 77 77 78 77 76 75 72 71 64 64 56 53 60 63 66 67 63 66 70 66 61 55 55 55 48 43 47 50 58 69 69 70 70
50 55 59 64 69 72 75 78 79 81 81 81 82 81 80 79 78 76 70 65 62 64 63 71 74 69 68 61 60 65 62 63 56 53 48 49 52 53 56 56 66 70 71
43 48 53 58 63 66 70 76 79 82 84 86 87 86 85 83 83 83 83 82 84 78 71 81 76 76 75 77 69 69 65 59 61 60 62 63 60 62 62 64 62 58 58
43 45 49 53 58 60 63 65 70 75 80 82 82 83 84 86 86 85 84 82 81 77 74 87 90 90 84 77 73 66 70 75 69 74 63 69 71 65 70 69 69 67 63
45 47 48 48 49 52 55 57 60 64 69 74 77 78 79 79 80 81 81 79 76 76 74 74 69 68 70 78 79 78 79 81 79 79 71 68 67 69 70 72 73 71 71
54 54 54 55 54 57 58 61 63 66 68 72 75 75 76 75 77 78 77 78 77 71 70 72 76 74 73 72 76 76 72 63 60 60 61 60 63 64 68 73 76 76 75
64 63 63 64 64 64 67 66 65 69 69 68 70 75 77 75 77 79 79 77 74 72 80 82 82 78 76 79 83 88 77 71 61 56 57 60 61 65 67 70 76 79 80
76 75 72 72 73 74 75 73 70 69 71 70 70 73 73 71 72 71 72 72 74 75 78 85 85 85 78 71 77 79 77 72 75 68 64 66 66 63 66 71 74 79 80
78 76 75 73 75 78 78 74 73 73 73 71 73 77 78 79 75 74 74 75 76 78 81 84 86 86 83 77 71 73 76 71 75 78 75 70 69 69 69 72 77 82 86
84 82 78 80 80 81 84 86 85 83 82 83 81 79 83 85 82 82 81 80 79 77 80 84 90 88 86 89 85 84 86 86 85 86 86 85 84 80 80 80 78 80 84
82 82 82 81 81 81 82 84 85 87 87 86 87 87 86 88 90 88 91 89 84 82 82 89 90 93 90 91 89 89 93 93 93 91 87 84 86 87 89 90 88 89 88
83 83 83 83 83 83 85 87 88 88 89 90 91 92 92 92 95 92 95 97 96 93 89 92 100 100 102 101 102 100 102 99 97 95 96 93 92 94 95 96 95 94 95
81 81 82 83 83 83 84 84 85 86 88 90 92 94 96 97 98 99 98 99 104 103 100 99 101 105 109 108 108 110 110 106 106 103 103 104 101 103 104 102 102 103 103
73 74 75 76 76 77 77 78 80 81 83 86 89 92 92 95 99 100 101 103 104 107 110 109 108 107 108 111 116 119 118 117 117 117 112 107 109 112 112 112 116 115 109
68 69 70 71 71 71 71 73 75 78 80 82 85 86 86 88 91 94 97 99 101 105 107 110 113 115 115 115 115 115 120 123 124 125 125 124 126 122 124 122 123 123 123
71 73 74 74 73 72 72 71 72 73 75 76 77 80 82 82 83 86 89 92 95 98 101 104 107 109 112 116 118 119 121 122 122 123 123 122 122 121 125 126 124 125 127
70 69 68 67 68 68 68 68 68 68 68 68 70 73 76 79 80 80 82 84 87 89 92 96 99 103 107 110 112 115 118 119 122 123 123 123 122 124 124 125 128 130 131
68 66 64 62 61 62 62 62 61 60 60 60 60 62 66 71 75 77 79 80 81 84 87 89 91 93 97 100 103 106 109 112 115 118 121 122 124 124 124 126 127 128 129
68 63 60 59 58 59 59 58 57 55 54 54 56 57 59 63 67 70 73 75 77 80 82 84 85 87 90 92 94 96 99 101 104 107 110 112 115 117 120 122 123 124 125
66 60 58 56 55 55 55 55 54 52 51 51 52 53 55 57 59 62 65 68 70 72 73 76 80 82 84 86 87 90 92 94 96 98 100 101 102 104 105 106 107 108 109

GFSGL_250_spd_126.txt.gz
Wind_Speed
92 83 82 81 86 75 67 62 58 59 61 67 65 63 61 63 58 57 57 54 55 50 50 50 53 56 58 62 61 54 51 47 46 47 47 42 42 35 36 43 47 50 49
72 78 76 66 67 62 57 58 63 61 68 70 70 70 66 64 64 63 62 60 57 56 55 58 60 63 64 62 60 57 53 50 47 47 48 45 45 42 36 43 46 52 54
44 49 54 56 55 53 61 63 68 71 70 74 75 75 72 69 66 61 60 61 60 61 62 64 66 63 59 59 61 59 54 56 50 49 46 46 44 40 36 41 48 55 55
32 37 53 60 66 69 73 73 67 70 76 74 78 78 72 71 68 69 65 64 66 66 68 70 69 65 65 63 63 60 60 60 55 49 48 47 46 42 38 42 47 52 58
47 51 60 65 73 75 79 80 81 73 76 77 81 81 75 71 71 72 74 73 72 71 69 69 69 69 66 66 64 61 59 57 55 52 54 49 50 48 43 44 44 52 60
60 62 66 67 67 73 79 83 77 79 81 91 78 81 79 76 77 77 76 77 78 76 75 73 70 67 66 66 66 67 61 56 56 59 57 51 48 53 46 45 52 47 59
47 53 66 70 73 73 79 79 80 82 89 85 78 82 81 80 80 79 79 79 79 78 78 77 75 74 73 69 64 60 60 60 60 58 56 59 52 53 50 49 52 50 50
38 43 52 61 66 69 72 75 76 75 80 86 86 85 84 84 83 84 82 80 81 83 81 80 79 74 66 58 60 68 63 64 64 59 61 55 53 54 59 54 49 51 45
41 45 47 50 57 60 62 66 70 72 75 80 84 85 86 87 86 86 85 82 79 85 81 79 76 71 64 58 67 70 69 70 66 60 59 62 66 73 66 58 54 51 54
37 41 44 44 48 54 57 60 64 68 73 77 80 82 85 89 90 90 90 90 90 90 88 85 83 83 78 70 73 83 81 83 82 80 80 71 66 67 64 61 63 64 64
41 41 42 42 45 48 51 55 60 65 68 72 76 80 84 87 89 92 94 95 97 96 94 93 93 91 91 87 88 91 85 85 86 90 85 72 73 72 68 72 74 75 75
49 49 50 51 52 54 56 56 57 57 59 65 71 73 77 80 85 88 90 93 94 94 93 91 91 89 87 86 85 84 85 88 87 80 78 78 80 76 80 83 81 73 78
59 62 62 63 63 63 62 64 66 65 65 65 68 69 73 75 77 80 83 85 86 87 88 88 88 87 84 81 82 77 79 78 79 81 80 80 81 80 79 75 70 66 68
68 72 75 73 73 71 76 74 76 77 75 75 77 78 77 78 80 82 81 82 83 84 84 86 86 86 86 86 85 85 82 82 87 88 83 81 83 84 82 82 81 75 70
76 74 77 79 79 80 81 85 84 84 85 84 85 86 88 90 90 89 90 92 92 90 89 90 90 90 89 88 86 86 88 91 94 94 88 85 87 85 86 86 81 76 74
83 83 84 86 88 90 90 90 92 88 92 95 97 96 96 98 98 97 97 96 94 95 91 92 94 94 93 93 91 89 93 94 99 96 90 88 83 84 83 83 83 82 81
78 82 83 88 89 92 93 92 92 93 93 94 96 98 98 99 101 103 100 99 99 96 96 95 96 97 96 95 94 92 94 97 103 101 101 97 92 91 83 85 87 82 82
74 76 78 80 82 84 86 87 88 90 91 93 95 97 98 100 102 104 104 105 106 105 105 103 102 102 101 100 100 98 95 94 96 98 100 97 96 98 98 93 94 93 92
68 70 72 74 76 78 79 81 81 81 82 84 87 90 93 97 100 102 103 103 104 105 108 109 109 108 107 105 104 104 102 100 99 100 103 99 97 101 103 105 102 102 101
62 64 67 69 72 74 76 78 79 80 81 82 82 83 84 86 90 94 97 99 100 101 104 106 107 108 109 109 109 109 109 109 107 104 105 109 110 109 104 104 106 107 106
59 62 65 67 70 72 73 74 75 76 77 79 80 83 85 86 86 86 88 91 92 94 96 97 99 103 105 107 109 111 111 113 115 113 111 112 117 120 118 118 117 116 115
61 65 67 69 71 71 71 71 71 72 73 73 73 75 76 77 79 81 82 81 82 84 88 90 92 94 97 100 105 106 109 112 113 115 117 117 117 122 123 124 126 126 122
65 68 69 70 70 68 67 67 66 67 67 67 68 68 68 68 69 70 72 73 74 77 80 81 82 86 90 93 96 100 103 108 110 114 116 118 121 121 123 127 129 129 129
69 70 71 71 69 65 63 62 61 61 60 60 60 60 59 60 60 62 64 66 68 70 73 76 78 79 81 84 88 91 94 98 103 107 110 113 117 120 122 123 124 126 128
72 74 74 71 67 63 60 58 56 55 55 55 55 55 54 54 54 55 57 59 61 64 66 69 73 75 75 77 80 83 86 90 93 97 100 104 107 110 113 117 119 122 123
75 75 73 69 66 63 60 57 55 54 53 52 52 51 52 52 51 51 52 54 56 58 60 62 64 67 69 70 72 75 79 82 85 88 91 94 97 100 103 105 107 110 112

GFSGL_250_spd_129.txt.gz
Wind_Speed
74 81 84 88 86 85 92 94 94 90 93 87 82 87 94 74 68 67 63 64 57 53 49 53 50 53 53 52 52 49 52 53 52 58 55 56 53 48 40 38 40 35 31
66 78 85 87 90 95 103 99 94 89 93 98 93 98 79 76 68 69 66 66 63 57 54 51 56 53 56 57 57 57 57 56 57 58 59 56 53 51 41 42 39 35 32
53 66 81 90 96 101 102 94 95 95 88 88 95 88 79 70 68 74 72 69 68 64 64 63 64 66 60 62 62 61 60 61 58 58 55 56 53 51 48 43 39 37 37
42 50 58 70 75 76 79 89 92 91 87 85 80 77 75 73 74 72 76 78 76 73 71 70 69 68 65 64 64 63 64 65 62 59 59 57 56 56 53 46 44 42 37
25 21 27 37 45 57 62 63 62 58 59 64 68 68 67 69 70 72 77 77 77 75 72 72 73 73 71 68 69 70 69 70 67 64 60 57 61 54 47 38 40 40 38
32 29 30 32 33 41 39 45 52 59 59 62 64 68 69 72 73 67 81 80 85 79 77 77 77 76 72 73 73 72 70 69 65 66 64 67 63 54 50 43 45 45 41
40 37 35 38 41 46 55 59 63 65 64 67 68 73 76 78 80 82 82 82 86 86 83 81 82 81 80 79 79 79 77 74 73 70 69 65 61 59 56 51 50 47 50
31 44 45 44 49 56 57 63 67 72 72 75 80 82 83 83 86 88 89 87 88 90 87 85 81 80 81 80 79 78 78 77 74 65 69 66 68 66 63 63 54 55 49
33 39 52 56 55 60 58 61 65 78 79 77 83 85 86 85 84 86 87 89 87 88 90 91 88 85 86 84 81 79 79 80 77 72 64 71 73 74 62 58 58 55 55
39 41 42 45 51 54 58 63 71 71 82 83 81 82 83 90 89 92 90 89 90 93 91 91 92 91 91 91 88 86 83 80 76 71 71 76 83 77 70 72 71 73 71
45 45 44 43 42 48 52 54 60 74 79 84 85 85 85 89 89 90 94 96 96 96 97 97 97 95 95 93 92 91 91 87 81 75 73 69 77 77 77 79 83 81 80
46 46 45 45 47 47 50 54 56 61 65 69 74 79 82 83 86 88 90 92 92 93 95 99 102 101 101 99 98 96 95 93 90 86 85 82 84 89 90 91 91 86 86
56 54 57 58 60 60 59 61 62 63 65 66 69 71 73 77 81 83 87 88 91 93 96 98 101 103 103 104 105 104 103 100 99 98 99 100 97 97 95 93 96 96 95
63 64 65 66 68 70 71 72 72 74 73 75 76 77 79 78 79 80 82 85 88 92 95 97 100 102 103 104 105 105 105 105 104 102 100 96 90 93 90 90 88 85 86
72 76 77 76 78 81 80 80 84 83 85 87 86 85 86 88 90 92 92 91 91 92 93 94 96 98 98 98 99 99 99 97 96 95 95 93 89 92 87 85 84 82 82
81 81 83 85 87 88 90 88 88 86 85 86 88 90 95 94 97 100 99 99 100 100 100 100 100 100 100 101 101 100 100 99 97 97 95 92 90 92 93 91 91 92 96
77 80 83 86 88 90 92 94 94 94 93 95 96 97 97 97 98 99 102 108 109 106 109 110 109 108 107 107 107 104 100 99 99 98 98 99 97 96 98 97 98 100 100
76 77 79 81 83 85 86 87 89 92 93 94 94 97 98 98 98 98 99 102 106 111 112 114 114 114 114 115 115 115 113 110 109 109 107 104 103 101 99 99 99 102 106
67 67 68 70 72 74 76 78 80 82 84 86 88 91 92 93 95 96 98 99 99 101 104 108 111 112 112 113 116 118 119 117 115 114 113 110 109 107 106 104 105 105 108
56 57 59 60 62 65 67 70 73 76 79 82 84 87 88 87 88 88 89 91 94 95 96 97 100 102 104 106 108 111 114 115 116 115 115 114 112 111 110 108 106 105 110
51 52 55 58 61 65 68 71 73 76 78 80 81 81 84 84 86 86 84 83 82 83 86 87 90 92 94 96 97 100 104 108 108 111 116 115 114 115 113 113 111 109 111
51 55 58 61 64 66 68 70 72 74 74 73 73 73 74 77 78 78 78 77 76 75 74 75 78 82 86 88 88 89 92 95 98 102 106 110 113 115 117 117 115 114 115
55 59 62 65 67 69 70 72 73 72 70 68 67 68 69 70 70 70 70 69 68 67 67 68 69 70 74 78 81 84 86 86 89 93 98 101 104 109 113 117 118 118 119
60 63 66 68 70 72 75 75 73 70 66 65 64 64 63 63 64 63 63 62 62 62 61 62 63 65 66 69 73 76 80 83 84 86 89 94 98 101 105 108 112 115 119
64 67 70 73 74 76 77 76 73 69 67 65 63 61 60 59 59 58 57 56 56 56 57 58 59 60 62 63 64 68 73 76 79 81 84 87 90 95 99 102 105 108 111
69 71 73 75 77 78 77 75 71 68 65 63 61 60 58 56 56 55 54 54 54 54 54 54 54 56 57 59 60 61 63 67 70 73 76 80 84 87 90 94 97 101 104